Multibeam Report for MV1203


Ship Name: Melville
Chief Scientist: Koppers, Anthony
Oregon State University
Source Organization: Rolling Deck to Repository
Start Date: 2012-02-11
End Date: 2012-03-30


View ISO Metadata

Visit the full NCEI Bathymetry Viewer


Multibeam Bathymetry

Cruise Details

Project: Plate Tectonic and Geochemical Evolution of The Young Walvis Ridge
Instrument: Kongsberg EM122

Data Quality

Number of Files: 15186
Number of Records: 999867
BATHYMETRY DATA Quantity Percentage
Number of Beams 431942544 100%
Number of Good Beams 361604369 83.72%
Number of Zero Beams 0 0%
Number of Flagged Beams 70338175 16.28%
AMPLITUDE DATA Quantity Percentage
Number of Beams 431942544 100%
Number of Good Beams 361604369 83.72%
Number of Zero Beams 0 0%
Number of Flagged Beams 70338175 16.28%
SIDESCAN DATA Quantity Percentage
Number of Pixels 1023863808 100%
Number of Good Pixels 778439043 76.03%
Number of Zero Pixels 0 0%
Number of Flagged Pixels 245424765 23.97%

Navigation Totals

Total Time: 1834.1891 hours
Total Track Length: 30371.2144 km
Average Speed: 16.558 km/hr (8.9406 knots)

Cruise Bounds

Northern Extent: -30.000046
Southern Extent: -40.294388
Western Extent: -13.313782
Eastern Extent: 18.17154

Limits

Minimum Sonar Depth 0 Maximum Sonar Depth 10.4167
Minimum Altitude 127.6948 Maximum Altitude 7457.771
Minimum Depth 127.5104 Maximum Depth 7612.6943
Minimum Amplitude 0 Maximum Amplitude 17.9
Minimum Sidescan 0 Maximum Sidescan 36.79

File Information

Full Resolution Bathymetry as collected (raw): 15182

Files File Size Description
0000_20120211_143413_melville.all.mb58.gz 28.7KB Kongsberg multibeam vendor format
0001_20120211_155437_melville.all.mb58.gz 507.2KB Kongsberg multibeam vendor format
0001_20120211_203316_melville.all.mb58.gz 304.3KB Kongsberg multibeam vendor format
0001_20120211_203337_melville.all.mb58.gz 3.91MB Kongsberg multibeam vendor format
0001_20120211_203837_melville.all.mb58.gz 3.96MB Kongsberg multibeam vendor format
0001_20120211_204337_melville.all.mb58.gz 4.02MB Kongsberg multibeam vendor format
0001_20120211_204837_melville.all.mb58.gz 3.93MB Kongsberg multibeam vendor format
0001_20120211_205337_melville.all.mb58.gz 3.97MB Kongsberg multibeam vendor format
0001_20120211_205837_melville.all.mb58.gz 4.22MB Kongsberg multibeam vendor format
0001_20120211_210337_melville.all.mb58.gz 4.09MB Kongsberg multibeam vendor format
0001_20120211_210837_melville.all.mb58.gz 3.77MB Kongsberg multibeam vendor format
0001_20120211_211337_melville.all.mb58.gz 3.69MB Kongsberg multibeam vendor format
0001_20120211_211837_melville.all.mb58.gz 3.84MB Kongsberg multibeam vendor format
0001_20120211_212337_melville.all.mb58.gz 3.89MB Kongsberg multibeam vendor format
0001_20120211_212837_melville.all.mb58.gz 3.53MB Kongsberg multibeam vendor format
0001_20120211_213337_melville.all.mb58.gz 3.49MB Kongsberg multibeam vendor format
0001_20120211_213837_melville.all.mb58.gz 3.44MB Kongsberg multibeam vendor format
0001_20120211_214337_melville.all.mb58.gz 3.50MB Kongsberg multibeam vendor format
0001_20120211_214837_melville.all.mb58.gz 3.36MB Kongsberg multibeam vendor format
0001_20120211_215337_melville.all.mb58.gz 3.43MB Kongsberg multibeam vendor format
0001_20120211_215837_melville.all.mb58.gz 3.45MB Kongsberg multibeam vendor format
0001_20120211_220337_melville.all.mb58.gz 3.45MB Kongsberg multibeam vendor format
0001_20120211_220837_melville.all.mb58.gz 3.35MB Kongsberg multibeam vendor format
0001_20120211_221337_melville.all.mb58.gz 3.46MB Kongsberg multibeam vendor format
0001_20120211_221837_melville.all.mb58.gz 3.50MB Kongsberg multibeam vendor format
0001_20120211_222337_melville.all.mb58.gz 3.47MB Kongsberg multibeam vendor format
0001_20120211_222837_melville.all.mb58.gz 3.57MB Kongsberg multibeam vendor format
0001_20120211_223337_melville.all.mb58.gz 3.49MB Kongsberg multibeam vendor format
0001_20120211_223837_melville.all.mb58.gz 3.40MB Kongsberg multibeam vendor format
0001_20120211_224337_melville.all.mb58.gz 3.50MB Kongsberg multibeam vendor format
0001_20120211_224837_melville.all.mb58.gz 3.49MB Kongsberg multibeam vendor format
0001_20120211_225337_melville.all.mb58.gz 3.49MB Kongsberg multibeam vendor format
0001_20120211_225837_melville.all.mb58.gz 3.42MB Kongsberg multibeam vendor format
0001_20120211_230337_melville.all.mb58.gz 3.49MB Kongsberg multibeam vendor format
0001_20120211_230837_melville.all.mb58.gz 3.44MB Kongsberg multibeam vendor format
0001_20120211_231337_melville.all.mb58.gz 3.45MB Kongsberg multibeam vendor format
0001_20120211_231837_melville.all.mb58.gz 3.49MB Kongsberg multibeam vendor format
0001_20120211_232337_melville.all.mb58.gz 3.35MB Kongsberg multibeam vendor format
0001_20120211_232837_melville.all.mb58.gz 3.47MB Kongsberg multibeam vendor format
0001_20120211_233337_melville.all.mb58.gz 3.37MB Kongsberg multibeam vendor format
0001_20120211_233837_melville.all.mb58.gz 3.48MB Kongsberg multibeam vendor format
0001_20120211_234337_melville.all.mb58.gz 3.40MB Kongsberg multibeam vendor format
0001_20120211_234837_melville.all.mb58.gz 3.40MB Kongsberg multibeam vendor format
0001_20120211_235337_melville.all.mb58.gz 3.26MB Kongsberg multibeam vendor format
0001_20120211_235837_melville.all.mb58.gz 3.17MB Kongsberg multibeam vendor format
0001_20120212_000337_melville.all.mb58.gz 3.21MB Kongsberg multibeam vendor format
0001_20120212_000837_melville.all.mb58.gz 3.13MB Kongsberg multibeam vendor format
0001_20120212_001337_melville.all.mb58.gz 3.15MB Kongsberg multibeam vendor format
0001_20120212_001838_melville.all.mb58.gz 3.07MB Kongsberg multibeam vendor format
0001_20120212_002338_melville.all.mb58.gz 3.10MB Kongsberg multibeam vendor format
0001_20120212_002838_melville.all.mb58.gz 3.12MB Kongsberg multibeam vendor format
0001_20120212_003338_melville.all.mb58.gz 3.12MB Kongsberg multibeam vendor format
0001_20120212_003838_melville.all.mb58.gz 3.05MB Kongsberg multibeam vendor format
0001_20120212_004338_melville.all.mb58.gz 3.08MB Kongsberg multibeam vendor format
0001_20120212_004838_melville.all.mb58.gz 2.95MB Kongsberg multibeam vendor format
0001_20120212_005338_melville.all.mb58.gz 2.84MB Kongsberg multibeam vendor format
0001_20120212_005838_melville.all.mb58.gz 2.86MB Kongsberg multibeam vendor format
0001_20120212_010338_melville.all.mb58.gz 2.76MB Kongsberg multibeam vendor format
0001_20120212_010838_melville.all.mb58.gz 2.87MB Kongsberg multibeam vendor format
0001_20120212_011338_melville.all.mb58.gz 2.76MB Kongsberg multibeam vendor format
0001_20120212_011838_melville.all.mb58.gz 2.89MB Kongsberg multibeam vendor format
0001_20120212_012338_melville.all.mb58.gz 2.78MB Kongsberg multibeam vendor format
0001_20120212_012838_melville.all.mb58.gz 2.78MB Kongsberg multibeam vendor format
0001_20120212_013338_melville.all.mb58.gz 2.90MB Kongsberg multibeam vendor format
0001_20120212_013838_melville.all.mb58.gz 2.80MB Kongsberg multibeam vendor format
0001_20120212_014338_melville.all.mb58.gz 2.80MB Kongsberg multibeam vendor format
0001_20120212_014838_melville.all.mb58.gz 2.82MB Kongsberg multibeam vendor format
0001_20120212_015338_melville.all.mb58.gz 2.81MB Kongsberg multibeam vendor format
0001_20120212_015838_melville.all.mb58.gz 2.81MB Kongsberg multibeam vendor format
0001_20120212_020338_melville.all.mb58.gz 2.81MB Kongsberg multibeam vendor format
0001_20120212_020838_melville.all.mb58.gz 2.81MB Kongsberg multibeam vendor format
0001_20120212_021338_melville.all.mb58.gz 2.83MB Kongsberg multibeam vendor format
0001_20120212_021838_melville.all.mb58.gz 2.84MB Kongsberg multibeam vendor format
0001_20120212_022338_melville.all.mb58.gz 2.83MB Kongsberg multibeam vendor format
0001_20120212_022838_melville.all.mb58.gz 2.72MB Kongsberg multibeam vendor format
0001_20120212_023338_melville.all.mb58.gz 2.84MB Kongsberg multibeam vendor format
0001_20120212_023838_melville.all.mb58.gz 2.84MB Kongsberg multibeam vendor format
0001_20120212_024338_melville.all.mb58.gz 2.74MB Kongsberg multibeam vendor format
0001_20120212_024838_melville.all.mb58.gz 2.83MB Kongsberg multibeam vendor format
0001_20120212_025338_melville.all.mb58.gz 2.75MB Kongsberg multibeam vendor format
0001_20120212_025838_melville.all.mb58.gz 2.76MB Kongsberg multibeam vendor format
0001_20120212_030338_melville.all.mb58.gz 2.86MB Kongsberg multibeam vendor format
0001_20120212_030838_melville.all.mb58.gz 2.75MB Kongsberg multibeam vendor format
0001_20120212_031338_melville.all.mb58.gz 2.76MB Kongsberg multibeam vendor format
0001_20120212_031838_melville.all.mb58.gz 2.89MB Kongsberg multibeam vendor format
0001_20120212_032338_melville.all.mb58.gz 2.73MB Kongsberg multibeam vendor format
0001_20120212_032838_melville.all.mb58.gz 2.76MB Kongsberg multibeam vendor format
0001_20120212_033338_melville.all.mb58.gz 2.75MB Kongsberg multibeam vendor format
0001_20120212_033838_melville.all.mb58.gz 2.76MB Kongsberg multibeam vendor format
0001_20120212_034338_melville.all.mb58.gz 2.77MB Kongsberg multibeam vendor format
0001_20120212_034838_melville.all.mb58.gz 2.91MB Kongsberg multibeam vendor format
0001_20120212_035338_melville.all.mb58.gz 2.77MB Kongsberg multibeam vendor format
0001_20120212_035838_melville.all.mb58.gz 2.78MB Kongsberg multibeam vendor format
0001_20120212_040338_melville.all.mb58.gz 2.79MB Kongsberg multibeam vendor format
0001_20120212_040838_melville.all.mb58.gz 2.77MB Kongsberg multibeam vendor format
0001_20120212_041338_melville.all.mb58.gz 2.67MB Kongsberg multibeam vendor format
0001_20120212_041838_melville.all.mb58.gz 2.80MB Kongsberg multibeam vendor format
0001_20120212_042338_melville.all.mb58.gz 2.79MB Kongsberg multibeam vendor format
0001_20120212_042838_melville.all.mb58.gz 2.81MB Kongsberg multibeam vendor format
0001_20120212_043338_melville.all.mb58.gz 2.77MB Kongsberg multibeam vendor format
0001_20120212_043838_melville.all.mb58.gz 2.66MB Kongsberg multibeam vendor format
0001_20120212_044338_melville.all.mb58.gz 2.78MB Kongsberg multibeam vendor format
0001_20120212_044838_melville.all.mb58.gz 2.78MB Kongsberg multibeam vendor format
0001_20120212_045338_melville.all.mb58.gz 2.61MB Kongsberg multibeam vendor format
0001_20120212_045838_melville.all.mb58.gz 2.81MB Kongsberg multibeam vendor format
0001_20120212_050338_melville.all.mb58.gz 2.77MB Kongsberg multibeam vendor format
0001_20120212_050838_melville.all.mb58.gz 2.67MB Kongsberg multibeam vendor format
0001_20120212_051338_melville.all.mb58.gz 2.82MB Kongsberg multibeam vendor format
0001_20120212_051838_melville.all.mb58.gz 2.62MB Kongsberg multibeam vendor format
0001_20120212_052338_melville.all.mb58.gz 2.76MB Kongsberg multibeam vendor format
0001_20120212_052838_melville.all.mb58.gz 2.65MB Kongsberg multibeam vendor format
0001_20120212_053338_melville.all.mb58.gz 2.68MB Kongsberg multibeam vendor format
0001_20120212_053838_melville.all.mb58.gz 2.63MB Kongsberg multibeam vendor format
0001_20120212_054338_melville.all.mb58.gz 2.55MB Kongsberg multibeam vendor format
0001_20120212_054838_melville.all.mb58.gz 2.70MB Kongsberg multibeam vendor format
0001_20120212_055338_melville.all.mb58.gz 2.57MB Kongsberg multibeam vendor format
0001_20120212_055838_melville.all.mb58.gz 2.56MB Kongsberg multibeam vendor format
0001_20120212_060338_melville.all.mb58.gz 2.68MB Kongsberg multibeam vendor format
0001_20120212_060838_melville.all.mb58.gz 2.56MB Kongsberg multibeam vendor format
0001_20120212_061338_melville.all.mb58.gz 2.60MB Kongsberg multibeam vendor format
0001_20120212_061838_melville.all.mb58.gz 2.58MB Kongsberg multibeam vendor format
0001_20120212_062339_melville.all.mb58.gz 2.67MB Kongsberg multibeam vendor format
0001_20120212_062839_melville.all.mb58.gz 2.57MB Kongsberg multibeam vendor format
0001_20120212_063339_melville.all.mb58.gz 2.57MB Kongsberg multibeam vendor format
0001_20120212_063839_melville.all.mb58.gz 2.58MB Kongsberg multibeam vendor format
0001_20120212_064339_melville.all.mb58.gz 2.70MB Kongsberg multibeam vendor format
0001_20120212_064839_melville.all.mb58.gz 2.53MB Kongsberg multibeam vendor format
0001_20120212_065339_melville.all.mb58.gz 2.53MB Kongsberg multibeam vendor format
0001_20120212_065839_melville.all.mb58.gz 2.68MB Kongsberg multibeam vendor format
0001_20120212_070339_melville.all.mb58.gz 2.57MB Kongsberg multibeam vendor format
0001_20120212_070839_melville.all.mb58.gz 2.57MB Kongsberg multibeam vendor format
0001_20120212_071339_melville.all.mb58.gz 2.57MB Kongsberg multibeam vendor format
0001_20120212_071839_melville.all.mb58.gz 2.58MB Kongsberg multibeam vendor format
0001_20120212_072339_melville.all.mb58.gz 2.59MB Kongsberg multibeam vendor format
0001_20120212_072839_melville.all.mb58.gz 2.58MB Kongsberg multibeam vendor format
0001_20120212_073339_melville.all.mb58.gz 2.57MB Kongsberg multibeam vendor format
0001_20120212_073839_melville.all.mb58.gz 2.59MB Kongsberg multibeam vendor format
0001_20120212_074339_melville.all.mb58.gz 2.59MB Kongsberg multibeam vendor format
0001_20120212_074839_melville.all.mb58.gz 2.59MB Kongsberg multibeam vendor format
0001_20120212_075339_melville.all.mb58.gz 2.58MB Kongsberg multibeam vendor format
0001_20120212_075839_melville.all.mb58.gz 2.48MB Kongsberg multibeam vendor format
0001_20120212_080339_melville.all.mb58.gz 2.59MB Kongsberg multibeam vendor format
0001_20120212_080839_melville.all.mb58.gz 2.60MB Kongsberg multibeam vendor format
0001_20120212_081339_melville.all.mb58.gz 2.57MB Kongsberg multibeam vendor format
0001_20120212_081839_melville.all.mb58.gz 2.61MB Kongsberg multibeam vendor format
0001_20120212_082339_melville.all.mb58.gz 2.58MB Kongsberg multibeam vendor format
0001_20120212_082839_melville.all.mb58.gz 2.60MB Kongsberg multibeam vendor format
0001_20120212_083339_melville.all.mb58.gz 2.58MB Kongsberg multibeam vendor format
0001_20120212_083839_melville.all.mb58.gz 2.58MB Kongsberg multibeam vendor format
0001_20120212_084339_melville.all.mb58.gz 2.58MB Kongsberg multibeam vendor format
0001_20120212_084839_melville.all.mb58.gz 2.61MB Kongsberg multibeam vendor format
0001_20120212_085339_melville.all.mb58.gz 2.60MB Kongsberg multibeam vendor format
0001_20120212_085839_melville.all.mb58.gz 2.32MB Kongsberg multibeam vendor format
0001_20120212_090339_melville.all.mb58.gz 2.35MB Kongsberg multibeam vendor format
0001_20120212_090839_melville.all.mb58.gz 2.28MB Kongsberg multibeam vendor format
0001_20120212_091339_melville.all.mb58.gz 2.34MB Kongsberg multibeam vendor format
0001_20120212_091839_melville.all.mb58.gz 2.36MB Kongsberg multibeam vendor format
0001_20120212_092339_melville.all.mb58.gz 2.35MB Kongsberg multibeam vendor format
0001_20120212_092839_melville.all.mb58.gz 2.28MB Kongsberg multibeam vendor format
0001_20120212_093339_melville.all.mb58.gz 2.35MB Kongsberg multibeam vendor format
0001_20120212_093839_melville.all.mb58.gz 2.35MB Kongsberg multibeam vendor format
0001_20120212_094339_melville.all.mb58.gz 2.28MB Kongsberg multibeam vendor format
0001_20120212_094839_melville.all.mb58.gz 2.36MB Kongsberg multibeam vendor format
0001_20120212_095339_melville.all.mb58.gz 2.34MB Kongsberg multibeam vendor format
0001_20120212_095839_melville.all.mb58.gz 2.28MB Kongsberg multibeam vendor format
0001_20120212_100339_melville.all.mb58.gz 2.34MB Kongsberg multibeam vendor format
0001_20120212_100839_melville.all.mb58.gz 2.36MB Kongsberg multibeam vendor format
0001_20120212_101339_melville.all.mb58.gz 2.35MB Kongsberg multibeam vendor format
0001_20120212_101839_melville.all.mb58.gz 2.32MB Kongsberg multibeam vendor format
0001_20120212_102339_melville.all.mb58.gz 2.35MB Kongsberg multibeam vendor format
0001_20120212_102839_melville.all.mb58.gz 2.35MB Kongsberg multibeam vendor format
0001_20120212_103339_melville.all.mb58.gz 2.28MB Kongsberg multibeam vendor format
0001_20120212_103839_melville.all.mb58.gz 2.34MB Kongsberg multibeam vendor format
0001_20120212_104339_melville.all.mb58.gz 2.34MB Kongsberg multibeam vendor format
0001_20120212_104839_melville.all.mb58.gz 2.36MB Kongsberg multibeam vendor format
0001_20120212_105339_melville.all.mb58.gz 2.28MB Kongsberg multibeam vendor format
0001_20120212_105839_melville.all.mb58.gz 2.35MB Kongsberg multibeam vendor format
0001_20120212_110339_melville.all.mb58.gz 2.35MB Kongsberg multibeam vendor format
0001_20120212_110839_melville.all.mb58.gz 2.29MB Kongsberg multibeam vendor format
0001_20120212_111339_melville.all.mb58.gz 2.35MB Kongsberg multibeam vendor format
0001_20120212_111839_melville.all.mb58.gz 2.36MB Kongsberg multibeam vendor format
0001_20120212_112339_melville.all.mb58.gz 2.28MB Kongsberg multibeam vendor format
0001_20120212_112839_melville.all.mb58.gz 2.35MB Kongsberg multibeam vendor format
0001_20120212_113339_melville.all.mb58.gz 2.28MB Kongsberg multibeam vendor format
0001_20120212_113839_melville.all.mb58.gz 2.35MB Kongsberg multibeam vendor format
0001_20120212_114339_melville.all.mb58.gz 2.28MB Kongsberg multibeam vendor format
0001_20120212_114839_melville.all.mb58.gz 2.37MB Kongsberg multibeam vendor format
0001_20120212_115339_melville.all.mb58.gz 2.28MB Kongsberg multibeam vendor format
0001_20120212_115839_melville.all.mb58.gz 2.35MB Kongsberg multibeam vendor format
0001_20120212_120339_melville.all.mb58.gz 2.35MB Kongsberg multibeam vendor format
0001_20120212_120839_melville.all.mb58.gz 2.28MB Kongsberg multibeam vendor format
0001_20120212_121339_melville.all.mb58.gz 2.28MB Kongsberg multibeam vendor format
0001_20120212_121839_melville.all.mb58.gz 2.34MB Kongsberg multibeam vendor format
0001_20120212_122340_melville.all.mb58.gz 2.28MB Kongsberg multibeam vendor format
0001_20120212_122840_melville.all.mb58.gz 2.35MB Kongsberg multibeam vendor format
0001_20120212_123340_melville.all.mb58.gz 2.29MB Kongsberg multibeam vendor format
0001_20120212_123840_melville.all.mb58.gz 2.34MB Kongsberg multibeam vendor format
0001_20120212_124340_melville.all.mb58.gz 2.28MB Kongsberg multibeam vendor format
0001_20120212_124840_melville.all.mb58.gz 2.36MB Kongsberg multibeam vendor format
0001_20120212_125340_melville.all.mb58.gz 2.28MB Kongsberg multibeam vendor format
0001_20120212_125840_melville.all.mb58.gz 2.28MB Kongsberg multibeam vendor format
0001_20120212_130340_melville.all.mb58.gz 2.35MB Kongsberg multibeam vendor format
0001_20120212_130840_melville.all.mb58.gz 2.28MB Kongsberg multibeam vendor format
0001_20120212_131340_melville.all.mb58.gz 2.28MB Kongsberg multibeam vendor format
0001_20120212_131840_melville.all.mb58.gz 2.37MB Kongsberg multibeam vendor format
0001_20120212_132340_melville.all.mb58.gz 2.28MB Kongsberg multibeam vendor format
0001_20120212_132840_melville.all.mb58.gz 2.28MB Kongsberg multibeam vendor format
0001_20120212_133340_melville.all.mb58.gz 2.28MB Kongsberg multibeam vendor format
0001_20120212_133840_melville.all.mb58.gz 2.34MB Kongsberg multibeam vendor format
0001_20120212_134340_melville.all.mb58.gz 2.28MB Kongsberg multibeam vendor format
0001_20120212_134840_melville.all.mb58.gz 2.26MB Kongsberg multibeam vendor format
0001_20120212_135340_melville.all.mb58.gz 2.26MB Kongsberg multibeam vendor format
0001_20120212_135840_melville.all.mb58.gz 2.25MB Kongsberg multibeam vendor format
0001_20120212_140340_melville.all.mb58.gz 2.18MB Kongsberg multibeam vendor format
0001_20120212_140840_melville.all.mb58.gz 2.17MB Kongsberg multibeam vendor format
0001_20120212_141340_melville.all.mb58.gz 2.08MB Kongsberg multibeam vendor format
0001_20120212_141840_melville.all.mb58.gz 2.09MB Kongsberg multibeam vendor format
0001_20120212_142340_melville.all.mb58.gz 2.08MB Kongsberg multibeam vendor format
0001_20120212_142840_melville.all.mb58.gz 2.08MB Kongsberg multibeam vendor format
0001_20120212_143340_melville.all.mb58.gz 2.08MB Kongsberg multibeam vendor format
0001_20120212_143840_melville.all.mb58.gz 2.07MB Kongsberg multibeam vendor format
0001_20120212_144340_melville.all.mb58.gz 2.09MB Kongsberg multibeam vendor format
0001_20120212_144840_melville.all.mb58.gz 2.11MB Kongsberg multibeam vendor format
0001_20120212_145340_melville.all.mb58.gz 2.08MB Kongsberg multibeam vendor format
0001_20120212_145840_melville.all.mb58.gz 2.09MB Kongsberg multibeam vendor format
0001_20120212_150340_melville.all.mb58.gz 2.03MB Kongsberg multibeam vendor format
0001_20120212_150840_melville.all.mb58.gz 2.08MB Kongsberg multibeam vendor format
0001_20120212_151340_melville.all.mb58.gz 2.09MB Kongsberg multibeam vendor format
0001_20120212_151840_melville.all.mb58.gz 2.09MB Kongsberg multibeam vendor format
0001_20120212_152340_melville.all.mb58.gz 2.08MB Kongsberg multibeam vendor format
0001_20120212_152840_melville.all.mb58.gz 2.09MB Kongsberg multibeam vendor format
0001_20120212_153340_melville.all.mb58.gz 2.04MB Kongsberg multibeam vendor format
0001_20120212_153840_melville.all.mb58.gz 2.08MB Kongsberg multibeam vendor format
0001_20120212_154340_melville.all.mb58.gz 2.09MB Kongsberg multibeam vendor format
0001_20120212_154840_melville.all.mb58.gz 2.10MB Kongsberg multibeam vendor format
0001_20120212_155340_melville.all.mb58.gz 2.04MB Kongsberg multibeam vendor format
0001_20120212_155840_melville.all.mb58.gz 2.09MB Kongsberg multibeam vendor format
0001_20120212_160340_melville.all.mb58.gz 2.10MB Kongsberg multibeam vendor format
0001_20120212_160840_melville.all.mb58.gz 2.03MB Kongsberg multibeam vendor format
0001_20120212_161340_melville.all.mb58.gz 2.09MB Kongsberg multibeam vendor format
0001_20120212_161840_melville.all.mb58.gz 2.11MB Kongsberg multibeam vendor format
0001_20120212_162340_melville.all.mb58.gz 2.03MB Kongsberg multibeam vendor format
0001_20120212_162840_melville.all.mb58.gz 2.09MB Kongsberg multibeam vendor format
0001_20120212_163340_melville.all.mb58.gz 2.03MB Kongsberg multibeam vendor format
0001_20120212_163840_melville.all.mb58.gz 2.09MB Kongsberg multibeam vendor format
0001_20120212_164340_melville.all.mb58.gz 2.04MB Kongsberg multibeam vendor format
0001_20120212_164840_melville.all.mb58.gz 2.12MB Kongsberg multibeam vendor format
0001_20120212_165340_melville.all.mb58.gz 2.05MB Kongsberg multibeam vendor format
0001_20120212_165840_melville.all.mb58.gz 2.10MB Kongsberg multibeam vendor format
0001_20120212_170340_melville.all.mb58.gz 2.04MB Kongsberg multibeam vendor format
0001_20120212_170840_melville.all.mb58.gz 2.10MB Kongsberg multibeam vendor format
0001_20120212_171340_melville.all.mb58.gz 2.04MB Kongsberg multibeam vendor format
0001_20120212_171840_melville.all.mb58.gz 2.12MB Kongsberg multibeam vendor format
0001_20120212_172340_melville.all.mb58.gz 2.06MB Kongsberg multibeam vendor format
0001_20120212_172840_melville.all.mb58.gz 2.05MB Kongsberg multibeam vendor format
0001_20120212_173340_melville.all.mb58.gz 2.05MB Kongsberg multibeam vendor format
0001_20120212_173840_melville.all.mb58.gz 2.11MB Kongsberg multibeam vendor format
0001_20120212_174340_melville.all.mb58.gz 2.06MB Kongsberg multibeam vendor format
0001_20120212_174840_melville.all.mb58.gz 2.07MB Kongsberg multibeam vendor format
0001_20120212_175340_melville.all.mb58.gz 2.05MB Kongsberg multibeam vendor format
0001_20120212_175840_melville.all.mb58.gz 2.14MB Kongsberg multibeam vendor format
0001_20120212_180340_melville.all.mb58.gz 2.06MB Kongsberg multibeam vendor format
0001_20120212_180840_melville.all.mb58.gz 2.06MB Kongsberg multibeam vendor format
0001_20120212_181340_melville.all.mb58.gz 2.07MB Kongsberg multibeam vendor format
0001_20120212_181840_melville.all.mb58.gz 2.08MB Kongsberg multibeam vendor format
0001_20120212_182341_melville.all.mb58.gz 2.06MB Kongsberg multibeam vendor format
0001_20120212_182841_melville.all.mb58.gz 2.07MB Kongsberg multibeam vendor format
0001_20120212_183341_melville.all.mb58.gz 2.06MB Kongsberg multibeam vendor format
0001_20120212_183841_melville.all.mb58.gz 2.06MB Kongsberg multibeam vendor format
0001_20120212_184341_melville.all.mb58.gz 2.06MB Kongsberg multibeam vendor format
0001_20120212_184841_melville.all.mb58.gz 2.08MB Kongsberg multibeam vendor format
0001_20120212_185341_melville.all.mb58.gz 2.07MB Kongsberg multibeam vendor format
0001_20120212_185841_melville.all.mb58.gz 2.07MB Kongsberg multibeam vendor format
0001_20120212_190341_melville.all.mb58.gz 2.09MB Kongsberg multibeam vendor format
0001_20120212_190841_melville.all.mb58.gz 2.06MB Kongsberg multibeam vendor format
0001_20120212_191341_melville.all.mb58.gz 2.08MB Kongsberg multibeam vendor format
0001_20120212_191841_melville.all.mb58.gz 2.09MB Kongsberg multibeam vendor format
0001_20120212_192341_melville.all.mb58.gz 2.08MB Kongsberg multibeam vendor format
0001_20120212_192841_melville.all.mb58.gz 2.08MB Kongsberg multibeam vendor format
0001_20120212_193341_melville.all.mb58.gz 2.02MB Kongsberg multibeam vendor format
0001_20120212_193841_melville.all.mb58.gz 2.06MB Kongsberg multibeam vendor format
0001_20120212_194341_melville.all.mb58.gz 2.08MB Kongsberg multibeam vendor format
0001_20120212_194841_melville.all.mb58.gz 2.09MB Kongsberg multibeam vendor format
0001_20120212_195341_melville.all.mb58.gz 2.03MB Kongsberg multibeam vendor format
0001_20120212_195841_melville.all.mb58.gz 2.08MB Kongsberg multibeam vendor format
0001_20120212_200341_melville.all.mb58.gz 2.08MB Kongsberg multibeam vendor format
0001_20120212_200841_melville.all.mb58.gz 2.08MB Kongsberg multibeam vendor format
0001_20120212_201341_melville.all.mb58.gz 2.01MB Kongsberg multibeam vendor format
0001_20120212_201841_melville.all.mb58.gz 2.09MB Kongsberg multibeam vendor format
0001_20120212_202341_melville.all.mb58.gz 2.07MB Kongsberg multibeam vendor format
0001_20120212_202841_melville.all.mb58.gz 2.07MB Kongsberg multibeam vendor format
0001_20120212_203341_melville.all.mb58.gz 2.01MB Kongsberg multibeam vendor format
0001_20120212_203841_melville.all.mb58.gz 2.08MB Kongsberg multibeam vendor format
0001_20120212_204341_melville.all.mb58.gz 2.08MB Kongsberg multibeam vendor format
0001_20120212_204841_melville.all.mb58.gz 2.03MB Kongsberg multibeam vendor format
0001_20120212_205341_melville.all.mb58.gz 2.07MB Kongsberg multibeam vendor format
0001_20120212_205841_melville.all.mb58.gz 2.02MB Kongsberg multibeam vendor format
0001_20120212_210341_melville.all.mb58.gz 2.08MB Kongsberg multibeam vendor format
0001_20120212_210841_melville.all.mb58.gz 2.08MB Kongsberg multibeam vendor format
0001_20120212_211341_melville.all.mb58.gz 2.02MB Kongsberg multibeam vendor format
0001_20120212_211841_melville.all.mb58.gz 2.10MB Kongsberg multibeam vendor format
0001_20120212_212341_melville.all.mb58.gz 2.03MB Kongsberg multibeam vendor format
0001_20120212_212841_melville.all.mb58.gz 2.09MB Kongsberg multibeam vendor format
0001_20120212_213341_melville.all.mb58.gz 2.02MB Kongsberg multibeam vendor format
0001_20120212_213841_melville.all.mb58.gz 2.07MB Kongsberg multibeam vendor format
0001_20120212_214341_melville.all.mb58.gz 2.02MB Kongsberg multibeam vendor format
0001_20120212_214841_melville.all.mb58.gz 2.10MB Kongsberg multibeam vendor format
0001_20120212_215341_melville.all.mb58.gz 2.04MB Kongsberg multibeam vendor format
0001_20120212_215841_melville.all.mb58.gz 2.03MB Kongsberg multibeam vendor format
0001_20120212_220341_melville.all.mb58.gz 2.09MB Kongsberg multibeam vendor format
0001_20120212_220841_melville.all.mb58.gz 2.04MB Kongsberg multibeam vendor format
0001_20120212_221341_melville.all.mb58.gz 2.09MB Kongsberg multibeam vendor format
0001_20120212_221841_melville.all.mb58.gz 2.05MB Kongsberg multibeam vendor format
0001_20120212_222341_melville.all.mb58.gz 2.09MB Kongsberg multibeam vendor format
0001_20120212_222841_melville.all.mb58.gz 2.03MB Kongsberg multibeam vendor format
0001_20120212_223341_melville.all.mb58.gz 2.03MB Kongsberg multibeam vendor format
0001_20120212_223841_melville.all.mb58.gz 2.09MB Kongsberg multibeam vendor format
0001_20120212_224341_melville.all.mb58.gz 2.03MB Kongsberg multibeam vendor format
0001_20120212_224841_melville.all.mb58.gz 2.05MB Kongsberg multibeam vendor format
0001_20120212_225341_melville.all.mb58.gz 2.10MB Kongsberg multibeam vendor format
0001_20120212_225841_melville.all.mb58.gz 2.03MB Kongsberg multibeam vendor format
0001_20120212_230341_melville.all.mb58.gz 2.03MB Kongsberg multibeam vendor format
0001_20120212_230841_melville.all.mb58.gz 2.04MB Kongsberg multibeam vendor format
0001_20120212_231341_melville.all.mb58.gz 2.09MB Kongsberg multibeam vendor format
0001_20120212_231841_melville.all.mb58.gz 2.05MB Kongsberg multibeam vendor format
0001_20120212_232341_melville.all.mb58.gz 2.04MB Kongsberg multibeam vendor format
0001_20120212_232841_melville.all.mb58.gz 2.04MB Kongsberg multibeam vendor format
0001_20120212_233341_melville.all.mb58.gz 2.10MB Kongsberg multibeam vendor format
0001_20120212_233841_melville.all.mb58.gz 2.05MB Kongsberg multibeam vendor format
0001_20120212_234341_melville.all.mb58.gz 2.04MB Kongsberg multibeam vendor format
0001_20120212_234841_melville.all.mb58.gz 2.06MB Kongsberg multibeam vendor format
0001_20120212_235341_melville.all.mb58.gz 2.05MB Kongsberg multibeam vendor format
0001_20120212_235841_melville.all.mb58.gz 2.05MB Kongsberg multibeam vendor format
0001_20120213_000341_melville.all.mb58.gz 2.05MB Kongsberg multibeam vendor format
0001_20120213_000841_melville.all.mb58.gz 2.11MB Kongsberg multibeam vendor format
0001_20120213_001341_melville.all.mb58.gz 2.05MB Kongsberg multibeam vendor format
0001_20120213_001841_melville.all.mb58.gz 2.06MB Kongsberg multibeam vendor format
0001_20120213_002341_melville.all.mb58.gz 2.05MB Kongsberg multibeam vendor format
0001_20120213_002842_melville.all.mb58.gz 2.05MB Kongsberg multibeam vendor format
0001_20120213_003342_melville.all.mb58.gz 2.04MB Kongsberg multibeam vendor format
0001_20120213_003842_melville.all.mb58.gz 2.04MB Kongsberg multibeam vendor format
0001_20120213_004342_melville.all.mb58.gz 2.04MB Kongsberg multibeam vendor format
0001_20120213_004842_melville.all.mb58.gz 2.12MB Kongsberg multibeam vendor format
0001_20120213_005342_melville.all.mb58.gz 2.04MB Kongsberg multibeam vendor format
0001_20120213_005842_melville.all.mb58.gz 2.05MB Kongsberg multibeam vendor format
0001_20120213_010342_melville.all.mb58.gz 2.05MB Kongsberg multibeam vendor format
0001_20120213_010842_melville.all.mb58.gz 2.03MB Kongsberg multibeam vendor format
0001_20120213_011342_melville.all.mb58.gz 2.04MB Kongsberg multibeam vendor format
0001_20120213_011842_melville.all.mb58.gz 2.05MB Kongsberg multibeam vendor format
0001_20120213_012342_melville.all.mb58.gz 2.10MB Kongsberg multibeam vendor format
0001_20120213_012842_melville.all.mb58.gz 2.04MB Kongsberg multibeam vendor format
0001_20120213_013342_melville.all.mb58.gz 2.04MB Kongsberg multibeam vendor format
0001_20120213_013842_melville.all.mb58.gz 2.04MB Kongsberg multibeam vendor format
0001_20120213_014342_melville.all.mb58.gz 2.05MB Kongsberg multibeam vendor format
0001_20120213_014842_melville.all.mb58.gz 2.05MB Kongsberg multibeam vendor format
0001_20120213_015342_melville.all.mb58.gz 2.06MB Kongsberg multibeam vendor format
0001_20120213_015842_melville.all.mb58.gz 2.04MB Kongsberg multibeam vendor format
0001_20120213_020342_melville.all.mb58.gz 2.04MB Kongsberg multibeam vendor format
0001_20120213_020842_melville.all.mb58.gz 2.04MB Kongsberg multibeam vendor format
0001_20120213_021342_melville.all.mb58.gz 2.04MB Kongsberg multibeam vendor format
0001_20120213_021842_melville.all.mb58.gz 2.11MB Kongsberg multibeam vendor format
0001_20120213_022342_melville.all.mb58.gz 2.05MB Kongsberg multibeam vendor format
0001_20120213_022842_melville.all.mb58.gz 2.04MB Kongsberg multibeam vendor format
0001_20120213_023342_melville.all.mb58.gz 2.06MB Kongsberg multibeam vendor format
0001_20120213_023842_melville.all.mb58.gz 2.04MB Kongsberg multibeam vendor format
0001_20120213_024342_melville.all.mb58.gz 2.04MB Kongsberg multibeam vendor format
0001_20120213_024842_melville.all.mb58.gz 2.04MB Kongsberg multibeam vendor format
0001_20120213_025342_melville.all.mb58.gz 2.04MB Kongsberg multibeam vendor format
0001_20120213_025842_melville.all.mb58.gz 2.04MB Kongsberg multibeam vendor format
0001_20120213_030342_melville.all.mb58.gz 2.04MB Kongsberg multibeam vendor format
0001_20120213_030842_melville.all.mb58.gz 2.04MB Kongsberg multibeam vendor format
0001_20120213_031342_melville.all.mb58.gz 2.04MB Kongsberg multibeam vendor format
0001_20120213_031842_melville.all.mb58.gz 2.07MB Kongsberg multibeam vendor format
0001_20120213_032342_melville.all.mb58.gz 2.03MB Kongsberg multibeam vendor format
0001_20120213_032842_melville.all.mb58.gz 2.04MB Kongsberg multibeam vendor format
0001_20120213_033342_melville.all.mb58.gz 2.10MB Kongsberg multibeam vendor format
0001_20120213_033842_melville.all.mb58.gz 2.04MB Kongsberg multibeam vendor format
0001_20120213_034342_melville.all.mb58.gz 2.04MB Kongsberg multibeam vendor format
0001_20120213_034842_melville.all.mb58.gz 2.05MB Kongsberg multibeam vendor format
0001_20120213_035342_melville.all.mb58.gz 2.04MB Kongsberg multibeam vendor format
0001_20120213_035842_melville.all.mb58.gz 2.03MB Kongsberg multibeam vendor format
0001_20120213_040342_melville.all.mb58.gz 2.04MB Kongsberg multibeam vendor format
0001_20120213_040842_melville.all.mb58.gz 2.04MB Kongsberg multibeam vendor format
0001_20120213_041342_melville.all.mb58.gz 2.04MB Kongsberg multibeam vendor format
0001_20120213_041842_melville.all.mb58.gz 2.05MB Kongsberg multibeam vendor format
0001_20120213_042342_melville.all.mb58.gz 2.04MB Kongsberg multibeam vendor format
0001_20120213_042842_melville.all.mb58.gz 2.04MB Kongsberg multibeam vendor format
0001_20120213_043342_melville.all.mb58.gz 2.04MB Kongsberg multibeam vendor format
0001_20120213_043842_melville.all.mb58.gz 2.04MB Kongsberg multibeam vendor format
0001_20120213_044342_melville.all.mb58.gz 2.04MB Kongsberg multibeam vendor format
0001_20120213_044842_melville.all.mb58.gz 2.12MB Kongsberg multibeam vendor format
0001_20120213_045342_melville.all.mb58.gz 2.04MB Kongsberg multibeam vendor format
0001_20120213_045842_melville.all.mb58.gz 2.04MB Kongsberg multibeam vendor format
0001_20120213_050342_melville.all.mb58.gz 2.04MB Kongsberg multibeam vendor format
0001_20120213_050842_melville.all.mb58.gz 2.04MB Kongsberg multibeam vendor format
0001_20120213_051342_melville.all.mb58.gz 2.04MB Kongsberg multibeam vendor format
0001_20120213_051842_melville.all.mb58.gz 2.05MB Kongsberg multibeam vendor format
0001_20120213_052342_melville.all.mb58.gz 2.04MB Kongsberg multibeam vendor format
0001_20120213_052842_melville.all.mb58.gz 2.04MB Kongsberg multibeam vendor format
0001_20120213_053342_melville.all.mb58.gz 2.05MB Kongsberg multibeam vendor format
0001_20120213_053842_melville.all.mb58.gz 2.04MB Kongsberg multibeam vendor format
0001_20120213_054342_melville.all.mb58.gz 2.01MB Kongsberg multibeam vendor format
0001_20120213_054842_melville.all.mb58.gz 2.06MB Kongsberg multibeam vendor format
0001_20120213_055342_melville.all.mb58.gz 2.08MB Kongsberg multibeam vendor format
0001_20120213_055842_melville.all.mb58.gz 2.04MB Kongsberg multibeam vendor format
0001_20120213_060342_melville.all.mb58.gz 2.05MB Kongsberg multibeam vendor format
0001_20120213_060842_melville.all.mb58.gz 2.04MB Kongsberg multibeam vendor format
0001_20120213_061342_melville.all.mb58.gz 2.04MB Kongsberg multibeam vendor format
0001_20120213_061842_melville.all.mb58.gz 2.06MB Kongsberg multibeam vendor format
0001_20120213_062342_melville.all.mb58.gz 2.04MB Kongsberg multibeam vendor format
0001_20120213_062843_melville.all.mb58.gz 1.98MB Kongsberg multibeam vendor format
0001_20120213_063343_melville.all.mb58.gz 2.04MB Kongsberg multibeam vendor format
0001_20120213_063843_melville.all.mb58.gz 1.99MB Kongsberg multibeam vendor format
0001_20120213_064343_melville.all.mb58.gz 1.97MB Kongsberg multibeam vendor format
0001_20120213_064843_melville.all.mb58.gz 2.06MB Kongsberg multibeam vendor format
0001_20120213_065343_melville.all.mb58.gz 2.05MB Kongsberg multibeam vendor format
0001_20120213_065843_melville.all.mb58.gz 2.05MB Kongsberg multibeam vendor format
0001_20120213_070343_melville.all.mb58.gz 2.05MB Kongsberg multibeam vendor format
0001_20120213_070843_melville.all.mb58.gz 2.04MB Kongsberg multibeam vendor format
0001_20120213_071343_melville.all.mb58.gz 2.05MB Kongsberg multibeam vendor format
0001_20120213_071843_melville.all.mb58.gz 1.99MB Kongsberg multibeam vendor format
0001_20120213_072343_melville.all.mb58.gz 2.04MB Kongsberg multibeam vendor format
0001_20120213_072843_melville.all.mb58.gz 2.05MB Kongsberg multibeam vendor format
0001_20120213_073343_melville.all.mb58.gz 2.04MB Kongsberg multibeam vendor format
0001_20120213_073843_melville.all.mb58.gz 2.04MB Kongsberg multibeam vendor format
0001_20120213_074343_melville.all.mb58.gz 2.06MB Kongsberg multibeam vendor format
0001_20120213_074843_melville.all.mb58.gz 2.00MB Kongsberg multibeam vendor format
0001_20120213_075343_melville.all.mb58.gz 2.04MB Kongsberg multibeam vendor format
0001_20120213_075843_melville.all.mb58.gz 2.04MB Kongsberg multibeam vendor format
0001_20120213_080343_melville.all.mb58.gz 2.05MB Kongsberg multibeam vendor format
0001_20120213_080843_melville.all.mb58.gz 2.05MB Kongsberg multibeam vendor format
0001_20120213_081343_melville.all.mb58.gz 1.99MB Kongsberg multibeam vendor format
0001_20120213_081843_melville.all.mb58.gz 2.07MB Kongsberg multibeam vendor format
0001_20120213_082343_melville.all.mb58.gz 2.05MB Kongsberg multibeam vendor format
0001_20120213_082843_melville.all.mb58.gz 2.06MB Kongsberg multibeam vendor format
0001_20120213_083343_melville.all.mb58.gz 1.99MB Kongsberg multibeam vendor format
0001_20120213_083843_melville.all.mb58.gz 2.05MB Kongsberg multibeam vendor format
0001_20120213_084343_melville.all.mb58.gz 2.05MB Kongsberg multibeam vendor format
0001_20120213_084843_melville.all.mb58.gz 1.99MB Kongsberg multibeam vendor format
0001_20120213_085343_melville.all.mb58.gz 2.01MB Kongsberg multibeam vendor format
0001_20120213_085843_melville.all.mb58.gz 2.01MB Kongsberg multibeam vendor format
0001_20120213_090343_melville.all.mb58.gz 2.02MB Kongsberg multibeam vendor format
0001_20120213_090843_melville.all.mb58.gz 1.92MB Kongsberg multibeam vendor format
0001_20120213_091343_melville.all.mb58.gz 1.94MB Kongsberg multibeam vendor format
0001_20120213_091843_melville.all.mb58.gz 1.98MB Kongsberg multibeam vendor format
0001_20120213_092343_melville.all.mb58.gz 2.05MB Kongsberg multibeam vendor format
0001_20120213_092843_melville.all.mb58.gz 2.12MB Kongsberg multibeam vendor format
0001_20120213_093343_melville.all.mb58.gz 1.95MB Kongsberg multibeam vendor format
0001_20120213_093843_melville.all.mb58.gz 2.04MB Kongsberg multibeam vendor format
0001_20120213_094343_melville.all.mb58.gz 2.12MB Kongsberg multibeam vendor format
0001_20120213_094843_melville.all.mb58.gz 2.09MB Kongsberg multibeam vendor format
0001_20120213_095343_melville.all.mb58.gz 2.15MB Kongsberg multibeam vendor format
0001_20120213_095843_melville.all.mb58.gz 2.15MB Kongsberg multibeam vendor format
0001_20120213_100343_melville.all.mb58.gz 2.05MB Kongsberg multibeam vendor format
0001_20120213_100843_melville.all.mb58.gz 2.13MB Kongsberg multibeam vendor format
0001_20120213_101343_melville.all.mb58.gz 2.07MB Kongsberg multibeam vendor format
0001_20120213_101843_melville.all.mb58.gz 2.16MB Kongsberg multibeam vendor format
0001_20120213_102343_melville.all.mb58.gz 2.08MB Kongsberg multibeam vendor format
0001_20120213_102843_melville.all.mb58.gz 2.15MB Kongsberg multibeam vendor format
0001_20120213_103343_melville.all.mb58.gz 2.06MB Kongsberg multibeam vendor format
0001_20120213_103843_melville.all.mb58.gz 2.08MB Kongsberg multibeam vendor format
0001_20120213_104343_melville.all.mb58.gz 1.97MB Kongsberg multibeam vendor format
0001_20120213_104843_melville.all.mb58.gz 1.96MB Kongsberg multibeam vendor format
0001_20120213_105343_melville.all.mb58.gz 1.89MB Kongsberg multibeam vendor format
0001_20120213_105843_melville.all.mb58.gz 1.82MB Kongsberg multibeam vendor format
0001_20120213_110343_melville.all.mb58.gz 1.87MB Kongsberg multibeam vendor format
0001_20120213_110843_melville.all.mb58.gz 1.86MB Kongsberg multibeam vendor format
0001_20120213_111343_melville.all.mb58.gz 1.96MB Kongsberg multibeam vendor format
0001_20120213_111843_melville.all.mb58.gz 1.92MB Kongsberg multibeam vendor format
0001_20120213_112343_melville.all.mb58.gz 1.98MB Kongsberg multibeam vendor format
0001_20120213_112843_melville.all.mb58.gz 2.01MB Kongsberg multibeam vendor format
0001_20120213_113343_melville.all.mb58.gz 1.98MB Kongsberg multibeam vendor format
0001_20120213_113843_melville.all.mb58.gz 2.04MB Kongsberg multibeam vendor format
0001_20120213_114343_melville.all.mb58.gz 2.01MB Kongsberg multibeam vendor format
0001_20120213_114843_melville.all.mb58.gz 2.02MB Kongsberg multibeam vendor format
0001_20120213_115343_melville.all.mb58.gz 2.07MB Kongsberg multibeam vendor format
0001_20120213_115843_melville.all.mb58.gz 2.00MB Kongsberg multibeam vendor format
0001_20120213_120343_melville.all.mb58.gz 2.07MB Kongsberg multibeam vendor format
0001_20120213_120843_melville.all.mb58.gz 2.01MB Kongsberg multibeam vendor format
0001_20120213_121343_melville.all.mb58.gz 1.98MB Kongsberg multibeam vendor format
0001_20120213_121843_melville.all.mb58.gz 2.10MB Kongsberg multibeam vendor format
0001_20120213_122343_melville.all.mb58.gz 2.01MB Kongsberg multibeam vendor format
0001_20120213_122844_melville.all.mb58.gz 2.06MB Kongsberg multibeam vendor format
0001_20120213_123344_melville.all.mb58.gz 1.98MB Kongsberg multibeam vendor format
0001_20120213_123844_melville.all.mb58.gz 2.00MB Kongsberg multibeam vendor format
0001_20120213_124344_melville.all.mb58.gz 2.05MB Kongsberg multibeam vendor format
0001_20120213_124844_melville.all.mb58.gz 2.02MB Kongsberg multibeam vendor format
0001_20120213_125344_melville.all.mb58.gz 2.01MB Kongsberg multibeam vendor format
0001_20120213_125844_melville.all.mb58.gz 2.08MB Kongsberg multibeam vendor format
0001_20120213_130344_melville.all.mb58.gz 2.02MB Kongsberg multibeam vendor format
0001_20120213_130844_melville.all.mb58.gz 2.01MB Kongsberg multibeam vendor format
0001_20120213_131344_melville.all.mb58.gz 2.01MB Kongsberg multibeam vendor format
0001_20120213_131844_melville.all.mb58.gz 2.09MB Kongsberg multibeam vendor format
0001_20120213_132344_melville.all.mb58.gz 2.01MB Kongsberg multibeam vendor format
0001_20120213_132844_melville.all.mb58.gz 2.01MB Kongsberg multibeam vendor format
0001_20120213_133344_melville.all.mb58.gz 2.02MB Kongsberg multibeam vendor format
0001_20120213_133844_melville.all.mb58.gz 2.09MB Kongsberg multibeam vendor format
0001_20120213_134344_melville.all.mb58.gz 2.02MB Kongsberg multibeam vendor format
0001_20120213_134844_melville.all.mb58.gz 2.03MB Kongsberg multibeam vendor format
0001_20120213_135344_melville.all.mb58.gz 2.02MB Kongsberg multibeam vendor format
0001_20120213_135844_melville.all.mb58.gz 2.08MB Kongsberg multibeam vendor format
0001_20120213_140344_melville.all.mb58.gz 2.02MB Kongsberg multibeam vendor format
0001_20120213_140844_melville.all.mb58.gz 2.02MB Kongsberg multibeam vendor format
0001_20120213_141344_melville.all.mb58.gz 2.02MB Kongsberg multibeam vendor format
0001_20120213_141844_melville.all.mb58.gz 2.09MB Kongsberg multibeam vendor format
0001_20120213_142344_melville.all.mb58.gz 2.03MB Kongsberg multibeam vendor format
0001_20120213_142844_melville.all.mb58.gz 2.02MB Kongsberg multibeam vendor format
0001_20120213_143344_melville.all.mb58.gz 2.02MB Kongsberg multibeam vendor format
0001_20120213_143844_melville.all.mb58.gz 2.02MB Kongsberg multibeam vendor format
0001_20120213_144344_melville.all.mb58.gz 2.01MB Kongsberg multibeam vendor format
0001_20120213_144844_melville.all.mb58.gz 2.07MB Kongsberg multibeam vendor format
0001_20120213_145344_melville.all.mb58.gz 2.01MB Kongsberg multibeam vendor format
0001_20120213_145844_melville.all.mb58.gz 2.02MB Kongsberg multibeam vendor format
0001_20120213_150344_melville.all.mb58.gz 2.01MB Kongsberg multibeam vendor format
0001_20120213_150844_melville.all.mb58.gz 2.08MB Kongsberg multibeam vendor format
0001_20120213_151344_melville.all.mb58.gz 2.01MB Kongsberg multibeam vendor format
0001_20120213_151844_melville.all.mb58.gz 2.03MB Kongsberg multibeam vendor format
0001_20120213_152344_melville.all.mb58.gz 2.08MB Kongsberg multibeam vendor format
0001_20120213_152844_melville.all.mb58.gz 2.03MB Kongsberg multibeam vendor format
0001_20120213_153344_melville.all.mb58.gz 2.02MB Kongsberg multibeam vendor format
0001_20120213_153844_melville.all.mb58.gz 2.02MB Kongsberg multibeam vendor format
0001_20120213_154344_melville.all.mb58.gz 2.04MB Kongsberg multibeam vendor format
0001_20120213_154844_melville.all.mb58.gz 2.03MB Kongsberg multibeam vendor format
0001_20120213_155344_melville.all.mb58.gz 2.02MB Kongsberg multibeam vendor format
0001_20120213_155844_melville.all.mb58.gz 2.01MB Kongsberg multibeam vendor format
0001_20120213_160344_melville.all.mb58.gz 2.02MB Kongsberg multibeam vendor format
0001_20120213_160844_melville.all.mb58.gz 2.09MB Kongsberg multibeam vendor format
0001_20120213_161344_melville.all.mb58.gz 2.02MB Kongsberg multibeam vendor format
0001_20120213_161844_melville.all.mb58.gz 2.03MB Kongsberg multibeam vendor format
0001_20120213_162344_melville.all.mb58.gz 2.02MB Kongsberg multibeam vendor format
0001_20120213_162844_melville.all.mb58.gz 2.03MB Kongsberg multibeam vendor format
0001_20120213_163344_melville.all.mb58.gz 2.03MB Kongsberg multibeam vendor format
0001_20120213_163844_melville.all.mb58.gz 2.02MB Kongsberg multibeam vendor format
0001_20120213_164344_melville.all.mb58.gz 2.02MB Kongsberg multibeam vendor format
0001_20120213_164844_melville.all.mb58.gz 2.04MB Kongsberg multibeam vendor format
0001_20120213_165344_melville.all.mb58.gz 2.04MB Kongsberg multibeam vendor format
0001_20120213_165844_melville.all.mb58.gz 1.97MB Kongsberg multibeam vendor format
0001_20120213_170344_melville.all.mb58.gz 2.03MB Kongsberg multibeam vendor format
0001_20120213_170844_melville.all.mb58.gz 2.03MB Kongsberg multibeam vendor format
0001_20120213_171344_melville.all.mb58.gz 2.03MB Kongsberg multibeam vendor format
0001_20120213_171844_melville.all.mb58.gz 1.99MB Kongsberg multibeam vendor format
0001_20120213_172344_melville.all.mb58.gz 2.03MB Kongsberg multibeam vendor format
0001_20120213_172844_melville.all.mb58.gz 2.03MB Kongsberg multibeam vendor format
0001_20120213_173344_melville.all.mb58.gz 2.03MB Kongsberg multibeam vendor format
0001_20120213_173844_melville.all.mb58.gz 2.04MB Kongsberg multibeam vendor format
0001_20120213_174344_melville.all.mb58.gz 1.98MB Kongsberg multibeam vendor format
0001_20120213_174844_melville.all.mb58.gz 2.05MB Kongsberg multibeam vendor format
0001_20120213_175344_melville.all.mb58.gz 2.03MB Kongsberg multibeam vendor format
0001_20120213_175844_melville.all.mb58.gz 2.00MB Kongsberg multibeam vendor format
0001_20120213_180344_melville.all.mb58.gz 1.94MB Kongsberg multibeam vendor format
0001_20120213_180844_melville.all.mb58.gz 2.02MB Kongsberg multibeam vendor format
0001_20120213_181344_melville.all.mb58.gz 2.04MB Kongsberg multibeam vendor format
0001_20120213_181844_melville.all.mb58.gz 2.06MB Kongsberg multibeam vendor format
0001_20120213_182344_melville.all.mb58.gz 2.05MB Kongsberg multibeam vendor format
0001_20120213_182845_melville.all.mb58.gz 1.98MB Kongsberg multibeam vendor format
0001_20120213_183345_melville.all.mb58.gz 2.04MB Kongsberg multibeam vendor format
0001_20120213_183845_melville.all.mb58.gz 2.04MB Kongsberg multibeam vendor format
0001_20120213_184345_melville.all.mb58.gz 2.04MB Kongsberg multibeam vendor format
0001_20120213_184845_melville.all.mb58.gz 2.06MB Kongsberg multibeam vendor format
0001_20120213_185345_melville.all.mb58.gz 2.04MB Kongsberg multibeam vendor format
0001_20120213_185845_melville.all.mb58.gz 1.98MB Kongsberg multibeam vendor format
0001_20120213_190345_melville.all.mb58.gz 2.04MB Kongsberg multibeam vendor format
0001_20120213_190845_melville.all.mb58.gz 2.04MB Kongsberg multibeam vendor format
0001_20120213_191345_melville.all.mb58.gz 2.03MB Kongsberg multibeam vendor format
0001_20120213_191845_melville.all.mb58.gz 2.05MB Kongsberg multibeam vendor format
0001_20120213_192345_melville.all.mb58.gz 2.04MB Kongsberg multibeam vendor format
0001_20120213_192845_melville.all.mb58.gz 2.04MB Kongsberg multibeam vendor format
0001_20120213_193345_melville.all.mb58.gz 2.04MB Kongsberg multibeam vendor format
0001_20120213_193845_melville.all.mb58.gz 2.04MB Kongsberg multibeam vendor format
0001_20120213_194345_melville.all.mb58.gz 2.04MB Kongsberg multibeam vendor format
0001_20120213_194845_melville.all.mb58.gz 2.06MB Kongsberg multibeam vendor format
0001_20120213_195345_melville.all.mb58.gz 2.04MB Kongsberg multibeam vendor format
0001_20120213_195845_melville.all.mb58.gz 2.04MB Kongsberg multibeam vendor format
0001_20120213_200345_melville.all.mb58.gz 1.98MB Kongsberg multibeam vendor format
0001_20120213_200845_melville.all.mb58.gz 2.04MB Kongsberg multibeam vendor format
0001_20120213_201345_melville.all.mb58.gz 2.04MB Kongsberg multibeam vendor format
0001_20120213_201845_melville.all.mb58.gz 2.06MB Kongsberg multibeam vendor format
0001_20120213_202345_melville.all.mb58.gz 2.04MB Kongsberg multibeam vendor format
0001_20120213_202845_melville.all.mb58.gz 2.04MB Kongsberg multibeam vendor format
0001_20120213_203345_melville.all.mb58.gz 2.05MB Kongsberg multibeam vendor format
0001_20120213_203845_melville.all.mb58.gz 2.04MB Kongsberg multibeam vendor format
0001_20120213_204345_melville.all.mb58.gz 2.04MB Kongsberg multibeam vendor format
0001_20120213_204845_melville.all.mb58.gz 2.05MB Kongsberg multibeam vendor format
0001_20120213_205345_melville.all.mb58.gz 2.04MB Kongsberg multibeam vendor format
0001_20120213_205845_melville.all.mb58.gz 2.04MB Kongsberg multibeam vendor format
0001_20120213_210345_melville.all.mb58.gz 2.03MB Kongsberg multibeam vendor format
0001_20120213_210845_melville.all.mb58.gz 2.04MB Kongsberg multibeam vendor format
0001_20120213_211345_melville.all.mb58.gz 2.04MB Kongsberg multibeam vendor format
0001_20120213_211845_melville.all.mb58.gz 2.05MB Kongsberg multibeam vendor format
0001_20120213_212345_melville.all.mb58.gz 2.04MB Kongsberg multibeam vendor format
0001_20120213_212845_melville.all.mb58.gz 2.04MB Kongsberg multibeam vendor format
0001_20120213_213345_melville.all.mb58.gz 2.04MB Kongsberg multibeam vendor format
0001_20120213_213845_melville.all.mb58.gz 2.04MB Kongsberg multibeam vendor format
0001_20120213_214345_melville.all.mb58.gz 2.04MB Kongsberg multibeam vendor format
0001_20120213_214845_melville.all.mb58.gz 2.04MB Kongsberg multibeam vendor format
0001_20120213_215345_melville.all.mb58.gz 2.04MB Kongsberg multibeam vendor format
0001_20120213_215845_melville.all.mb58.gz 2.03MB Kongsberg multibeam vendor format
0001_20120213_220345_melville.all.mb58.gz 2.02MB Kongsberg multibeam vendor format
0001_20120213_220845_melville.all.mb58.gz 2.03MB Kongsberg multibeam vendor format
0001_20120213_221345_melville.all.mb58.gz 2.03MB Kongsberg multibeam vendor format
0001_20120213_221845_melville.all.mb58.gz 2.04MB Kongsberg multibeam vendor format
0001_20120213_222345_melville.all.mb58.gz 2.09MB Kongsberg multibeam vendor format
0001_20120213_222845_melville.all.mb58.gz 2.04MB Kongsberg multibeam vendor format
0001_20120213_223345_melville.all.mb58.gz 2.03MB Kongsberg multibeam vendor format
0001_20120213_223845_melville.all.mb58.gz 2.03MB Kongsberg multibeam vendor format
0001_20120213_224345_melville.all.mb58.gz 2.03MB Kongsberg multibeam vendor format
0001_20120213_224845_melville.all.mb58.gz 2.04MB Kongsberg multibeam vendor format
0001_20120213_225345_melville.all.mb58.gz 2.02MB Kongsberg multibeam vendor format
0001_20120213_225845_melville.all.mb58.gz 2.04MB Kongsberg multibeam vendor format
0001_20120213_230345_melville.all.mb58.gz 2.03MB Kongsberg multibeam vendor format
0001_20120213_230845_melville.all.mb58.gz 2.02MB Kongsberg multibeam vendor format
0001_20120213_231345_melville.all.mb58.gz 2.03MB Kongsberg multibeam vendor format
0001_20120213_231845_melville.all.mb58.gz 2.10MB Kongsberg multibeam vendor format
0001_20120213_232345_melville.all.mb58.gz 2.02MB Kongsberg multibeam vendor format
0001_20120213_232845_melville.all.mb58.gz 2.03MB Kongsberg multibeam vendor format
0001_20120213_233345_melville.all.mb58.gz 2.03MB Kongsberg multibeam vendor format
0001_20120213_233845_melville.all.mb58.gz 2.03MB Kongsberg multibeam vendor format
0001_20120213_234345_melville.all.mb58.gz 2.03MB Kongsberg multibeam vendor format
0001_20120213_234845_melville.all.mb58.gz 2.04MB Kongsberg multibeam vendor format
0001_20120213_235345_melville.all.mb58.gz 2.02MB Kongsberg multibeam vendor format
0001_20120213_235845_melville.all.mb58.gz 2.03MB Kongsberg multibeam vendor format
0001_20120214_000345_melville.all.mb58.gz 2.04MB Kongsberg multibeam vendor format
0001_20120214_000845_melville.all.mb58.gz 2.03MB Kongsberg multibeam vendor format
0001_20120214_001345_melville.all.mb58.gz 2.09MB Kongsberg multibeam vendor format
0001_20120214_001845_melville.all.mb58.gz 2.04MB Kongsberg multibeam vendor format
0001_20120214_002345_melville.all.mb58.gz 2.02MB Kongsberg multibeam vendor format
0001_20120214_002845_melville.all.mb58.gz 2.02MB Kongsberg multibeam vendor format
0001_20120214_003346_melville.all.mb58.gz 2.02MB Kongsberg multibeam vendor format
0001_20120214_003846_melville.all.mb58.gz 2.02MB Kongsberg multibeam vendor format
0001_20120214_004346_melville.all.mb58.gz 2.05MB Kongsberg multibeam vendor format
0001_20120214_004846_melville.all.mb58.gz 2.12MB Kongsberg multibeam vendor format
0001_20120214_005346_melville.all.mb58.gz 2.04MB Kongsberg multibeam vendor format
0001_20120214_005846_melville.all.mb58.gz 2.03MB Kongsberg multibeam vendor format
0001_20120214_010346_melville.all.mb58.gz 2.02MB Kongsberg multibeam vendor format
0001_20120214_010846_melville.all.mb58.gz 2.03MB Kongsberg multibeam vendor format
0001_20120214_011346_melville.all.mb58.gz 2.03MB Kongsberg multibeam vendor format
0001_20120214_011846_melville.all.mb58.gz 2.10MB Kongsberg multibeam vendor format
0001_20120214_012346_melville.all.mb58.gz 2.02MB Kongsberg multibeam vendor format
0001_20120214_012846_melville.all.mb58.gz 2.02MB Kongsberg multibeam vendor format
0001_20120214_013346_melville.all.mb58.gz 2.02MB Kongsberg multibeam vendor format
0001_20120214_013846_melville.all.mb58.gz 2.03MB Kongsberg multibeam vendor format
0001_20120214_014346_melville.all.mb58.gz 2.03MB Kongsberg multibeam vendor format
0001_20120214_014846_melville.all.mb58.gz 2.04MB Kongsberg multibeam vendor format
0001_20120214_015346_melville.all.mb58.gz 2.03MB Kongsberg multibeam vendor format
0001_20120214_015846_melville.all.mb58.gz 2.03MB Kongsberg multibeam vendor format
0001_20120214_020346_melville.all.mb58.gz 2.10MB Kongsberg multibeam vendor format
0001_20120214_020846_melville.all.mb58.gz 2.04MB Kongsberg multibeam vendor format
0001_20120214_021346_melville.all.mb58.gz 2.03MB Kongsberg multibeam vendor format
0001_20120214_021846_melville.all.mb58.gz 2.04MB Kongsberg multibeam vendor format
0001_20120214_022346_melville.all.mb58.gz 2.02MB Kongsberg multibeam vendor format
0001_20120214_022846_melville.all.mb58.gz 2.02MB Kongsberg multibeam vendor format
0001_20120214_023346_melville.all.mb58.gz 2.08MB Kongsberg multibeam vendor format
0001_20120214_023846_melville.all.mb58.gz 2.02MB Kongsberg multibeam vendor format
0001_20120214_024346_melville.all.mb58.gz 2.02MB Kongsberg multibeam vendor format
0001_20120214_024846_melville.all.mb58.gz 2.03MB Kongsberg multibeam vendor format
0001_20120214_025346_melville.all.mb58.gz 2.08MB Kongsberg multibeam vendor format
0001_20120214_025846_melville.all.mb58.gz 2.02MB Kongsberg multibeam vendor format
0001_20120214_030346_melville.all.mb58.gz 2.01MB Kongsberg multibeam vendor format
0001_20120214_030846_melville.all.mb58.gz 2.02MB Kongsberg multibeam vendor format
0001_20120214_031346_melville.all.mb58.gz 2.08MB Kongsberg multibeam vendor format
0001_20120214_031846_melville.all.mb58.gz 2.02MB Kongsberg multibeam vendor format
0001_20120214_032346_melville.all.mb58.gz 2.02MB Kongsberg multibeam vendor format
0001_20120214_032846_melville.all.mb58.gz 2.02MB Kongsberg multibeam vendor format
0001_20120214_033346_melville.all.mb58.gz 2.01MB Kongsberg multibeam vendor format
0001_20120214_033846_melville.all.mb58.gz 2.02MB Kongsberg multibeam vendor format
0001_20120214_034346_melville.all.mb58.gz 2.02MB Kongsberg multibeam vendor format
0001_20120214_034846_melville.all.mb58.gz 2.09MB Kongsberg multibeam vendor format
0001_20120214_035346_melville.all.mb58.gz 2.02MB Kongsberg multibeam vendor format
0001_20120214_035846_melville.all.mb58.gz 2.02MB Kongsberg multibeam vendor format
0001_20120214_040346_melville.all.mb58.gz 2.08MB Kongsberg multibeam vendor format
0001_20120214_040846_melville.all.mb58.gz 2.02MB Kongsberg multibeam vendor format
0001_20120214_041346_melville.all.mb58.gz 2.02MB Kongsberg multibeam vendor format
0001_20120214_041846_melville.all.mb58.gz 2.09MB Kongsberg multibeam vendor format
0001_20120214_042346_melville.all.mb58.gz 2.03MB Kongsberg multibeam vendor format
0001_20120214_042846_melville.all.mb58.gz 2.02MB Kongsberg multibeam vendor format
0001_20120214_043346_melville.all.mb58.gz 2.08MB Kongsberg multibeam vendor format
0001_20120214_043846_melville.all.mb58.gz 2.01MB Kongsberg multibeam vendor format
0001_20120214_044346_melville.all.mb58.gz 2.01MB Kongsberg multibeam vendor format
0001_20120214_044846_melville.all.mb58.gz 2.09MB Kongsberg multibeam vendor format
0001_20120214_045346_melville.all.mb58.gz 2.01MB Kongsberg multibeam vendor format
0001_20120214_045846_melville.all.mb58.gz 2.07MB Kongsberg multibeam vendor format
0001_20120214_050346_melville.all.mb58.gz 2.02MB Kongsberg multibeam vendor format
0001_20120214_050846_melville.all.mb58.gz 2.02MB Kongsberg multibeam vendor format
0001_20120214_051346_melville.all.mb58.gz 2.07MB Kongsberg multibeam vendor format
0001_20120214_051846_melville.all.mb58.gz 2.03MB Kongsberg multibeam vendor format
0001_20120214_052346_melville.all.mb58.gz 2.07MB Kongsberg multibeam vendor format
0001_20120214_052846_melville.all.mb58.gz 2.01MB Kongsberg multibeam vendor format
0001_20120214_053346_melville.all.mb58.gz 2.01MB Kongsberg multibeam vendor format
0001_20120214_053846_melville.all.mb58.gz 2.07MB Kongsberg multibeam vendor format
0001_20120214_054346_melville.all.mb58.gz 2.01MB Kongsberg multibeam vendor format
0001_20120214_054846_melville.all.mb58.gz 2.09MB Kongsberg multibeam vendor format
0001_20120214_055346_melville.all.mb58.gz 2.02MB Kongsberg multibeam vendor format
0001_20120214_055846_melville.all.mb58.gz 2.07MB Kongsberg multibeam vendor format
0001_20120214_060346_melville.all.mb58.gz 2.01MB Kongsberg multibeam vendor format
0001_20120214_060846_melville.all.mb58.gz 2.07MB Kongsberg multibeam vendor format
0001_20120214_061346_melville.all.mb58.gz 2.00MB Kongsberg multibeam vendor format
0001_20120214_061846_melville.all.mb58.gz 2.09MB Kongsberg multibeam vendor format
0001_20120214_062346_melville.all.mb58.gz 2.02MB Kongsberg multibeam vendor format
0001_20120214_062846_melville.all.mb58.gz 2.01MB Kongsberg multibeam vendor format
0001_20120214_063347_melville.all.mb58.gz 2.07MB Kongsberg multibeam vendor format
0001_20120214_063847_melville.all.mb58.gz 2.07MB Kongsberg multibeam vendor format
0001_20120214_064347_melville.all.mb58.gz 2.01MB Kongsberg multibeam vendor format
0001_20120214_064847_melville.all.mb58.gz 2.09MB Kongsberg multibeam vendor format
0001_20120214_065347_melville.all.mb58.gz 2.02MB Kongsberg multibeam vendor format
0001_20120214_065847_melville.all.mb58.gz 2.08MB Kongsberg multibeam vendor format
0001_20120214_070347_melville.all.mb58.gz 2.01MB Kongsberg multibeam vendor format
0001_20120214_070847_melville.all.mb58.gz 2.07MB Kongsberg multibeam vendor format
0001_20120214_071347_melville.all.mb58.gz 2.01MB Kongsberg multibeam vendor format
0001_20120214_071847_melville.all.mb58.gz 2.09MB Kongsberg multibeam vendor format
0001_20120214_072347_melville.all.mb58.gz 2.00MB Kongsberg multibeam vendor format
0001_20120214_072847_melville.all.mb58.gz 2.05MB Kongsberg multibeam vendor format
0001_20120214_073347_melville.all.mb58.gz 2.05MB Kongsberg multibeam vendor format
0001_20120214_073847_melville.all.mb58.gz 2.07MB Kongsberg multibeam vendor format
0001_20120214_074347_melville.all.mb58.gz 2.00MB Kongsberg multibeam vendor format
0001_20120214_074847_melville.all.mb58.gz 2.08MB Kongsberg multibeam vendor format
0001_20120214_075347_melville.all.mb58.gz 2.05MB Kongsberg multibeam vendor format
0001_20120214_075847_melville.all.mb58.gz 2.00MB Kongsberg multibeam vendor format
0001_20120214_080347_melville.all.mb58.gz 2.07MB Kongsberg multibeam vendor format
0001_20120214_080847_melville.all.mb58.gz 2.06MB Kongsberg multibeam vendor format
0001_20120214_081347_melville.all.mb58.gz 2.06MB Kongsberg multibeam vendor format
0001_20120214_081847_melville.all.mb58.gz 2.01MB Kongsberg multibeam vendor format
0001_20120214_082347_melville.all.mb58.gz 2.06MB Kongsberg multibeam vendor format
0001_20120214_082847_melville.all.mb58.gz 2.06MB Kongsberg multibeam vendor format
0001_20120214_083347_melville.all.mb58.gz 2.06MB Kongsberg multibeam vendor format
0001_20120214_083847_melville.all.mb58.gz 2.00MB Kongsberg multibeam vendor format
0001_20120214_084347_melville.all.mb58.gz 2.06MB Kongsberg multibeam vendor format
0001_20120214_084847_melville.all.mb58.gz 2.09MB Kongsberg multibeam vendor format
0001_20120214_085347_melville.all.mb58.gz 2.06MB Kongsberg multibeam vendor format
0001_20120214_085847_melville.all.mb58.gz 1.99MB Kongsberg multibeam vendor format
0001_20120214_090347_melville.all.mb58.gz 2.05MB Kongsberg multibeam vendor format
0001_20120214_090847_melville.all.mb58.gz 2.05MB Kongsberg multibeam vendor format
0001_20120214_091347_melville.all.mb58.gz 2.05MB Kongsberg multibeam vendor format
0001_20120214_091847_melville.all.mb58.gz 2.01MB Kongsberg multibeam vendor format
0001_20120214_092347_melville.all.mb58.gz 2.06MB Kongsberg multibeam vendor format
0001_20120214_092847_melville.all.mb58.gz 2.06MB Kongsberg multibeam vendor format
0001_20120214_093347_melville.all.mb58.gz 2.06MB Kongsberg multibeam vendor format
0001_20120214_093847_melville.all.mb58.gz 1.99MB Kongsberg multibeam vendor format
0001_20120214_094347_melville.all.mb58.gz 2.06MB Kongsberg multibeam vendor format
0001_20120214_094847_melville.all.mb58.gz 2.08MB Kongsberg multibeam vendor format
0001_20120214_095347_melville.all.mb58.gz 2.01MB Kongsberg multibeam vendor format
0001_20120214_095847_melville.all.mb58.gz 2.06MB Kongsberg multibeam vendor format
0001_20120214_100347_melville.all.mb58.gz 2.06MB Kongsberg multibeam vendor format
0001_20120214_100847_melville.all.mb58.gz 2.04MB Kongsberg multibeam vendor format
0001_20120214_101347_melville.all.mb58.gz 2.05MB Kongsberg multibeam vendor format
0001_20120214_101847_melville.all.mb58.gz 2.06MB Kongsberg multibeam vendor format
0001_20120214_102347_melville.all.mb58.gz 2.04MB Kongsberg multibeam vendor format
0001_20120214_102847_melville.all.mb58.gz 2.03MB Kongsberg multibeam vendor format
0001_20120214_103347_melville.all.mb58.gz 2.05MB Kongsberg multibeam vendor format
0001_20120214_103847_melville.all.mb58.gz 2.06MB Kongsberg multibeam vendor format
0001_20120214_104347_melville.all.mb58.gz 2.06MB Kongsberg multibeam vendor format
0001_20120214_104847_melville.all.mb58.gz 2.07MB Kongsberg multibeam vendor format
0001_20120214_105347_melville.all.mb58.gz 2.04MB Kongsberg multibeam vendor format
0001_20120214_105847_melville.all.mb58.gz 2.04MB Kongsberg multibeam vendor format
0001_20120214_110347_melville.all.mb58.gz 2.05MB Kongsberg multibeam vendor format
0001_20120214_110847_melville.all.mb58.gz 2.05MB Kongsberg multibeam vendor format
0001_20120214_111347_melville.all.mb58.gz 2.04MB Kongsberg multibeam vendor format
0001_20120214_111847_melville.all.mb58.gz 2.05MB Kongsberg multibeam vendor format
0001_20120214_112347_melville.all.mb58.gz 2.04MB Kongsberg multibeam vendor format
0001_20120214_112847_melville.all.mb58.gz 2.04MB Kongsberg multibeam vendor format
0001_20120214_113347_melville.all.mb58.gz 2.09MB Kongsberg multibeam vendor format
0001_20120214_113847_melville.all.mb58.gz 2.02MB Kongsberg multibeam vendor format
0001_20120214_114347_melville.all.mb58.gz 2.03MB Kongsberg multibeam vendor format
0001_20120214_114847_melville.all.mb58.gz 2.05MB Kongsberg multibeam vendor format
0001_20120214_115347_melville.all.mb58.gz 2.10MB Kongsberg multibeam vendor format
0001_20120214_115847_melville.all.mb58.gz 2.03MB Kongsberg multibeam vendor format
0001_20120214_120347_melville.all.mb58.gz 1.98MB Kongsberg multibeam vendor format
0001_20120214_120847_melville.all.mb58.gz 2.08MB Kongsberg multibeam vendor format
0001_20120214_121347_melville.all.mb58.gz 2.03MB Kongsberg multibeam vendor format
0001_20120214_121847_melville.all.mb58.gz 2.05MB Kongsberg multibeam vendor format
0001_20120214_122347_melville.all.mb58.gz 2.03MB Kongsberg multibeam vendor format
0001_20120214_122847_melville.all.mb58.gz 2.04MB Kongsberg multibeam vendor format
0001_20120214_123348_melville.all.mb58.gz 2.03MB Kongsberg multibeam vendor format
0001_20120214_123848_melville.all.mb58.gz 2.04MB Kongsberg multibeam vendor format
0001_20120214_124348_melville.all.mb58.gz 2.10MB Kongsberg multibeam vendor format
0001_20120214_124848_melville.all.mb58.gz 2.06MB Kongsberg multibeam vendor format
0001_20120214_125348_melville.all.mb58.gz 2.04MB Kongsberg multibeam vendor format
0001_20120214_125848_melville.all.mb58.gz 2.04MB Kongsberg multibeam vendor format
0001_20120214_130348_melville.all.mb58.gz 2.04MB Kongsberg multibeam vendor format
0001_20120214_130848_melville.all.mb58.gz 2.03MB Kongsberg multibeam vendor format
0001_20120214_131348_melville.all.mb58.gz 2.06MB Kongsberg multibeam vendor format
0001_20120214_131848_melville.all.mb58.gz 2.06MB Kongsberg multibeam vendor format
0001_20120214_132348_melville.all.mb58.gz 2.05MB Kongsberg multibeam vendor format
0001_20120214_132848_melville.all.mb58.gz 2.10MB Kongsberg multibeam vendor format
0001_20120214_133348_melville.all.mb58.gz 2.03MB Kongsberg multibeam vendor format
0001_20120214_133848_melville.all.mb58.gz 2.03MB Kongsberg multibeam vendor format
0001_20120214_134348_melville.all.mb58.gz 2.07MB Kongsberg multibeam vendor format
0001_20120214_134848_melville.all.mb58.gz 2.02MB Kongsberg multibeam vendor format
0001_20120214_135348_melville.all.mb58.gz 2.07MB Kongsberg multibeam vendor format
0001_20120214_135848_melville.all.mb58.gz 2.08MB Kongsberg multibeam vendor format
0001_20120214_140348_melville.all.mb58.gz 2.08MB Kongsberg multibeam vendor format
0001_20120214_140848_melville.all.mb58.gz 2.03MB Kongsberg multibeam vendor format
0001_20120214_141348_melville.all.mb58.gz 2.09MB Kongsberg multibeam vendor format
0001_20120214_141848_melville.all.mb58.gz 2.06MB Kongsberg multibeam vendor format
0001_20120214_142348_melville.all.mb58.gz 2.04MB Kongsberg multibeam vendor format
0001_20120214_142848_melville.all.mb58.gz 2.00MB Kongsberg multibeam vendor format
0001_20120214_143348_melville.all.mb58.gz 2.09MB Kongsberg multibeam vendor format
0001_20120214_143848_melville.all.mb58.gz 2.04MB Kongsberg multibeam vendor format
0001_20120214_144348_melville.all.mb58.gz 2.03MB Kongsberg multibeam vendor format
0001_20120214_144848_melville.all.mb58.gz 2.05MB Kongsberg multibeam vendor format
0001_20120214_145348_melville.all.mb58.gz 2.03MB Kongsberg multibeam vendor format
0001_20120214_145848_melville.all.mb58.gz 2.02MB Kongsberg multibeam vendor format
0001_20120214_150348_melville.all.mb58.gz 2.07MB Kongsberg multibeam vendor format
0001_20120214_150848_melville.all.mb58.gz 1.97MB Kongsberg multibeam vendor format
0001_20120214_151348_melville.all.mb58.gz 2.07MB Kongsberg multibeam vendor format
0001_20120214_151848_melville.all.mb58.gz 2.09MB Kongsberg multibeam vendor format
0001_20120214_152348_melville.all.mb58.gz 2.02MB Kongsberg multibeam vendor format
0001_20120214_152848_melville.all.mb58.gz 2.05MB Kongsberg multibeam vendor format
0001_20120214_153348_melville.all.mb58.gz 2.09MB Kongsberg multibeam vendor format
0001_20120214_153848_melville.all.mb58.gz 2.04MB Kongsberg multibeam vendor format
0001_20120214_154348_melville.all.mb58.gz 2.01MB Kongsberg multibeam vendor format
0001_20120214_154848_melville.all.mb58.gz 2.11MB Kongsberg multibeam vendor format
0001_20120214_155348_melville.all.mb58.gz 2.04MB Kongsberg multibeam vendor format
0001_20120214_155848_melville.all.mb58.gz 2.09MB Kongsberg multibeam vendor format
0001_20120214_160348_melville.all.mb58.gz 2.02MB Kongsberg multibeam vendor format
0001_20120214_160848_melville.all.mb58.gz 2.09MB Kongsberg multibeam vendor format
0001_20120214_161348_melville.all.mb58.gz 2.03MB Kongsberg multibeam vendor format
0001_20120214_161848_melville.all.mb58.gz 2.11MB Kongsberg multibeam vendor format
0001_20120214_162348_melville.all.mb58.gz 2.04MB Kongsberg multibeam vendor format
0001_20120214_162848_melville.all.mb58.gz 2.04MB Kongsberg multibeam vendor format
0001_20120214_163348_melville.all.mb58.gz 2.10MB Kongsberg multibeam vendor format
0001_20120214_163848_melville.all.mb58.gz 2.02MB Kongsberg multibeam vendor format
0001_20120214_164348_melville.all.mb58.gz 2.04MB Kongsberg multibeam vendor format
0001_20120214_164848_melville.all.mb58.gz 2.12MB Kongsberg multibeam vendor format
0001_20120214_165348_melville.all.mb58.gz 2.06MB Kongsberg multibeam vendor format
0001_20120214_165848_melville.all.mb58.gz 2.05MB Kongsberg multibeam vendor format
0001_20120214_170348_melville.all.mb58.gz 2.04MB Kongsberg multibeam vendor format
0001_20120214_170848_melville.all.mb58.gz 2.10MB Kongsberg multibeam vendor format
0001_20120214_171348_melville.all.mb58.gz 2.04MB Kongsberg multibeam vendor format
0001_20120214_171848_melville.all.mb58.gz 2.05MB Kongsberg multibeam vendor format
0001_20120214_172348_melville.all.mb58.gz 2.04MB Kongsberg multibeam vendor format
0001_20120214_172848_melville.all.mb58.gz 2.09MB Kongsberg multibeam vendor format
0001_20120214_173348_melville.all.mb58.gz 2.03MB Kongsberg multibeam vendor format
0001_20120214_173848_melville.all.mb58.gz 2.05MB Kongsberg multibeam vendor format
0001_20120214_174348_melville.all.mb58.gz 2.04MB Kongsberg multibeam vendor format
0001_20120214_174848_melville.all.mb58.gz 2.12MB Kongsberg multibeam vendor format
0001_20120214_175348_melville.all.mb58.gz 2.05MB Kongsberg multibeam vendor format
0001_20120214_175848_melville.all.mb58.gz 2.05MB Kongsberg multibeam vendor format
0001_20120214_180348_melville.all.mb58.gz 2.04MB Kongsberg multibeam vendor format
0001_20120214_180848_melville.all.mb58.gz 2.09MB Kongsberg multibeam vendor format
0001_20120214_181348_melville.all.mb58.gz 2.03MB Kongsberg multibeam vendor format
0001_20120214_181848_melville.all.mb58.gz 2.10MB Kongsberg multibeam vendor format
0001_20120214_182348_melville.all.mb58.gz 2.03MB Kongsberg multibeam vendor format
0001_20120214_182848_melville.all.mb58.gz 2.08MB Kongsberg multibeam vendor format
0001_20120214_183348_melville.all.mb58.gz 2.07MB Kongsberg multibeam vendor format
0001_20120214_183849_melville.all.mb58.gz 2.03MB Kongsberg multibeam vendor format
0001_20120214_184349_melville.all.mb58.gz 2.09MB Kongsberg multibeam vendor format
0001_20120214_184849_melville.all.mb58.gz 2.05MB Kongsberg multibeam vendor format
0001_20120214_185349_melville.all.mb58.gz 2.10MB Kongsberg multibeam vendor format
0001_20120214_185849_melville.all.mb58.gz 2.04MB Kongsberg multibeam vendor format
0001_20120214_190349_melville.all.mb58.gz 2.04MB Kongsberg multibeam vendor format
0001_20120214_190849_melville.all.mb58.gz 2.11MB Kongsberg multibeam vendor format
0001_20120214_191349_melville.all.mb58.gz 2.04MB Kongsberg multibeam vendor format
0001_20120214_191849_melville.all.mb58.gz 2.06MB Kongsberg multibeam vendor format
0001_20120214_192349_melville.all.mb58.gz 2.10MB Kongsberg multibeam vendor format
0001_20120214_192849_melville.all.mb58.gz 2.03MB Kongsberg multibeam vendor format
0001_20120214_193349_melville.all.mb58.gz 2.10MB Kongsberg multibeam vendor format
0001_20120214_193849_melville.all.mb58.gz 2.03MB Kongsberg multibeam vendor format
0001_20120214_194349_melville.all.mb58.gz 2.10MB Kongsberg multibeam vendor format
0001_20120214_194849_melville.all.mb58.gz 2.04MB Kongsberg multibeam vendor format
0001_20120214_195349_melville.all.mb58.gz 2.09MB Kongsberg multibeam vendor format
0001_20120214_195849_melville.all.mb58.gz 2.02MB Kongsberg multibeam vendor format
0001_20120214_200349_melville.all.mb58.gz 2.08MB Kongsberg multibeam vendor format
0001_20120214_200849_melville.all.mb58.gz 2.08MB Kongsberg multibeam vendor format
0001_20120214_201349_melville.all.mb58.gz 2.02MB Kongsberg multibeam vendor format
0001_20120214_201849_melville.all.mb58.gz 2.08MB Kongsberg multibeam vendor format
0001_20120214_202349_melville.all.mb58.gz 2.08MB Kongsberg multibeam vendor format
0001_20120214_202849_melville.all.mb58.gz 2.08MB Kongsberg multibeam vendor format
0001_20120214_203349_melville.all.mb58.gz 2.01MB Kongsberg multibeam vendor format
0001_20120214_203849_melville.all.mb58.gz 2.07MB Kongsberg multibeam vendor format
0001_20120214_204349_melville.all.mb58.gz 2.07MB Kongsberg multibeam vendor format
0001_20120214_204849_melville.all.mb58.gz 2.03MB Kongsberg multibeam vendor format
0001_20120214_205349_melville.all.mb58.gz 2.09MB Kongsberg multibeam vendor format
0001_20120214_205849_melville.all.mb58.gz 2.03MB Kongsberg multibeam vendor format
0001_20120214_210349_melville.all.mb58.gz 2.09MB Kongsberg multibeam vendor format
0001_20120214_210849_melville.all.mb58.gz 2.04MB Kongsberg multibeam vendor format
0001_20120214_211349_melville.all.mb58.gz 2.10MB Kongsberg multibeam vendor format
0001_20120214_211849_melville.all.mb58.gz 2.06MB Kongsberg multibeam vendor format
0001_20120214_212349_melville.all.mb58.gz 2.10MB Kongsberg multibeam vendor format
0001_20120214_212849_melville.all.mb58.gz 2.04MB Kongsberg multibeam vendor format
0001_20120214_213349_melville.all.mb58.gz 2.04MB Kongsberg multibeam vendor format
0001_20120214_213849_melville.all.mb58.gz 2.10MB Kongsberg multibeam vendor format
0001_20120214_214349_melville.all.mb58.gz 2.04MB Kongsberg multibeam vendor format
0001_20120214_214849_melville.all.mb58.gz 2.11MB Kongsberg multibeam vendor format
0001_20120214_215349_melville.all.mb58.gz 2.03MB Kongsberg multibeam vendor format
0001_20120214_215849_melville.all.mb58.gz 2.09MB Kongsberg multibeam vendor format
0001_20120214_220349_melville.all.mb58.gz 2.08MB Kongsberg multibeam vendor format
0001_20120214_220849_melville.all.mb58.gz 2.03MB Kongsberg multibeam vendor format
0001_20120214_221349_melville.all.mb58.gz 2.08MB Kongsberg multibeam vendor format
0001_20120214_221849_melville.all.mb58.gz 2.06MB Kongsberg multibeam vendor format
0001_20120214_222349_melville.all.mb58.gz 2.11MB Kongsberg multibeam vendor format
0001_20120214_222849_melville.all.mb58.gz 2.04MB Kongsberg multibeam vendor format
0001_20120214_223349_melville.all.mb58.gz 2.04MB Kongsberg multibeam vendor format
0001_20120214_223849_melville.all.mb58.gz 2.10MB Kongsberg multibeam vendor format
0001_20120214_224349_melville.all.mb58.gz 2.04MB Kongsberg multibeam vendor format
0001_20120214_224849_melville.all.mb58.gz 2.06MB Kongsberg multibeam vendor format
0001_20120214_225349_melville.all.mb58.gz 2.10MB Kongsberg multibeam vendor format
0001_20120214_225849_melville.all.mb58.gz 2.04MB Kongsberg multibeam vendor format
0001_20120214_230349_melville.all.mb58.gz 2.09MB Kongsberg multibeam vendor format
0001_20120214_230849_melville.all.mb58.gz 2.07MB Kongsberg multibeam vendor format
0001_20120214_231349_melville.all.mb58.gz 2.03MB Kongsberg multibeam vendor format
0001_20120214_231849_melville.all.mb58.gz 2.09MB Kongsberg multibeam vendor format
0001_20120214_232349_melville.all.mb58.gz 2.02MB Kongsberg multibeam vendor format
0001_20120214_232849_melville.all.mb58.gz 2.08MB Kongsberg multibeam vendor format
0001_20120214_233349_melville.all.mb58.gz 2.02MB Kongsberg multibeam vendor format
0001_20120214_233849_melville.all.mb58.gz 2.06MB Kongsberg multibeam vendor format
0001_20120214_234349_melville.all.mb58.gz 1.98MB Kongsberg multibeam vendor format
0001_20120214_234849_melville.all.mb58.gz 2.07MB Kongsberg multibeam vendor format
0001_20120214_235349_melville.all.mb58.gz 2.07MB Kongsberg multibeam vendor format
0001_20120214_235849_melville.all.mb58.gz 2.07MB Kongsberg multibeam vendor format
0001_20120215_000349_melville.all.mb58.gz 2.03MB Kongsberg multibeam vendor format
0001_20120215_000849_melville.all.mb58.gz 2.08MB Kongsberg multibeam vendor format
0001_20120215_001349_melville.all.mb58.gz 2.07MB Kongsberg multibeam vendor format
0001_20120215_001849_melville.all.mb58.gz 2.09MB Kongsberg multibeam vendor format
0001_20120215_002349_melville.all.mb58.gz 2.07MB Kongsberg multibeam vendor format
0001_20120215_002849_melville.all.mb58.gz 2.06MB Kongsberg multibeam vendor format
0001_20120215_003349_melville.all.mb58.gz 2.06MB Kongsberg multibeam vendor format
0001_20120215_003850_melville.all.mb58.gz 2.06MB Kongsberg multibeam vendor format
0001_20120215_004350_melville.all.mb58.gz 2.05MB Kongsberg multibeam vendor format
0001_20120215_004850_melville.all.mb58.gz 2.05MB Kongsberg multibeam vendor format
0001_20120215_005350_melville.all.mb58.gz 2.11MB Kongsberg multibeam vendor format
0001_20120215_005850_melville.all.mb58.gz 2.05MB Kongsberg multibeam vendor format
0001_20120215_010350_melville.all.mb58.gz 2.11MB Kongsberg multibeam vendor format
0001_20120215_010850_melville.all.mb58.gz 2.05MB Kongsberg multibeam vendor format
0001_20120215_011350_melville.all.mb58.gz 2.06MB Kongsberg multibeam vendor format
0001_20120215_011850_melville.all.mb58.gz 2.14MB Kongsberg multibeam vendor format
0001_20120215_012350_melville.all.mb58.gz 2.10MB Kongsberg multibeam vendor format
0001_20120215_012850_melville.all.mb58.gz 2.37MB Kongsberg multibeam vendor format
0001_20120215_013350_melville.all.mb58.gz 2.11MB Kongsberg multibeam vendor format
0001_20120215_013850_melville.all.mb58.gz 1.89MB Kongsberg multibeam vendor format
0001_20120215_014350_melville.all.mb58.gz 1.92MB Kongsberg multibeam vendor format
0001_20120215_014850_melville.all.mb58.gz 2.21MB Kongsberg multibeam vendor format
0001_20120215_015350_melville.all.mb58.gz 2.06MB Kongsberg multibeam vendor format
0001_20120215_015850_melville.all.mb58.gz 2.25MB Kongsberg multibeam vendor format
0001_20120215_020350_melville.all.mb58.gz 2.24MB Kongsberg multibeam vendor format
0001_20120215_020850_melville.all.mb58.gz 2.21MB Kongsberg multibeam vendor format
0001_20120215_021350_melville.all.mb58.gz 2.09MB Kongsberg multibeam vendor format
0001_20120215_021850_melville.all.mb58.gz 2.27MB Kongsberg multibeam vendor format
0001_20120215_022350_melville.all.mb58.gz 2.28MB Kongsberg multibeam vendor format
0001_20120215_022850_melville.all.mb58.gz 2.35MB Kongsberg multibeam vendor format
0001_20120215_023350_melville.all.mb58.gz 2.28MB Kongsberg multibeam vendor format
0001_20120215_023850_melville.all.mb58.gz 2.28MB Kongsberg multibeam vendor format
0001_20120215_024350_melville.all.mb58.gz 2.28MB Kongsberg multibeam vendor format
0001_20120215_024850_melville.all.mb58.gz 2.30MB Kongsberg multibeam vendor format
0001_20120215_025350_melville.all.mb58.gz 2.35MB Kongsberg multibeam vendor format
0001_20120215_025850_melville.all.mb58.gz 2.28MB Kongsberg multibeam vendor format
0001_20120215_030350_melville.all.mb58.gz 2.28MB Kongsberg multibeam vendor format
0001_20120215_030850_melville.all.mb58.gz 2.28MB Kongsberg multibeam vendor format
0001_20120215_031350_melville.all.mb58.gz 2.29MB Kongsberg multibeam vendor format
0001_20120215_031850_melville.all.mb58.gz 2.36MB Kongsberg multibeam vendor format
0001_20120215_032350_melville.all.mb58.gz 2.28MB Kongsberg multibeam vendor format
0001_20120215_032850_melville.all.mb58.gz 2.19MB Kongsberg multibeam vendor format
0001_20120215_033350_melville.all.mb58.gz 2.14MB Kongsberg multibeam vendor format
0001_20120215_033850_melville.all.mb58.gz 2.10MB Kongsberg multibeam vendor format
0001_20120215_034350_melville.all.mb58.gz 2.20MB Kongsberg multibeam vendor format
0001_20120215_034850_melville.all.mb58.gz 2.12MB Kongsberg multibeam vendor format
0001_20120215_035350_melville.all.mb58.gz 1.93MB Kongsberg multibeam vendor format
0001_20120215_035850_melville.all.mb58.gz 2.06MB Kongsberg multibeam vendor format
0001_20120215_040350_melville.all.mb58.gz 2.03MB Kongsberg multibeam vendor format
0001_20120215_040850_melville.all.mb58.gz 2.28MB Kongsberg multibeam vendor format
0001_20120215_041350_melville.all.mb58.gz 2.29MB Kongsberg multibeam vendor format
0001_20120215_041850_melville.all.mb58.gz 2.29MB Kongsberg multibeam vendor format
0001_20120215_042350_melville.all.mb58.gz 2.12MB Kongsberg multibeam vendor format
0001_20120215_042850_melville.all.mb58.gz 2.18MB Kongsberg multibeam vendor format
0001_20120215_043350_melville.all.mb58.gz 2.36MB Kongsberg multibeam vendor format
0001_20120215_043850_melville.all.mb58.gz 1.61MB Kongsberg multibeam vendor format
0001_20120215_044350_melville.all.mb58.gz 1.64MB Kongsberg multibeam vendor format
0001_20120215_044850_melville.all.mb58.gz 1.72MB Kongsberg multibeam vendor format
0001_20120215_045350_melville.all.mb58.gz 1.60MB Kongsberg multibeam vendor format
0001_20120215_045850_melville.all.mb58.gz 1.91MB Kongsberg multibeam vendor format
0001_20120215_050350_melville.all.mb58.gz 2.16MB Kongsberg multibeam vendor format
0001_20120215_050850_melville.all.mb58.gz 2.34MB Kongsberg multibeam vendor format
0001_20120215_051350_melville.all.mb58.gz 2.46MB Kongsberg multibeam vendor format
0001_20120215_051850_melville.all.mb58.gz 3.03MB Kongsberg multibeam vendor format
0001_20120215_052350_melville.all.mb58.gz 2.18MB Kongsberg multibeam vendor format
0001_20120215_052850_melville.all.mb58.gz 2.49MB Kongsberg multibeam vendor format
0001_20120215_053350_melville.all.mb58.gz 2.42MB Kongsberg multibeam vendor format
0001_20120215_053850_melville.all.mb58.gz 3.02MB Kongsberg multibeam vendor format
0001_20120215_054350_melville.all.mb58.gz 3.60MB Kongsberg multibeam vendor format
0001_20120215_054850_melville.all.mb58.gz 3.52MB Kongsberg multibeam vendor format
0001_20120215_055350_melville.all.mb58.gz 2.99MB Kongsberg multibeam vendor format
0001_20120215_055850_melville.all.mb58.gz 3.06MB Kongsberg multibeam vendor format
0001_20120215_060350_melville.all.mb58.gz 3.34MB Kongsberg multibeam vendor format
0001_20120215_060850_melville.all.mb58.gz 3.44MB Kongsberg multibeam vendor format
0001_20120215_061350_melville.all.mb58.gz 3.15MB Kongsberg multibeam vendor format
0001_20120215_061850_melville.all.mb58.gz 3.12MB Kongsberg multibeam vendor format
0001_20120215_062350_melville.all.mb58.gz 2.80MB Kongsberg multibeam vendor format
0001_20120215_062850_melville.all.mb58.gz 2.02MB Kongsberg multibeam vendor format
0001_20120215_063350_melville.all.mb58.gz 1.89MB Kongsberg multibeam vendor format
0001_20120215_063851_melville.all.mb58.gz 1.61MB Kongsberg multibeam vendor format
0001_20120215_064351_melville.all.mb58.gz 1.72MB Kongsberg multibeam vendor format
0001_20120215_064851_melville.all.mb58.gz 1.54MB Kongsberg multibeam vendor format
0001_20120215_065351_melville.all.mb58.gz 1.57MB Kongsberg multibeam vendor format
0001_20120215_065851_melville.all.mb58.gz 1.47MB Kongsberg multibeam vendor format
0001_20120215_070351_melville.all.mb58.gz 1.61MB Kongsberg multibeam vendor format
0001_20120215_070851_melville.all.mb58.gz 1.58MB Kongsberg multibeam vendor format
0001_20120215_071351_melville.all.mb58.gz 1.50MB Kongsberg multibeam vendor format
0001_20120215_071851_melville.all.mb58.gz 1.49MB Kongsberg multibeam vendor format
0001_20120215_072351_melville.all.mb58.gz 1.60MB Kongsberg multibeam vendor format
0001_20120215_072851_melville.all.mb58.gz 1.69MB Kongsberg multibeam vendor format
0001_20120215_073351_melville.all.mb58.gz 1.50MB Kongsberg multibeam vendor format
0001_20120215_073851_melville.all.mb58.gz 1.52MB Kongsberg multibeam vendor format
0001_20120215_074351_melville.all.mb58.gz 1.60MB Kongsberg multibeam vendor format
0001_20120215_074851_melville.all.mb58.gz 1.54MB Kongsberg multibeam vendor format
0001_20120215_075351_melville.all.mb58.gz 1.72MB Kongsberg multibeam vendor format
0001_20120215_075851_melville.all.mb58.gz 1.88MB Kongsberg multibeam vendor format
0001_20120215_080351_melville.all.mb58.gz 1.81MB Kongsberg multibeam vendor format
0001_20120215_080851_melville.all.mb58.gz 2.26MB Kongsberg multibeam vendor format
0001_20120215_081351_melville.all.mb58.gz 1.79MB Kongsberg multibeam vendor format
0001_20120215_081851_melville.all.mb58.gz 1.84MB Kongsberg multibeam vendor format
0001_20120215_082351_melville.all.mb58.gz 1.50MB Kongsberg multibeam vendor format
0001_20120215_082851_melville.all.mb58.gz 1.47MB Kongsberg multibeam vendor format
0001_20120215_083351_melville.all.mb58.gz 1.67MB Kongsberg multibeam vendor format
0001_20120215_083851_melville.all.mb58.gz 1.50MB Kongsberg multibeam vendor format
0001_20120215_084351_melville.all.mb58.gz 1.54MB Kongsberg multibeam vendor format
0001_20120215_084851_melville.all.mb58.gz 1.48MB Kongsberg multibeam vendor format
0001_20120215_085351_melville.all.mb58.gz 1.46MB Kongsberg multibeam vendor format
0001_20120215_085851_melville.all.mb58.gz 1.44MB Kongsberg multibeam vendor format
0001_20120215_090351_melville.all.mb58.gz 1.54MB Kongsberg multibeam vendor format
0001_20120215_090851_melville.all.mb58.gz 2.10MB Kongsberg multibeam vendor format
0001_20120215_091351_melville.all.mb58.gz 1.81MB Kongsberg multibeam vendor format
0001_20120215_091851_melville.all.mb58.gz 1.84MB Kongsberg multibeam vendor format
0001_20120215_092351_melville.all.mb58.gz 1.60MB Kongsberg multibeam vendor format
0001_20120215_092851_melville.all.mb58.gz 1.84MB Kongsberg multibeam vendor format
0001_20120215_093351_melville.all.mb58.gz 1.91MB Kongsberg multibeam vendor format
0001_20120215_093851_melville.all.mb58.gz 2.14MB Kongsberg multibeam vendor format
0001_20120215_094351_melville.all.mb58.gz 1.79MB Kongsberg multibeam vendor format
0001_20120215_094851_melville.all.mb58.gz 2.15MB Kongsberg multibeam vendor format
0001_20120215_095351_melville.all.mb58.gz 2.24MB Kongsberg multibeam vendor format
0001_20120215_095851_melville.all.mb58.gz 2.11MB Kongsberg multibeam vendor format
0001_20120215_100351_melville.all.mb58.gz 1.91MB Kongsberg multibeam vendor format
0001_20120215_100851_melville.all.mb58.gz 2.03MB Kongsberg multibeam vendor format
0001_20120215_101351_melville.all.mb58.gz 2.16MB Kongsberg multibeam vendor format
0001_20120215_101851_melville.all.mb58.gz 2.29MB Kongsberg multibeam vendor format
0001_20120215_102351_melville.all.mb58.gz 2.51MB Kongsberg multibeam vendor format
0001_20120215_102851_melville.all.mb58.gz 2.41MB Kongsberg multibeam vendor format
0001_20120215_103351_melville.all.mb58.gz 3.13MB Kongsberg multibeam vendor format
0001_20120215_103851_melville.all.mb58.gz 2.38MB Kongsberg multibeam vendor format
0001_20120215_104351_melville.all.mb58.gz 2.60MB Kongsberg multibeam vendor format
0001_20120215_104851_melville.all.mb58.gz 2.52MB Kongsberg multibeam vendor format
0001_20120215_105351_melville.all.mb58.gz 2.57MB Kongsberg multibeam vendor format
0001_20120215_105851_melville.all.mb58.gz 2.36MB Kongsberg multibeam vendor format
0001_20120215_110351_melville.all.mb58.gz 1.27MB Kongsberg multibeam vendor format
0001_20120215_110851_melville.all.mb58.gz 0.85MB Kongsberg multibeam vendor format
0001_20120215_111351_melville.all.mb58.gz 0.85MB Kongsberg multibeam vendor format
0001_20120215_111851_melville.all.mb58.gz 0.85MB Kongsberg multibeam vendor format
0001_20120215_112351_melville.all.mb58.gz 0.85MB Kongsberg multibeam vendor format
0001_20120215_112851_melville.all.mb58.gz 0.85MB Kongsberg multibeam vendor format
0001_20120215_113351_melville.all.mb58.gz 0.85MB Kongsberg multibeam vendor format
0001_20120215_113851_melville.all.mb58.gz 0.85MB Kongsberg multibeam vendor format
0001_20120215_114351_melville.all.mb58.gz 0.85MB Kongsberg multibeam vendor format
0001_20120215_114851_melville.all.mb58.gz 0.85MB Kongsberg multibeam vendor format
0001_20120215_115351_melville.all.mb58.gz 0.85MB Kongsberg multibeam vendor format
0001_20120215_115851_melville.all.mb58.gz 0.85MB Kongsberg multibeam vendor format
0001_20120215_120351_melville.all.mb58.gz 0.85MB Kongsberg multibeam vendor format
0001_20120215_120851_melville.all.mb58.gz 0.85MB Kongsberg multibeam vendor format
0001_20120215_121351_melville.all.mb58.gz 0.85MB Kongsberg multibeam vendor format
0001_20120215_121851_melville.all.mb58.gz 0.84MB Kongsberg multibeam vendor format
0001_20120215_122351_melville.all.mb58.gz 0.85MB Kongsberg multibeam vendor format
0001_20120215_122851_melville.all.mb58.gz 0.85MB Kongsberg multibeam vendor format
0001_20120215_123351_melville.all.mb58.gz 0.85MB Kongsberg multibeam vendor format
0001_20120215_123852_melville.all.mb58.gz 0.85MB Kongsberg multibeam vendor format
0001_20120215_124352_melville.all.mb58.gz 0.85MB Kongsberg multibeam vendor format
0001_20120215_124852_melville.all.mb58.gz 0.85MB Kongsberg multibeam vendor format
0001_20120215_125352_melville.all.mb58.gz 0.85MB Kongsberg multibeam vendor format
0001_20120215_125852_melville.all.mb58.gz 0.85MB Kongsberg multibeam vendor format
0001_20120215_130352_melville.all.mb58.gz 0.85MB Kongsberg multibeam vendor format
0001_20120215_130852_melville.all.mb58.gz 0.85MB Kongsberg multibeam vendor format
0001_20120215_131352_melville.all.mb58.gz 0.85MB Kongsberg multibeam vendor format
0001_20120215_131852_melville.all.mb58.gz 0.85MB Kongsberg multibeam vendor format
0001_20120215_132352_melville.all.mb58.gz 0.85MB Kongsberg multibeam vendor format
0001_20120215_132852_melville.all.mb58.gz 0.85MB Kongsberg multibeam vendor format
0001_20120215_133352_melville.all.mb58.gz 0.85MB Kongsberg multibeam vendor format
0001_20120215_133852_melville.all.mb58.gz 0.85MB Kongsberg multibeam vendor format
0001_20120215_134352_melville.all.mb58.gz 1.03MB Kongsberg multibeam vendor format
0001_20120215_134852_melville.all.mb58.gz 0.95MB Kongsberg multibeam vendor format
0001_20120215_135352_melville.all.mb58.gz 0.85MB Kongsberg multibeam vendor format
0001_20120215_135852_melville.all.mb58.gz 0.85MB Kongsberg multibeam vendor format
0001_20120215_140352_melville.all.mb58.gz 0.85MB Kongsberg multibeam vendor format
0001_20120215_140852_melville.all.mb58.gz 0.85MB Kongsberg multibeam vendor format
0001_20120215_141352_melville.all.mb58.gz 0.85MB Kongsberg multibeam vendor format
0001_20120215_141852_melville.all.mb58.gz 0.85MB Kongsberg multibeam vendor format
0001_20120215_142352_melville.all.mb58.gz 0.85MB Kongsberg multibeam vendor format
0001_20120215_142852_melville.all.mb58.gz 0.85MB Kongsberg multibeam vendor format
0001_20120215_143352_melville.all.mb58.gz 1.10MB Kongsberg multibeam vendor format
0001_20120215_143852_melville.all.mb58.gz 1.96MB Kongsberg multibeam vendor format
0001_20120215_144352_melville.all.mb58.gz 0.85MB Kongsberg multibeam vendor format
0001_20120215_144852_melville.all.mb58.gz 0.85MB Kongsberg multibeam vendor format
0001_20120215_145352_melville.all.mb58.gz 0.85MB Kongsberg multibeam vendor format
0001_20120215_145852_melville.all.mb58.gz 0.85MB Kongsberg multibeam vendor format
0001_20120215_150352_melville.all.mb58.gz 0.85MB Kongsberg multibeam vendor format
0001_20120215_150852_melville.all.mb58.gz 0.85MB Kongsberg multibeam vendor format
0001_20120215_151352_melville.all.mb58.gz 0.85MB Kongsberg multibeam vendor format
0001_20120215_151852_melville.all.mb58.gz 0.85MB Kongsberg multibeam vendor format
0001_20120215_152352_melville.all.mb58.gz 0.85MB Kongsberg multibeam vendor format
0001_20120215_152852_melville.all.mb58.gz 0.85MB Kongsberg multibeam vendor format
0001_20120215_153352_melville.all.mb58.gz 0.85MB Kongsberg multibeam vendor format
0001_20120215_153852_melville.all.mb58.gz 1.15MB Kongsberg multibeam vendor format
0001_20120215_154352_melville.all.mb58.gz 2.30MB Kongsberg multibeam vendor format
0001_20120215_154852_melville.all.mb58.gz 3.13MB Kongsberg multibeam vendor format
0001_20120215_155352_melville.all.mb58.gz 3.14MB Kongsberg multibeam vendor format
0001_20120215_155852_melville.all.mb58.gz 3.14MB Kongsberg multibeam vendor format
0001_20120215_160352_melville.all.mb58.gz 3.11MB Kongsberg multibeam vendor format
0001_20120215_160852_melville.all.mb58.gz 3.11MB Kongsberg multibeam vendor format
0001_20120215_161352_melville.all.mb58.gz 3.11MB Kongsberg multibeam vendor format
0001_20120215_161852_melville.all.mb58.gz 3.22MB Kongsberg multibeam vendor format
0001_20120215_162352_melville.all.mb58.gz 3.11MB Kongsberg multibeam vendor format
0001_20120215_162852_melville.all.mb58.gz 3.12MB Kongsberg multibeam vendor format
0001_20120215_163352_melville.all.mb58.gz 3.21MB Kongsberg multibeam vendor format
0001_20120215_163852_melville.all.mb58.gz 3.09MB Kongsberg multibeam vendor format
0001_20120215_164352_melville.all.mb58.gz 3.12MB Kongsberg multibeam vendor format
0001_20120215_164852_melville.all.mb58.gz 3.22MB Kongsberg multibeam vendor format
0001_20120215_165352_melville.all.mb58.gz 3.27MB Kongsberg multibeam vendor format
0001_20120215_165852_melville.all.mb58.gz 3.13MB Kongsberg multibeam vendor format
0001_20120215_170352_melville.all.mb58.gz 3.20MB Kongsberg multibeam vendor format
0001_20120215_170852_melville.all.mb58.gz 3.12MB Kongsberg multibeam vendor format
0001_20120215_171352_melville.all.mb58.gz 3.14MB Kongsberg multibeam vendor format
0001_20120215_171852_melville.all.mb58.gz 3.02MB Kongsberg multibeam vendor format
0001_20120215_172352_melville.all.mb58.gz 3.25MB Kongsberg multibeam vendor format
0001_20120215_172852_melville.all.mb58.gz 3.61MB Kongsberg multibeam vendor format
0001_20120215_173352_melville.all.mb58.gz 3.02MB Kongsberg multibeam vendor format
0001_20120215_173852_melville.all.mb58.gz 2.47MB Kongsberg multibeam vendor format
0001_20120215_174352_melville.all.mb58.gz 2.56MB Kongsberg multibeam vendor format
0001_20120215_174852_melville.all.mb58.gz 2.38MB Kongsberg multibeam vendor format
0001_20120215_175352_melville.all.mb58.gz 2.05MB Kongsberg multibeam vendor format
0001_20120215_175852_melville.all.mb58.gz 2.82MB Kongsberg multibeam vendor format
0001_20120215_180352_melville.all.mb58.gz 2.34MB Kongsberg multibeam vendor format
0001_20120215_180852_melville.all.mb58.gz 2.73MB Kongsberg multibeam vendor format
0001_20120215_181352_melville.all.mb58.gz 2.84MB Kongsberg multibeam vendor format
0001_20120215_181852_melville.all.mb58.gz 2.36MB Kongsberg multibeam vendor format
0001_20120215_182352_melville.all.mb58.gz 2.44MB Kongsberg multibeam vendor format
0001_20120215_182852_melville.all.mb58.gz 2.38MB Kongsberg multibeam vendor format
0001_20120215_183352_melville.all.mb58.gz 2.46MB Kongsberg multibeam vendor format
0001_20120215_183852_melville.all.mb58.gz 2.33MB Kongsberg multibeam vendor format
0001_20120215_184353_melville.all.mb58.gz 2.50MB Kongsberg multibeam vendor format
0001_20120215_184853_melville.all.mb58.gz 2.34MB Kongsberg multibeam vendor format
0001_20120215_185353_melville.all.mb58.gz 2.49MB Kongsberg multibeam vendor format
0001_20120215_185853_melville.all.mb58.gz 2.49MB Kongsberg multibeam vendor format
0001_20120215_190353_melville.all.mb58.gz 2.38MB Kongsberg multibeam vendor format
0001_20120215_190853_melville.all.mb58.gz 2.61MB Kongsberg multibeam vendor format
0001_20120215_191353_melville.all.mb58.gz 2.84MB Kongsberg multibeam vendor format
0001_20120215_191853_melville.all.mb58.gz 2.93MB Kongsberg multibeam vendor format
0001_20120215_192353_melville.all.mb58.gz 2.91MB Kongsberg multibeam vendor format
0001_20120215_192853_melville.all.mb58.gz 2.91MB Kongsberg multibeam vendor format
0001_20120215_193353_melville.all.mb58.gz 1.33MB Kongsberg multibeam vendor format
0001_20120215_193853_melville.all.mb58.gz 0.85MB Kongsberg multibeam vendor format
0001_20120215_194353_melville.all.mb58.gz 0.88MB Kongsberg multibeam vendor format
0001_20120215_194853_melville.all.mb58.gz 0.85MB Kongsberg multibeam vendor format
0001_20120215_195353_melville.all.mb58.gz 0.85MB Kongsberg multibeam vendor format
0001_20120215_195853_melville.all.mb58.gz 1.06MB Kongsberg multibeam vendor format
0001_20120215_200353_melville.all.mb58.gz 1.13MB Kongsberg multibeam vendor format
0001_20120215_200853_melville.all.mb58.gz 0.89MB Kongsberg multibeam vendor format
0001_20120215_201353_melville.all.mb58.gz 1.35MB Kongsberg multibeam vendor format
0001_20120215_201853_melville.all.mb58.gz 1.14MB Kongsberg multibeam vendor format
0001_20120215_202353_melville.all.mb58.gz 1.83MB Kongsberg multibeam vendor format
0001_20120215_202853_melville.all.mb58.gz 2.77MB Kongsberg multibeam vendor format
0001_20120215_203353_melville.all.mb58.gz 2.81MB Kongsberg multibeam vendor format
0001_20120215_203853_melville.all.mb58.gz 1.78MB Kongsberg multibeam vendor format
0001_20120215_204353_melville.all.mb58.gz 0.87MB Kongsberg multibeam vendor format
0001_20120215_204853_melville.all.mb58.gz 0.85MB Kongsberg multibeam vendor format
0001_20120215_205353_melville.all.mb58.gz 1.67MB Kongsberg multibeam vendor format
0001_20120215_205853_melville.all.mb58.gz 2.84MB Kongsberg multibeam vendor format
0001_20120215_210353_melville.all.mb58.gz 2.58MB Kongsberg multibeam vendor format
0001_20120215_210853_melville.all.mb58.gz 3.06MB Kongsberg multibeam vendor format
0001_20120215_211353_melville.all.mb58.gz 3.09MB Kongsberg multibeam vendor format
0001_20120215_211853_melville.all.mb58.gz 2.85MB Kongsberg multibeam vendor format
0001_20120215_212353_melville.all.mb58.gz 2.50MB Kongsberg multibeam vendor format
0001_20120215_212853_melville.all.mb58.gz 2.29MB Kongsberg multibeam vendor format
0001_20120215_213353_melville.all.mb58.gz 2.09MB Kongsberg multibeam vendor format
0001_20120215_213853_melville.all.mb58.gz 2.12MB Kongsberg multibeam vendor format
0001_20120215_214353_melville.all.mb58.gz 1.98MB Kongsberg multibeam vendor format
0001_20120215_214853_melville.all.mb58.gz 1.23MB Kongsberg multibeam vendor format
0001_20120215_215353_melville.all.mb58.gz 0.85MB Kongsberg multibeam vendor format
0001_20120215_215853_melville.all.mb58.gz 0.85MB Kongsberg multibeam vendor format
0001_20120215_220353_melville.all.mb58.gz 0.85MB Kongsberg multibeam vendor format
0001_20120215_220853_melville.all.mb58.gz 0.85MB Kongsberg multibeam vendor format
0001_20120215_221353_melville.all.mb58.gz 0.85MB Kongsberg multibeam vendor format
0001_20120215_221853_melville.all.mb58.gz 0.85MB Kongsberg multibeam vendor format
0001_20120215_222353_melville.all.mb58.gz 0.85MB Kongsberg multibeam vendor format
0001_20120215_222853_melville.all.mb58.gz 0.84MB Kongsberg multibeam vendor format
0001_20120215_223353_melville.all.mb58.gz 0.85MB Kongsberg multibeam vendor format
0001_20120215_223853_melville.all.mb58.gz 0.85MB Kongsberg multibeam vendor format
0001_20120215_224353_melville.all.mb58.gz 0.85MB Kongsberg multibeam vendor format
0001_20120215_224853_melville.all.mb58.gz 0.86MB Kongsberg multibeam vendor format
0001_20120215_225353_melville.all.mb58.gz 2.41MB Kongsberg multibeam vendor format
0001_20120215_225853_melville.all.mb58.gz 2.39MB Kongsberg multibeam vendor format
0001_20120215_230353_melville.all.mb58.gz 3.67MB Kongsberg multibeam vendor format
0001_20120215_230853_melville.all.mb58.gz 4.76MB Kongsberg multibeam vendor format
0001_20120215_231353_melville.all.mb58.gz 5.85MB Kongsberg multibeam vendor format
0001_20120215_231853_melville.all.mb58.gz 5.91MB Kongsberg multibeam vendor format
0001_20120215_232353_melville.all.mb58.gz 5.87MB Kongsberg multibeam vendor format
0001_20120215_232853_melville.all.mb58.gz 5.99MB Kongsberg multibeam vendor format
0001_20120215_233353_melville.all.mb58.gz 5.79MB Kongsberg multibeam vendor format
0001_20120215_233853_melville.all.mb58.gz 5.78MB Kongsberg multibeam vendor format
0001_20120215_234353_melville.all.mb58.gz 4.71MB Kongsberg multibeam vendor format
0001_20120215_234853_melville.all.mb58.gz 3.35MB Kongsberg multibeam vendor format
0001_20120215_235353_melville.all.mb58.gz 2.87MB Kongsberg multibeam vendor format
0001_20120215_235853_melville.all.mb58.gz 2.66MB Kongsberg multibeam vendor format
0001_20120216_000353_melville.all.mb58.gz 2.41MB Kongsberg multibeam vendor format
0001_20120216_000853_melville.all.mb58.gz 2.16MB Kongsberg multibeam vendor format
0001_20120216_001353_melville.all.mb58.gz 2.17MB Kongsberg multibeam vendor format
0001_20120216_001853_melville.all.mb58.gz 2.20MB Kongsberg multibeam vendor format
0001_20120216_002353_melville.all.mb58.gz 2.42MB Kongsberg multibeam vendor format
0001_20120216_002853_melville.all.mb58.gz 2.39MB Kongsberg multibeam vendor format
0001_20120216_003353_melville.all.mb58.gz 2.26MB Kongsberg multibeam vendor format
0001_20120216_003853_melville.all.mb58.gz 2.41MB Kongsberg multibeam vendor format
0001_20120216_004354_melville.all.mb58.gz 2.39MB Kongsberg multibeam vendor format
0001_20120216_004854_melville.all.mb58.gz 2.25MB Kongsberg multibeam vendor format
0001_20120216_005354_melville.all.mb58.gz 2.24MB Kongsberg multibeam vendor format
0001_20120216_005854_melville.all.mb58.gz 2.16MB Kongsberg multibeam vendor format
0001_20120216_010354_melville.all.mb58.gz 2.08MB Kongsberg multibeam vendor format
0001_20120216_010854_melville.all.mb58.gz 2.38MB Kongsberg multibeam vendor format
0001_20120216_011354_melville.all.mb58.gz 2.16MB Kongsberg multibeam vendor format
0001_20120216_011854_melville.all.mb58.gz 2.12MB Kongsberg multibeam vendor format
0001_20120216_012354_melville.all.mb58.gz 2.45MB Kongsberg multibeam vendor format
0001_20120216_012854_melville.all.mb58.gz 2.49MB Kongsberg multibeam vendor format
0001_20120216_013354_melville.all.mb58.gz 2.13MB Kongsberg multibeam vendor format
0001_20120216_013854_melville.all.mb58.gz 2.26MB Kongsberg multibeam vendor format
0001_20120216_014354_melville.all.mb58.gz 2.08MB Kongsberg multibeam vendor format
0001_20120216_014854_melville.all.mb58.gz 2.26MB Kongsberg multibeam vendor format
0001_20120216_015354_melville.all.mb58.gz 2.01MB Kongsberg multibeam vendor format
0001_20120216_015854_melville.all.mb58.gz 1.86MB Kongsberg multibeam vendor format
0001_20120216_020354_melville.all.mb58.gz 2.45MB Kongsberg multibeam vendor format
0001_20120216_020854_melville.all.mb58.gz 2.72MB Kongsberg multibeam vendor format
0001_20120216_021354_melville.all.mb58.gz 2.69MB Kongsberg multibeam vendor format
0001_20120216_021854_melville.all.mb58.gz 2.52MB Kongsberg multibeam vendor format
0001_20120216_022354_melville.all.mb58.gz 2.63MB Kongsberg multibeam vendor format
0001_20120216_022854_melville.all.mb58.gz 2.55MB Kongsberg multibeam vendor format
0001_20120216_023354_melville.all.mb58.gz 2.72MB Kongsberg multibeam vendor format
0001_20120216_023854_melville.all.mb58.gz 2.76MB Kongsberg multibeam vendor format
0001_20120216_024354_melville.all.mb58.gz 3.06MB Kongsberg multibeam vendor format
0001_20120216_024854_melville.all.mb58.gz 2.95MB Kongsberg multibeam vendor format
0001_20120216_025354_melville.all.mb58.gz 2.57MB Kongsberg multibeam vendor format
0001_20120216_025854_melville.all.mb58.gz 2.71MB Kongsberg multibeam vendor format
0001_20120216_030354_melville.all.mb58.gz 2.61MB Kongsberg multibeam vendor format
0001_20120216_030854_melville.all.mb58.gz 2.53MB Kongsberg multibeam vendor format
0001_20120216_031354_melville.all.mb58.gz 2.52MB Kongsberg multibeam vendor format
0001_20120216_031854_melville.all.mb58.gz 2.68MB Kongsberg multibeam vendor format
0001_20120216_032354_melville.all.mb58.gz 2.26MB Kongsberg multibeam vendor format
0001_20120216_032854_melville.all.mb58.gz 2.53MB Kongsberg multibeam vendor format
0001_20120216_033354_melville.all.mb58.gz 2.25MB Kongsberg multibeam vendor format
0001_20120216_033854_melville.all.mb58.gz 2.27MB Kongsberg multibeam vendor format
0001_20120216_034354_melville.all.mb58.gz 2.23MB Kongsberg multibeam vendor format
0001_20120216_034854_melville.all.mb58.gz 2.06MB Kongsberg multibeam vendor format
0001_20120216_035354_melville.all.mb58.gz 2.10MB Kongsberg multibeam vendor format
0001_20120216_035854_melville.all.mb58.gz 2.29MB Kongsberg multibeam vendor format
0001_20120216_040354_melville.all.mb58.gz 2.10MB Kongsberg multibeam vendor format
0001_20120216_040854_melville.all.mb58.gz 1.98MB Kongsberg multibeam vendor format
0001_20120216_041354_melville.all.mb58.gz 1.85MB Kongsberg multibeam vendor format
0001_20120216_041854_melville.all.mb58.gz 1.98MB Kongsberg multibeam vendor format
0001_20120216_042354_melville.all.mb58.gz 1.90MB Kongsberg multibeam vendor format
0001_20120216_042854_melville.all.mb58.gz 1.85MB Kongsberg multibeam vendor format
0001_20120216_043354_melville.all.mb58.gz 1.82MB Kongsberg multibeam vendor format
0001_20120216_043854_melville.all.mb58.gz 1.95MB Kongsberg multibeam vendor format
0001_20120216_044354_melville.all.mb58.gz 1.85MB Kongsberg multibeam vendor format
0001_20120216_044854_melville.all.mb58.gz 2.35MB Kongsberg multibeam vendor format
0001_20120216_045354_melville.all.mb58.gz 2.25MB Kongsberg multibeam vendor format
0001_20120216_045854_melville.all.mb58.gz 1.99MB Kongsberg multibeam vendor format
0001_20120216_050354_melville.all.mb58.gz 2.42MB Kongsberg multibeam vendor format
0001_20120216_050854_melville.all.mb58.gz 2.26MB Kongsberg multibeam vendor format
0001_20120216_051354_melville.all.mb58.gz 2.23MB Kongsberg multibeam vendor format
0001_20120216_051854_melville.all.mb58.gz 1.99MB Kongsberg multibeam vendor format
0001_20120216_052354_melville.all.mb58.gz 1.87MB Kongsberg multibeam vendor format
0001_20120216_052854_melville.all.mb58.gz 1.97MB Kongsberg multibeam vendor format
0001_20120216_053354_melville.all.mb58.gz 1.86MB Kongsberg multibeam vendor format
0001_20120216_053854_melville.all.mb58.gz 1.82MB Kongsberg multibeam vendor format
0001_20120216_054354_melville.all.mb58.gz 1.70MB Kongsberg multibeam vendor format
0001_20120216_054854_melville.all.mb58.gz 1.70MB Kongsberg multibeam vendor format
0001_20120216_055354_melville.all.mb58.gz 1.84MB Kongsberg multibeam vendor format
0001_20120216_055854_melville.all.mb58.gz 1.83MB Kongsberg multibeam vendor format
0001_20120216_060354_melville.all.mb58.gz 2.00MB Kongsberg multibeam vendor format
0001_20120216_060854_melville.all.mb58.gz 2.30MB Kongsberg multibeam vendor format
0001_20120216_061354_melville.all.mb58.gz 2.16MB Kongsberg multibeam vendor format
0001_20120216_061854_melville.all.mb58.gz 1.87MB Kongsberg multibeam vendor format
0001_20120216_062354_melville.all.mb58.gz 1.84MB Kongsberg multibeam vendor format
0001_20120216_062854_melville.all.mb58.gz 1.85MB Kongsberg multibeam vendor format
0001_20120216_063354_melville.all.mb58.gz 1.73MB Kongsberg multibeam vendor format
0001_20120216_063854_melville.all.mb58.gz 1.76MB Kongsberg multibeam vendor format
0001_20120216_064355_melville.all.mb58.gz 1.89MB Kongsberg multibeam vendor format
0001_20120216_064855_melville.all.mb58.gz 1.85MB Kongsberg multibeam vendor format
0001_20120216_065355_melville.all.mb58.gz 2.91MB Kongsberg multibeam vendor format
0001_20120216_065855_melville.all.mb58.gz 3.10MB Kongsberg multibeam vendor format
0001_20120216_070355_melville.all.mb58.gz 2.54MB Kongsberg multibeam vendor format
0001_20120216_070855_melville.all.mb58.gz 1.89MB Kongsberg multibeam vendor format
0001_20120216_071355_melville.all.mb58.gz 2.06MB Kongsberg multibeam vendor format
0001_20120216_071855_melville.all.mb58.gz 2.08MB Kongsberg multibeam vendor format
0001_20120216_072355_melville.all.mb58.gz 2.05MB Kongsberg multibeam vendor format
0001_20120216_072855_melville.all.mb58.gz 1.93MB Kongsberg multibeam vendor format
0001_20120216_073355_melville.all.mb58.gz 2.02MB Kongsberg multibeam vendor format
0001_20120216_073855_melville.all.mb58.gz 1.69MB Kongsberg multibeam vendor format
0001_20120216_074355_melville.all.mb58.gz 1.96MB Kongsberg multibeam vendor format
0001_20120216_074855_melville.all.mb58.gz 1.99MB Kongsberg multibeam vendor format
0001_20120216_075355_melville.all.mb58.gz 2.18MB Kongsberg multibeam vendor format
0001_20120216_075855_melville.all.mb58.gz 1.96MB Kongsberg multibeam vendor format
0001_20120216_080355_melville.all.mb58.gz 2.05MB Kongsberg multibeam vendor format
0001_20120216_080855_melville.all.mb58.gz 2.14MB Kongsberg multibeam vendor format
0001_20120216_081355_melville.all.mb58.gz 2.05MB Kongsberg multibeam vendor format
0001_20120216_081855_melville.all.mb58.gz 2.24MB Kongsberg multibeam vendor format
0001_20120216_082355_melville.all.mb58.gz 2.26MB Kongsberg multibeam vendor format
0001_20120216_082855_melville.all.mb58.gz 2.25MB Kongsberg multibeam vendor format
0001_20120216_083355_melville.all.mb58.gz 2.25MB Kongsberg multibeam vendor format
0001_20120216_083855_melville.all.mb58.gz 2.28MB Kongsberg multibeam vendor format
0001_20120216_084355_melville.all.mb58.gz 2.28MB Kongsberg multibeam vendor format
0001_20120216_084855_melville.all.mb58.gz 2.04MB Kongsberg multibeam vendor format
0001_20120216_085355_melville.all.mb58.gz 2.05MB Kongsberg multibeam vendor format
0001_20120216_085855_melville.all.mb58.gz 2.04MB Kongsberg multibeam vendor format
0001_20120216_090355_melville.all.mb58.gz 2.13MB Kongsberg multibeam vendor format
0001_20120216_090855_melville.all.mb58.gz 2.27MB Kongsberg multibeam vendor format
0001_20120216_091355_melville.all.mb58.gz 2.35MB Kongsberg multibeam vendor format
0001_20120216_091855_melville.all.mb58.gz 2.42MB Kongsberg multibeam vendor format
0001_20120216_092355_melville.all.mb58.gz 2.28MB Kongsberg multibeam vendor format
0001_20120216_092855_melville.all.mb58.gz 2.20MB Kongsberg multibeam vendor format
0001_20120216_093355_melville.all.mb58.gz 2.15MB Kongsberg multibeam vendor format
0001_20120216_093855_melville.all.mb58.gz 2.00MB Kongsberg multibeam vendor format
0001_20120216_094355_melville.all.mb58.gz 2.12MB Kongsberg multibeam vendor format
0001_20120216_094855_melville.all.mb58.gz 1.85MB Kongsberg multibeam vendor format
0001_20120216_095355_melville.all.mb58.gz 2.06MB Kongsberg multibeam vendor format
0001_20120216_095855_melville.all.mb58.gz 2.66MB Kongsberg multibeam vendor format
0001_20120216_100355_melville.all.mb58.gz 2.79MB Kongsberg multibeam vendor format
0001_20120216_100855_melville.all.mb58.gz 2.65MB Kongsberg multibeam vendor format
0001_20120216_101355_melville.all.mb58.gz 2.98MB Kongsberg multibeam vendor format
0001_20120216_101855_melville.all.mb58.gz 2.72MB Kongsberg multibeam vendor format
0001_20120216_102355_melville.all.mb58.gz 2.87MB Kongsberg multibeam vendor format
0001_20120216_102855_melville.all.mb58.gz 2.58MB Kongsberg multibeam vendor format
0001_20120216_103355_melville.all.mb58.gz 2.68MB Kongsberg multibeam vendor format
0001_20120216_103855_melville.all.mb58.gz 2.58MB Kongsberg multibeam vendor format
0001_20120216_104355_melville.all.mb58.gz 2.55MB Kongsberg multibeam vendor format
0001_20120216_104855_melville.all.mb58.gz 1.74MB Kongsberg multibeam vendor format
0001_20120216_105355_melville.all.mb58.gz 1.94MB Kongsberg multibeam vendor format
0001_20120216_105855_melville.all.mb58.gz 2.49MB Kongsberg multibeam vendor format
0001_20120216_110355_melville.all.mb58.gz 2.29MB Kongsberg multibeam vendor format
0001_20120216_110855_melville.all.mb58.gz 1.69MB Kongsberg multibeam vendor format
0001_20120216_111355_melville.all.mb58.gz 0.85MB Kongsberg multibeam vendor format
0001_20120216_111855_melville.all.mb58.gz 1.17MB Kongsberg multibeam vendor format
0001_20120216_112355_melville.all.mb58.gz 0.85MB Kongsberg multibeam vendor format
0001_20120216_112855_melville.all.mb58.gz 0.85MB Kongsberg multibeam vendor format
0001_20120216_113355_melville.all.mb58.gz 1.29MB Kongsberg multibeam vendor format
0001_20120216_113855_melville.all.mb58.gz 1.89MB Kongsberg multibeam vendor format
0001_20120216_114355_melville.all.mb58.gz 0.85MB Kongsberg multibeam vendor format
0001_20120216_114855_melville.all.mb58.gz 1.29MB Kongsberg multibeam vendor format
0001_20120216_115355_melville.all.mb58.gz 0.88MB Kongsberg multibeam vendor format
0001_20120216_115855_melville.all.mb58.gz 0.89MB Kongsberg multibeam vendor format
0001_20120216_120355_melville.all.mb58.gz 0.85MB Kongsberg multibeam vendor format
0001_20120216_120855_melville.all.mb58.gz 1.07MB Kongsberg multibeam vendor format
0001_20120216_121355_melville.all.mb58.gz 0.98MB Kongsberg multibeam vendor format
0001_20120216_121855_melville.all.mb58.gz 0.98MB Kongsberg multibeam vendor format
0001_20120216_122355_melville.all.mb58.gz 0.85MB Kongsberg multibeam vendor format
0001_20120216_122855_melville.all.mb58.gz 0.85MB Kongsberg multibeam vendor format
0001_20120216_123355_melville.all.mb58.gz 1.07MB Kongsberg multibeam vendor format
0001_20120216_123855_melville.all.mb58.gz 0.85MB Kongsberg multibeam vendor format
0001_20120216_124355_melville.all.mb58.gz 0.85MB Kongsberg multibeam vendor format
0001_20120216_124856_melville.all.mb58.gz 0.85MB Kongsberg multibeam vendor format
0001_20120216_125356_melville.all.mb58.gz 1.07MB Kongsberg multibeam vendor format
0001_20120216_125856_melville.all.mb58.gz 1.27MB Kongsberg multibeam vendor format
0001_20120216_130356_melville.all.mb58.gz 1.41MB Kongsberg multibeam vendor format
0001_20120216_130856_melville.all.mb58.gz 1.19MB Kongsberg multibeam vendor format
0001_20120216_131356_melville.all.mb58.gz 0.86MB Kongsberg multibeam vendor format
0001_20120216_131856_melville.all.mb58.gz 0.85MB Kongsberg multibeam vendor format
0001_20120216_132356_melville.all.mb58.gz 0.87MB Kongsberg multibeam vendor format
0001_20120216_132856_melville.all.mb58.gz 449.4KB Kongsberg multibeam vendor format
0001_20120216_133439_melville.all.mb58.gz 229.1KB Kongsberg multibeam vendor format
0001_20120216_134246_melville.all.mb58.gz 367.3KB Kongsberg multibeam vendor format
0001_20120216_135011_melville.all.mb58.gz 2.68MB Kongsberg multibeam vendor format
0001_20120216_135511_melville.all.mb58.gz 2.25MB Kongsberg multibeam vendor format
0001_20120216_140011_melville.all.mb58.gz 0.85MB Kongsberg multibeam vendor format
0001_20120216_140511_melville.all.mb58.gz 0.90MB Kongsberg multibeam vendor format
0001_20120216_141011_melville.all.mb58.gz 0.85MB Kongsberg multibeam vendor format
0001_20120216_141511_melville.all.mb58.gz 0.85MB Kongsberg multibeam vendor format
0001_20120216_142011_melville.all.mb58.gz 0.85MB Kongsberg multibeam vendor format
0001_20120216_142511_melville.all.mb58.gz 0.85MB Kongsberg multibeam vendor format
0001_20120216_143011_melville.all.mb58.gz 0.88MB Kongsberg multibeam vendor format
0001_20120216_143511_melville.all.mb58.gz 0.85MB Kongsberg multibeam vendor format
0001_20120216_144011_melville.all.mb58.gz 0.85MB Kongsberg multibeam vendor format
0001_20120216_144511_melville.all.mb58.gz 0.85MB Kongsberg multibeam vendor format
0001_20120216_145011_melville.all.mb58.gz 0.86MB Kongsberg multibeam vendor format
0001_20120216_145511_melville.all.mb58.gz 0.85MB Kongsberg multibeam vendor format
0001_20120216_150011_melville.all.mb58.gz 0.85MB Kongsberg multibeam vendor format
0001_20120216_150511_melville.all.mb58.gz 0.85MB Kongsberg multibeam vendor format
0001_20120216_151011_melville.all.mb58.gz 0.84MB Kongsberg multibeam vendor format
0001_20120216_151511_melville.all.mb58.gz 0.85MB Kongsberg multibeam vendor format
0001_20120216_152011_melville.all.mb58.gz 0.85MB Kongsberg multibeam vendor format
0001_20120216_152511_melville.all.mb58.gz 0.85MB Kongsberg multibeam vendor format
0001_20120216_153011_melville.all.mb58.gz 0.85MB Kongsberg multibeam vendor format
0001_20120216_153511_melville.all.mb58.gz 0.86MB Kongsberg multibeam vendor format
0001_20120216_154011_melville.all.mb58.gz 0.85MB Kongsberg multibeam vendor format
0001_20120216_154512_melville.all.mb58.gz 0.85MB Kongsberg multibeam vendor format
0001_20120216_155012_melville.all.mb58.gz 0.85MB Kongsberg multibeam vendor format
0001_20120216_155512_melville.all.mb58.gz 0.86MB Kongsberg multibeam vendor format
0001_20120216_160012_melville.all.mb58.gz 0.85MB Kongsberg multibeam vendor format
0001_20120216_160512_melville.all.mb58.gz 0.85MB Kongsberg multibeam vendor format
0001_20120216_161012_melville.all.mb58.gz 0.85MB Kongsberg multibeam vendor format
0001_20120216_161512_melville.all.mb58.gz 0.84MB Kongsberg multibeam vendor format
0001_20120216_162012_melville.all.mb58.gz 0.73MB Kongsberg multibeam vendor format
0001_20120216_162838_melville.all.mb58.gz 252.1KB Kongsberg multibeam vendor format
0001_20120216_163514_melville.all.mb58.gz 0.86MB Kongsberg multibeam vendor format
0001_20120216_164014_melville.all.mb58.gz 0.85MB Kongsberg multibeam vendor format
0001_20120216_164514_melville.all.mb58.gz 0.85MB Kongsberg multibeam vendor format
0001_20120216_165014_melville.all.mb58.gz 0.85MB Kongsberg multibeam vendor format
0001_20120216_165515_melville.all.mb58.gz 0.85MB Kongsberg multibeam vendor format
0001_20120216_170015_melville.all.mb58.gz 0.85MB Kongsberg multibeam vendor format
0001_20120216_170515_melville.all.mb58.gz 0.84MB Kongsberg multibeam vendor format
0001_20120216_171015_melville.all.mb58.gz 1.41MB Kongsberg multibeam vendor format
0001_20120216_171515_melville.all.mb58.gz 3.18MB Kongsberg multibeam vendor format
0001_20120216_172015_melville.all.mb58.gz 3.12MB Kongsberg multibeam vendor format
0001_20120216_172515_melville.all.mb58.gz 3.08MB Kongsberg multibeam vendor format
0001_20120216_173015_melville.all.mb58.gz 3.68MB Kongsberg multibeam vendor format
0001_20120216_173515_melville.all.mb58.gz 3.68MB Kongsberg multibeam vendor format
0001_20120216_174015_melville.all.mb58.gz 4.37MB Kongsberg multibeam vendor format
0001_20120216_174515_melville.all.mb58.gz 4.67MB Kongsberg multibeam vendor format
0001_20120216_175015_melville.all.mb58.gz 4.66MB Kongsberg multibeam vendor format
0001_20120216_175515_melville.all.mb58.gz 4.69MB Kongsberg multibeam vendor format
0001_20120216_180015_melville.all.mb58.gz 4.64MB Kongsberg multibeam vendor format
0001_20120216_180515_melville.all.mb58.gz 4.81MB Kongsberg multibeam vendor format
0001_20120216_181015_melville.all.mb58.gz 5.39MB Kongsberg multibeam vendor format
0001_20120216_181515_melville.all.mb58.gz 5.30MB Kongsberg multibeam vendor format
0001_20120216_182015_melville.all.mb58.gz 5.11MB Kongsberg multibeam vendor format
0001_20120216_182515_melville.all.mb58.gz 5.12MB Kongsberg multibeam vendor format
0001_20120216_183015_melville.all.mb58.gz 5.29MB Kongsberg multibeam vendor format
0001_20120216_183515_melville.all.mb58.gz 5.39MB Kongsberg multibeam vendor format
0001_20120216_184015_melville.all.mb58.gz 5.35MB Kongsberg multibeam vendor format
0001_20120216_184515_melville.all.mb58.gz 5.47MB Kongsberg multibeam vendor format
0001_20120216_185015_melville.all.mb58.gz 5.28MB Kongsberg multibeam vendor format
0001_20120216_185515_melville.all.mb58.gz 5.18MB Kongsberg multibeam vendor format
0001_20120216_190015_melville.all.mb58.gz 5.06MB Kongsberg multibeam vendor format
0001_20120216_190515_melville.all.mb58.gz 4.20MB Kongsberg multibeam vendor format
0001_20120216_191015_melville.all.mb58.gz 4.25MB Kongsberg multibeam vendor format
0001_20120216_191515_melville.all.mb58.gz 4.16MB Kongsberg multibeam vendor format
0001_20120216_192015_melville.all.mb58.gz 4.12MB Kongsberg multibeam vendor format
0001_20120216_192515_melville.all.mb58.gz 4.11MB Kongsberg multibeam vendor format
0001_20120216_193015_melville.all.mb58.gz 4.15MB Kongsberg multibeam vendor format
0001_20120216_193515_melville.all.mb58.gz 4.25MB Kongsberg multibeam vendor format
0001_20120216_194015_melville.all.mb58.gz 4.30MB Kongsberg multibeam vendor format
0001_20120216_194515_melville.all.mb58.gz 4.19MB Kongsberg multibeam vendor format
0001_20120216_195015_melville.all.mb58.gz 4.00MB Kongsberg multibeam vendor format
0001_20120216_195515_melville.all.mb58.gz 3.81MB Kongsberg multibeam vendor format
0001_20120216_200015_melville.all.mb58.gz 3.85MB Kongsberg multibeam vendor format
0001_20120216_200515_melville.all.mb58.gz 3.96MB Kongsberg multibeam vendor format
0001_20120216_201015_melville.all.mb58.gz 4.15MB Kongsberg multibeam vendor format
0001_20120216_201515_melville.all.mb58.gz 4.92MB Kongsberg multibeam vendor format
0001_20120216_202015_melville.all.mb58.gz 4.25MB Kongsberg multibeam vendor format
0001_20120216_202515_melville.all.mb58.gz 4.18MB Kongsberg multibeam vendor format
0001_20120216_203015_melville.all.mb58.gz 4.26MB Kongsberg multibeam vendor format
0001_20120216_203515_melville.all.mb58.gz 4.09MB Kongsberg multibeam vendor format
0001_20120216_204015_melville.all.mb58.gz 3.53MB Kongsberg multibeam vendor format
0001_20120216_204515_melville.all.mb58.gz 3.80MB Kongsberg multibeam vendor format
0001_20120216_205015_melville.all.mb58.gz 3.19MB Kongsberg multibeam vendor format
0001_20120216_205515_melville.all.mb58.gz 3.55MB Kongsberg multibeam vendor format
0001_20120216_210015_melville.all.mb58.gz 2.66MB Kongsberg multibeam vendor format
0001_20120216_210515_melville.all.mb58.gz 2.81MB Kongsberg multibeam vendor format
0001_20120216_211015_melville.all.mb58.gz 3.08MB Kongsberg multibeam vendor format
0001_20120216_211515_melville.all.mb58.gz 2.91MB Kongsberg multibeam vendor format
0001_20120216_212015_melville.all.mb58.gz 3.27MB Kongsberg multibeam vendor format
0001_20120216_212515_melville.all.mb58.gz 3.15MB Kongsberg multibeam vendor format
0001_20120216_213015_melville.all.mb58.gz 3.31MB Kongsberg multibeam vendor format
0001_20120216_213515_melville.all.mb58.gz 3.26MB Kongsberg multibeam vendor format
0001_20120216_214015_melville.all.mb58.gz 3.31MB Kongsberg multibeam vendor format
0001_20120216_214515_melville.all.mb58.gz 3.00MB Kongsberg multibeam vendor format
0001_20120216_215015_melville.all.mb58.gz 2.70MB Kongsberg multibeam vendor format
0001_20120216_215515_melville.all.mb58.gz 3.23MB Kongsberg multibeam vendor format
0001_20120216_220015_melville.all.mb58.gz 3.24MB Kongsberg multibeam vendor format
0001_20120216_220515_melville.all.mb58.gz 3.27MB Kongsberg multibeam vendor format
0001_20120216_221015_melville.all.mb58.gz 3.21MB Kongsberg multibeam vendor format
0001_20120216_221515_melville.all.mb58.gz 3.29MB Kongsberg multibeam vendor format
0001_20120216_222015_melville.all.mb58.gz 3.35MB Kongsberg multibeam vendor format
0001_20120216_222515_melville.all.mb58.gz 3.21MB Kongsberg multibeam vendor format
0001_20120216_223015_melville.all.mb58.gz 3.05MB Kongsberg multibeam vendor format
0001_20120216_223515_melville.all.mb58.gz 3.04MB Kongsberg multibeam vendor format
0001_20120216_224015_melville.all.mb58.gz 2.87MB Kongsberg multibeam vendor format
0001_20120216_224515_melville.all.mb58.gz 2.73MB Kongsberg multibeam vendor format
0001_20120216_225015_melville.all.mb58.gz 2.85MB Kongsberg multibeam vendor format
0001_20120216_225516_melville.all.mb58.gz 2.77MB Kongsberg multibeam vendor format
0001_20120216_230016_melville.all.mb58.gz 2.78MB Kongsberg multibeam vendor format
0001_20120216_230516_melville.all.mb58.gz 3.17MB Kongsberg multibeam vendor format
0001_20120216_231016_melville.all.mb58.gz 3.39MB Kongsberg multibeam vendor format
0001_20120216_231516_melville.all.mb58.gz 3.22MB Kongsberg multibeam vendor format
0001_20120216_232016_melville.all.mb58.gz 3.81MB Kongsberg multibeam vendor format
0001_20120216_232516_melville.all.mb58.gz 3.83MB Kongsberg multibeam vendor format
0001_20120216_233016_melville.all.mb58.gz 3.77MB Kongsberg multibeam vendor format
0001_20120216_233516_melville.all.mb58.gz 3.22MB Kongsberg multibeam vendor format
0001_20120216_234016_melville.all.mb58.gz 3.06MB Kongsberg multibeam vendor format
0001_20120216_234516_melville.all.mb58.gz 2.52MB Kongsberg multibeam vendor format
0001_20120216_235016_melville.all.mb58.gz 2.37MB Kongsberg multibeam vendor format
0001_20120216_235516_melville.all.mb58.gz 2.34MB Kongsberg multibeam vendor format
0001_20120217_000016_melville.all.mb58.gz 2.61MB Kongsberg multibeam vendor format
0001_20120217_000516_melville.all.mb58.gz 2.62MB Kongsberg multibeam vendor format
0001_20120217_001016_melville.all.mb58.gz 2.95MB Kongsberg multibeam vendor format
0001_20120217_001516_melville.all.mb58.gz 3.04MB Kongsberg multibeam vendor format
0001_20120217_002016_melville.all.mb58.gz 3.00MB Kongsberg multibeam vendor format
0001_20120217_002516_melville.all.mb58.gz 2.46MB Kongsberg multibeam vendor format
0001_20120217_003016_melville.all.mb58.gz 2.41MB Kongsberg multibeam vendor format
0001_20120217_003516_melville.all.mb58.gz 2.66MB Kongsberg multibeam vendor format
0001_20120217_004016_melville.all.mb58.gz 2.81MB Kongsberg multibeam vendor format
0001_20120217_004516_melville.all.mb58.gz 2.89MB Kongsberg multibeam vendor format
0001_20120217_005016_melville.all.mb58.gz 2.78MB Kongsberg multibeam vendor format
0001_20120217_005516_melville.all.mb58.gz 2.45MB Kongsberg multibeam vendor format
0001_20120217_010016_melville.all.mb58.gz 2.35MB Kongsberg multibeam vendor format
0001_20120217_010516_melville.all.mb58.gz 2.64MB Kongsberg multibeam vendor format
0001_20120217_011016_melville.all.mb58.gz 3.73MB Kongsberg multibeam vendor format
0001_20120217_011516_melville.all.mb58.gz 2.98MB Kongsberg multibeam vendor format
0001_20120217_012016_melville.all.mb58.gz 3.08MB Kongsberg multibeam vendor format
0001_20120217_012516_melville.all.mb58.gz 3.37MB Kongsberg multibeam vendor format
0001_20120217_013016_melville.all.mb58.gz 3.26MB Kongsberg multibeam vendor format
0001_20120217_013516_melville.all.mb58.gz 3.55MB Kongsberg multibeam vendor format
0001_20120217_014016_melville.all.mb58.gz 3.86MB Kongsberg multibeam vendor format
0001_20120217_014516_melville.all.mb58.gz 3.27MB Kongsberg multibeam vendor format
0001_20120217_015016_melville.all.mb58.gz 3.18MB Kongsberg multibeam vendor format
0001_20120217_015516_melville.all.mb58.gz 3.16MB Kongsberg multibeam vendor format
0001_20120217_020016_melville.all.mb58.gz 2.94MB Kongsberg multibeam vendor format
0001_20120217_020516_melville.all.mb58.gz 2.68MB Kongsberg multibeam vendor format
0001_20120217_021016_melville.all.mb58.gz 2.89MB Kongsberg multibeam vendor format
0001_20120217_021516_melville.all.mb58.gz 2.88MB Kongsberg multibeam vendor format
0001_20120217_022016_melville.all.mb58.gz 2.38MB Kongsberg multibeam vendor format
0001_20120217_022516_melville.all.mb58.gz 2.13MB Kongsberg multibeam vendor format
0001_20120217_023016_melville.all.mb58.gz 2.50MB Kongsberg multibeam vendor format
0001_20120217_023516_melville.all.mb58.gz 3.41MB Kongsberg multibeam vendor format
0001_20120217_024016_melville.all.mb58.gz 4.62MB Kongsberg multibeam vendor format
0001_20120217_024516_melville.all.mb58.gz 5.12MB Kongsberg multibeam vendor format
0001_20120217_025016_melville.all.mb58.gz 5.17MB Kongsberg multibeam vendor format
0001_20120217_025516_melville.all.mb58.gz 5.25MB Kongsberg multibeam vendor format
0001_20120217_030016_melville.all.mb58.gz 5.23MB Kongsberg multibeam vendor format
0001_20120217_030516_melville.all.mb58.gz 5.18MB Kongsberg multibeam vendor format
0001_20120217_031016_melville.all.mb58.gz 5.41MB Kongsberg multibeam vendor format
0001_20120217_031516_melville.all.mb58.gz 5.28MB Kongsberg multibeam vendor format
0001_20120217_032016_melville.all.mb58.gz 5.32MB Kongsberg multibeam vendor format
0001_20120217_032516_melville.all.mb58.gz 5.23MB Kongsberg multibeam vendor format
0001_20120217_033016_melville.all.mb58.gz 4.79MB Kongsberg multibeam vendor format
0001_20120217_033516_melville.all.mb58.gz 4.12MB Kongsberg multibeam vendor format
0001_20120217_034016_melville.all.mb58.gz 4.24MB Kongsberg multibeam vendor format
0001_20120217_034516_melville.all.mb58.gz 4.02MB Kongsberg multibeam vendor format
0001_20120217_035016_melville.all.mb58.gz 3.92MB Kongsberg multibeam vendor format
0001_20120217_035516_melville.all.mb58.gz 4.00MB Kongsberg multibeam vendor format
0001_20120217_040016_melville.all.mb58.gz 3.92MB Kongsberg multibeam vendor format
0001_20120217_040516_melville.all.mb58.gz 4.08MB Kongsberg multibeam vendor format
0001_20120217_041016_melville.all.mb58.gz 3.98MB Kongsberg multibeam vendor format
0001_20120217_041516_melville.all.mb58.gz 3.84MB Kongsberg multibeam vendor format
0001_20120217_042016_melville.all.mb58.gz 3.83MB Kongsberg multibeam vendor format
0001_20120217_042516_melville.all.mb58.gz 3.98MB Kongsberg multibeam vendor format
0001_20120217_043016_melville.all.mb58.gz 3.62MB Kongsberg multibeam vendor format
0001_20120217_043516_melville.all.mb58.gz 3.49MB Kongsberg multibeam vendor format
0001_20120217_044016_melville.all.mb58.gz 2.44MB Kongsberg multibeam vendor format
0001_20120217_044516_melville.all.mb58.gz 2.68MB Kongsberg multibeam vendor format
0001_20120217_045016_melville.all.mb58.gz 2.39MB Kongsberg multibeam vendor format
0001_20120217_045516_melville.all.mb58.gz 2.28MB Kongsberg multibeam vendor format
0001_20120217_050017_melville.all.mb58.gz 2.67MB Kongsberg multibeam vendor format
0001_20120217_050517_melville.all.mb58.gz 2.81MB Kongsberg multibeam vendor format
0001_20120217_051017_melville.all.mb58.gz 2.85MB Kongsberg multibeam vendor format
0001_20120217_051517_melville.all.mb58.gz 2.70MB Kongsberg multibeam vendor format
0001_20120217_052017_melville.all.mb58.gz 2.82MB Kongsberg multibeam vendor format
0001_20120217_052517_melville.all.mb58.gz 3.14MB Kongsberg multibeam vendor format
0001_20120217_053017_melville.all.mb58.gz 3.42MB Kongsberg multibeam vendor format
0001_20120217_053517_melville.all.mb58.gz 2.96MB Kongsberg multibeam vendor format
0001_20120217_054017_melville.all.mb58.gz 3.02MB Kongsberg multibeam vendor format
0001_20120217_054517_melville.all.mb58.gz 2.73MB Kongsberg multibeam vendor format
0001_20120217_055017_melville.all.mb58.gz 2.68MB Kongsberg multibeam vendor format
0001_20120217_055517_melville.all.mb58.gz 2.97MB Kongsberg multibeam vendor format
0001_20120217_060017_melville.all.mb58.gz 3.18MB Kongsberg multibeam vendor format
0001_20120217_060517_melville.all.mb58.gz 3.21MB Kongsberg multibeam vendor format
0001_20120217_061017_melville.all.mb58.gz 3.15MB Kongsberg multibeam vendor format
0001_20120217_061517_melville.all.mb58.gz 3.09MB Kongsberg multibeam vendor format
0001_20120217_062017_melville.all.mb58.gz 3.28MB Kongsberg multibeam vendor format
0001_20120217_062517_melville.all.mb58.gz 3.27MB Kongsberg multibeam vendor format
0001_20120217_063017_melville.all.mb58.gz 3.00MB Kongsberg multibeam vendor format
0001_20120217_063517_melville.all.mb58.gz 3.86MB Kongsberg multibeam vendor format
0001_20120217_064017_melville.all.mb58.gz 3.96MB Kongsberg multibeam vendor format
0001_20120217_064517_melville.all.mb58.gz 3.03MB Kongsberg multibeam vendor format
0001_20120217_065017_melville.all.mb58.gz 2.98MB Kongsberg multibeam vendor format
0001_20120217_065517_melville.all.mb58.gz 2.47MB Kongsberg multibeam vendor format
0001_20120217_070017_melville.all.mb58.gz 2.51MB Kongsberg multibeam vendor format
0001_20120217_070517_melville.all.mb58.gz 3.90MB Kongsberg multibeam vendor format
0001_20120217_071017_melville.all.mb58.gz 4.64MB Kongsberg multibeam vendor format
0001_20120217_071517_melville.all.mb58.gz 5.15MB Kongsberg multibeam vendor format
0001_20120217_072017_melville.all.mb58.gz 5.24MB Kongsberg multibeam vendor format
0001_20120217_072517_melville.all.mb58.gz 5.06MB Kongsberg multibeam vendor format
0001_20120217_073017_melville.all.mb58.gz 5.29MB Kongsberg multibeam vendor format
0001_20120217_073517_melville.all.mb58.gz 5.22MB Kongsberg multibeam vendor format
0001_20120217_074017_melville.all.mb58.gz 5.29MB Kongsberg multibeam vendor format
0001_20120217_074517_melville.all.mb58.gz 5.39MB Kongsberg multibeam vendor format
0001_20120217_075017_melville.all.mb58.gz 5.38MB Kongsberg multibeam vendor format
0001_20120217_075517_melville.all.mb58.gz 5.43MB Kongsberg multibeam vendor format
0001_20120217_080017_melville.all.mb58.gz 5.36MB Kongsberg multibeam vendor format
0001_20120217_080517_melville.all.mb58.gz 5.27MB Kongsberg multibeam vendor format
0001_20120217_081017_melville.all.mb58.gz 5.31MB Kongsberg multibeam vendor format
0001_20120217_081517_melville.all.mb58.gz 5.51MB Kongsberg multibeam vendor format
0001_20120217_082017_melville.all.mb58.gz 5.23MB Kongsberg multibeam vendor format
0001_20120217_082517_melville.all.mb58.gz 5.30MB Kongsberg multibeam vendor format
0001_20120217_083017_melville.all.mb58.gz 5.22MB Kongsberg multibeam vendor format
0001_20120217_083517_melville.all.mb58.gz 5.15MB Kongsberg multibeam vendor format
0001_20120217_084017_melville.all.mb58.gz 5.18MB Kongsberg multibeam vendor format
0001_20120217_084517_melville.all.mb58.gz 5.18MB Kongsberg multibeam vendor format
0001_20120217_085017_melville.all.mb58.gz 5.08MB Kongsberg multibeam vendor format
0001_20120217_085517_melville.all.mb58.gz 5.03MB Kongsberg multibeam vendor format
0001_20120217_090017_melville.all.mb58.gz 4.99MB Kongsberg multibeam vendor format
0001_20120217_090517_melville.all.mb58.gz 5.04MB Kongsberg multibeam vendor format
0001_20120217_091017_melville.all.mb58.gz 4.10MB Kongsberg multibeam vendor format
0001_20120217_091517_melville.all.mb58.gz 3.92MB Kongsberg multibeam vendor format
0001_20120217_092017_melville.all.mb58.gz 3.65MB Kongsberg multibeam vendor format
0001_20120217_092517_melville.all.mb58.gz 3.02MB Kongsberg multibeam vendor format
0001_20120217_093017_melville.all.mb58.gz 2.98MB Kongsberg multibeam vendor format
0001_20120217_093517_melville.all.mb58.gz 2.96MB Kongsberg multibeam vendor format
0001_20120217_094017_melville.all.mb58.gz 2.80MB Kongsberg multibeam vendor format
0001_20120217_094517_melville.all.mb58.gz 2.71MB Kongsberg multibeam vendor format
0001_20120217_095017_melville.all.mb58.gz 2.69MB Kongsberg multibeam vendor format
0001_20120217_095517_melville.all.mb58.gz 2.76MB Kongsberg multibeam vendor format
0001_20120217_100017_melville.all.mb58.gz 2.56MB Kongsberg multibeam vendor format
0001_20120217_100517_melville.all.mb58.gz 2.58MB Kongsberg multibeam vendor format
0001_20120217_101017_melville.all.mb58.gz 2.50MB Kongsberg multibeam vendor format
0001_20120217_101517_melville.all.mb58.gz 2.68MB Kongsberg multibeam vendor format
0001_20120217_102017_melville.all.mb58.gz 2.69MB Kongsberg multibeam vendor format
0001_20120217_102517_melville.all.mb58.gz 2.79MB Kongsberg multibeam vendor format
0001_20120217_103017_melville.all.mb58.gz 2.73MB Kongsberg multibeam vendor format
0001_20120217_103517_melville.all.mb58.gz 2.89MB Kongsberg multibeam vendor format
0001_20120217_104017_melville.all.mb58.gz 2.48MB Kongsberg multibeam vendor format
0001_20120217_104517_melville.all.mb58.gz 2.35MB Kongsberg multibeam vendor format
0001_20120217_105017_melville.all.mb58.gz 2.54MB Kongsberg multibeam vendor format
0001_20120217_105517_melville.all.mb58.gz 2.69MB Kongsberg multibeam vendor format
0001_20120217_110018_melville.all.mb58.gz 2.71MB Kongsberg multibeam vendor format
0001_20120217_110518_melville.all.mb58.gz 2.70MB Kongsberg multibeam vendor format
0001_20120217_111018_melville.all.mb58.gz 2.63MB Kongsberg multibeam vendor format
0001_20120217_111518_melville.all.mb58.gz 2.82MB Kongsberg multibeam vendor format
0001_20120217_112018_melville.all.mb58.gz 2.60MB Kongsberg multibeam vendor format
0001_20120217_112518_melville.all.mb58.gz 2.96MB Kongsberg multibeam vendor format
0001_20120217_113018_melville.all.mb58.gz 3.14MB Kongsberg multibeam vendor format
0001_20120217_113518_melville.all.mb58.gz 3.22MB Kongsberg multibeam vendor format
0001_20120217_114018_melville.all.mb58.gz 3.24MB Kongsberg multibeam vendor format
0001_20120217_114518_melville.all.mb58.gz 3.11MB Kongsberg multibeam vendor format
0001_20120217_115018_melville.all.mb58.gz 3.17MB Kongsberg multibeam vendor format
0001_20120217_115518_melville.all.mb58.gz 3.12MB Kongsberg multibeam vendor format
0001_20120217_120018_melville.all.mb58.gz 3.22MB Kongsberg multibeam vendor format
0001_20120217_120518_melville.all.mb58.gz 3.23MB Kongsberg multibeam vendor format
0001_20120217_121018_melville.all.mb58.gz 3.16MB Kongsberg multibeam vendor format
0001_20120217_121518_melville.all.mb58.gz 3.32MB Kongsberg multibeam vendor format
0001_20120217_122018_melville.all.mb58.gz 3.18MB Kongsberg multibeam vendor format
0001_20120217_122518_melville.all.mb58.gz 3.23MB Kongsberg multibeam vendor format
0001_20120217_123018_melville.all.mb58.gz 3.21MB Kongsberg multibeam vendor format
0001_20120217_123518_melville.all.mb58.gz 3.29MB Kongsberg multibeam vendor format
0001_20120217_124018_melville.all.mb58.gz 3.26MB Kongsberg multibeam vendor format
0001_20120217_124518_melville.all.mb58.gz 3.30MB Kongsberg multibeam vendor format
0001_20120217_125018_melville.all.mb58.gz 3.30MB Kongsberg multibeam vendor format
0001_20120217_125518_melville.all.mb58.gz 3.42MB Kongsberg multibeam vendor format
0001_20120217_130018_melville.all.mb58.gz 3.65MB Kongsberg multibeam vendor format
0001_20120217_130518_melville.all.mb58.gz 3.72MB Kongsberg multibeam vendor format
0001_20120217_131018_melville.all.mb58.gz 3.75MB Kongsberg multibeam vendor format
0001_20120217_131518_melville.all.mb58.gz 3.81MB Kongsberg multibeam vendor format
0001_20120217_132018_melville.all.mb58.gz 3.75MB Kongsberg multibeam vendor format
0001_20120217_132518_melville.all.mb58.gz 3.77MB Kongsberg multibeam vendor format
0001_20120217_133018_melville.all.mb58.gz 3.80MB Kongsberg multibeam vendor format
0001_20120217_133518_melville.all.mb58.gz 3.82MB Kongsberg multibeam vendor format
0001_20120217_134018_melville.all.mb58.gz 3.91MB Kongsberg multibeam vendor format
0001_20120217_134518_melville.all.mb58.gz 4.04MB Kongsberg multibeam vendor format
0001_20120217_135018_melville.all.mb58.gz 3.99MB Kongsberg multibeam vendor format
0001_20120217_135518_melville.all.mb58.gz 3.99MB Kongsberg multibeam vendor format
0001_20120217_140018_melville.all.mb58.gz 3.99MB Kongsberg multibeam vendor format
0001_20120217_140518_melville.all.mb58.gz 4.01MB Kongsberg multibeam vendor format
0001_20120217_141018_melville.all.mb58.gz 4.00MB Kongsberg multibeam vendor format
0001_20120217_141518_melville.all.mb58.gz 4.02MB Kongsberg multibeam vendor format
0001_20120217_142018_melville.all.mb58.gz 4.00MB Kongsberg multibeam vendor format
0001_20120217_142518_melville.all.mb58.gz 4.01MB Kongsberg multibeam vendor format
0001_20120217_143018_melville.all.mb58.gz 3.99MB Kongsberg multibeam vendor format
0001_20120217_143518_melville.all.mb58.gz 4.00MB Kongsberg multibeam vendor format
0001_20120217_144018_melville.all.mb58.gz 4.09MB Kongsberg multibeam vendor format
0001_20120217_144518_melville.all.mb58.gz 4.00MB Kongsberg multibeam vendor format
0001_20120217_145018_melville.all.mb58.gz 4.00MB Kongsberg multibeam vendor format
0001_20120217_145518_melville.all.mb58.gz 4.08MB Kongsberg multibeam vendor format
0001_20120217_150018_melville.all.mb58.gz 4.07MB Kongsberg multibeam vendor format
0001_20120217_150518_melville.all.mb58.gz 3.99MB Kongsberg multibeam vendor format
0001_20120217_151018_melville.all.mb58.gz 4.04MB Kongsberg multibeam vendor format
0001_20120217_151518_melville.all.mb58.gz 3.97MB Kongsberg multibeam vendor format
0001_20120217_152018_melville.all.mb58.gz 4.10MB Kongsberg multibeam vendor format
0001_20120217_152518_melville.all.mb58.gz 3.93MB Kongsberg multibeam vendor format
0001_20120217_153018_melville.all.mb58.gz 4.16MB Kongsberg multibeam vendor format
0001_20120217_153518_melville.all.mb58.gz 3.02MB Kongsberg multibeam vendor format
0001_20120217_154018_melville.all.mb58.gz 2.66MB Kongsberg multibeam vendor format
0001_20120217_154518_melville.all.mb58.gz 2.99MB Kongsberg multibeam vendor format
0001_20120217_155018_melville.all.mb58.gz 3.24MB Kongsberg multibeam vendor format
0001_20120217_155518_melville.all.mb58.gz 5.62MB Kongsberg multibeam vendor format
0001_20120217_160018_melville.all.mb58.gz 5.46MB Kongsberg multibeam vendor format
0001_20120217_160518_melville.all.mb58.gz 5.36MB Kongsberg multibeam vendor format
0001_20120217_161018_melville.all.mb58.gz 5.60MB Kongsberg multibeam vendor format
0001_20120217_161518_melville.all.mb58.gz 5.60MB Kongsberg multibeam vendor format
0001_20120217_162018_melville.all.mb58.gz 5.64MB Kongsberg multibeam vendor format
0001_20120217_162518_melville.all.mb58.gz 5.66MB Kongsberg multibeam vendor format
0001_20120217_163018_melville.all.mb58.gz 5.59MB Kongsberg multibeam vendor format
0001_20120217_163518_melville.all.mb58.gz 5.64MB Kongsberg multibeam vendor format
0001_20120217_164018_melville.all.mb58.gz 5.67MB Kongsberg multibeam vendor format
0001_20120217_164518_melville.all.mb58.gz 5.63MB Kongsberg multibeam vendor format
0001_20120217_165018_melville.all.mb58.gz 5.60MB Kongsberg multibeam vendor format
0001_20120217_165518_melville.all.mb58.gz 5.58MB Kongsberg multibeam vendor format
0001_20120217_170018_melville.all.mb58.gz 5.54MB Kongsberg multibeam vendor format
0001_20120217_170519_melville.all.mb58.gz 5.59MB Kongsberg multibeam vendor format
0001_20120217_171019_melville.all.mb58.gz 5.52MB Kongsberg multibeam vendor format
0001_20120217_171519_melville.all.mb58.gz 5.39MB Kongsberg multibeam vendor format
0001_20120217_172019_melville.all.mb58.gz 5.51MB Kongsberg multibeam vendor format
0001_20120217_172519_melville.all.mb58.gz 5.20MB Kongsberg multibeam vendor format
0001_20120217_173019_melville.all.mb58.gz 4.31MB Kongsberg multibeam vendor format
0001_20120217_173519_melville.all.mb58.gz 4.00MB Kongsberg multibeam vendor format
0001_20120217_174019_melville.all.mb58.gz 3.81MB Kongsberg multibeam vendor format
0001_20120217_174519_melville.all.mb58.gz 3.43MB Kongsberg multibeam vendor format
0001_20120217_175019_melville.all.mb58.gz 3.31MB Kongsberg multibeam vendor format
0001_20120217_175519_melville.all.mb58.gz 3.46MB Kongsberg multibeam vendor format
0001_20120217_180019_melville.all.mb58.gz 3.60MB Kongsberg multibeam vendor format
0001_20120217_180519_melville.all.mb58.gz 3.42MB Kongsberg multibeam vendor format
0001_20120217_181019_melville.all.mb58.gz 3.13MB Kongsberg multibeam vendor format
0001_20120217_181519_melville.all.mb58.gz 2.94MB Kongsberg multibeam vendor format
0001_20120217_182019_melville.all.mb58.gz 3.21MB Kongsberg multibeam vendor format
0001_20120217_182519_melville.all.mb58.gz 3.59MB Kongsberg multibeam vendor format
0001_20120217_183019_melville.all.mb58.gz 3.39MB Kongsberg multibeam vendor format
0001_20120217_183519_melville.all.mb58.gz 3.42MB Kongsberg multibeam vendor format
0001_20120217_184019_melville.all.mb58.gz 3.43MB Kongsberg multibeam vendor format
0001_20120217_184519_melville.all.mb58.gz 3.31MB Kongsberg multibeam vendor format
0001_20120217_185019_melville.all.mb58.gz 3.19MB Kongsberg multibeam vendor format
0001_20120217_185519_melville.all.mb58.gz 3.34MB Kongsberg multibeam vendor format
0001_20120217_190019_melville.all.mb58.gz 3.42MB Kongsberg multibeam vendor format
0001_20120217_190519_melville.all.mb58.gz 3.14MB Kongsberg multibeam vendor format
0001_20120217_191019_melville.all.mb58.gz 3.26MB Kongsberg multibeam vendor format
0001_20120217_191519_melville.all.mb58.gz 3.03MB Kongsberg multibeam vendor format
0001_20120217_192019_melville.all.mb58.gz 2.98MB Kongsberg multibeam vendor format
0001_20120217_192519_melville.all.mb58.gz 2.98MB Kongsberg multibeam vendor format
0001_20120217_193019_melville.all.mb58.gz 2.97MB Kongsberg multibeam vendor format
0001_20120217_193519_melville.all.mb58.gz 2.75MB Kongsberg multibeam vendor format
0001_20120217_194019_melville.all.mb58.gz 2.94MB Kongsberg multibeam vendor format
0001_20120217_194519_melville.all.mb58.gz 3.07MB Kongsberg multibeam vendor format
0001_20120217_195019_melville.all.mb58.gz 3.12MB Kongsberg multibeam vendor format
0001_20120217_195519_melville.all.mb58.gz 2.77MB Kongsberg multibeam vendor format
0001_20120217_200019_melville.all.mb58.gz 2.89MB Kongsberg multibeam vendor format
0001_20120217_200519_melville.all.mb58.gz 2.86MB Kongsberg multibeam vendor format
0001_20120217_201019_melville.all.mb58.gz 3.01MB Kongsberg multibeam vendor format
0001_20120217_201519_melville.all.mb58.gz 2.77MB Kongsberg multibeam vendor format
0001_20120217_202019_melville.all.mb58.gz 2.50MB Kongsberg multibeam vendor format
0001_20120217_202519_melville.all.mb58.gz 2.33MB Kongsberg multibeam vendor format
0001_20120217_203019_melville.all.mb58.gz 2.60MB Kongsberg multibeam vendor format
0001_20120217_203519_melville.all.mb58.gz 2.68MB Kongsberg multibeam vendor format
0001_20120217_204019_melville.all.mb58.gz 3.08MB Kongsberg multibeam vendor format
0001_20120217_204519_melville.all.mb58.gz 2.83MB Kongsberg multibeam vendor format
0001_20120217_205019_melville.all.mb58.gz 2.62MB Kongsberg multibeam vendor format
0001_20120217_205519_melville.all.mb58.gz 2.61MB Kongsberg multibeam vendor format
0001_20120217_210019_melville.all.mb58.gz 2.05MB Kongsberg multibeam vendor format
0001_20120217_210519_melville.all.mb58.gz 2.38MB Kongsberg multibeam vendor format
0001_20120217_211019_melville.all.mb58.gz 2.56MB Kongsberg multibeam vendor format
0001_20120217_211519_melville.all.mb58.gz 2.63MB Kongsberg multibeam vendor format
0001_20120217_212019_melville.all.mb58.gz 2.70MB Kongsberg multibeam vendor format
0001_20120217_212519_melville.all.mb58.gz 2.95MB Kongsberg multibeam vendor format
0001_20120217_213019_melville.all.mb58.gz 3.11MB Kongsberg multibeam vendor format
0001_20120217_213519_melville.all.mb58.gz 3.20MB Kongsberg multibeam vendor format
0001_20120217_214019_melville.all.mb58.gz 3.12MB Kongsberg multibeam vendor format
0001_20120217_214519_melville.all.mb58.gz 3.30MB Kongsberg multibeam vendor format
0001_20120217_215019_melville.all.mb58.gz 3.13MB Kongsberg multibeam vendor format
0001_20120217_215519_melville.all.mb58.gz 3.28MB Kongsberg multibeam vendor format
0001_20120217_220019_melville.all.mb58.gz 3.39MB Kongsberg multibeam vendor format
0001_20120217_220519_melville.all.mb58.gz 3.38MB Kongsberg multibeam vendor format
0001_20120217_221019_melville.all.mb58.gz 3.77MB Kongsberg multibeam vendor format
0001_20120217_221519_melville.all.mb58.gz 3.76MB Kongsberg multibeam vendor format
0001_20120217_222019_melville.all.mb58.gz 3.84MB Kongsberg multibeam vendor format
0001_20120217_222519_melville.all.mb58.gz 3.89MB Kongsberg multibeam vendor format
0001_20120217_223019_melville.all.mb58.gz 4.00MB Kongsberg multibeam vendor format
0001_20120217_223519_melville.all.mb58.gz 3.93MB Kongsberg multibeam vendor format
0001_20120217_224019_melville.all.mb58.gz 3.95MB Kongsberg multibeam vendor format
0001_20120217_224519_melville.all.mb58.gz 3.99MB Kongsberg multibeam vendor format
0001_20120217_225019_melville.all.mb58.gz 3.93MB Kongsberg multibeam vendor format
0001_20120217_225519_melville.all.mb58.gz 4.02MB Kongsberg multibeam vendor format
0001_20120217_230019_melville.all.mb58.gz 3.97MB Kongsberg multibeam vendor format
0001_20120217_230520_melville.all.mb58.gz 3.84MB Kongsberg multibeam vendor format
0001_20120217_231020_melville.all.mb58.gz 4.05MB Kongsberg multibeam vendor format
0001_20120217_231520_melville.all.mb58.gz 3.93MB Kongsberg multibeam vendor format
0001_20120217_232020_melville.all.mb58.gz 4.06MB Kongsberg multibeam vendor format
0001_20120217_232520_melville.all.mb58.gz 4.08MB Kongsberg multibeam vendor format
0001_20120217_233020_melville.all.mb58.gz 4.03MB Kongsberg multibeam vendor format
0001_20120217_233520_melville.all.mb58.gz 4.09MB Kongsberg multibeam vendor format
0001_20120217_234020_melville.all.mb58.gz 4.04MB Kongsberg multibeam vendor format
0001_20120217_234520_melville.all.mb58.gz 3.88MB Kongsberg multibeam vendor format
0001_20120217_235020_melville.all.mb58.gz 4.00MB Kongsberg multibeam vendor format
0001_20120217_235520_melville.all.mb58.gz 3.85MB Kongsberg multibeam vendor format
0001_20120218_000020_melville.all.mb58.gz 3.86MB Kongsberg multibeam vendor format
0001_20120218_000520_melville.all.mb58.gz 4.30MB Kongsberg multibeam vendor format
0001_20120218_001020_melville.all.mb58.gz 4.90MB Kongsberg multibeam vendor format
0001_20120218_001520_melville.all.mb58.gz 5.46MB Kongsberg multibeam vendor format
0001_20120218_002020_melville.all.mb58.gz 5.53MB Kongsberg multibeam vendor format
0001_20120218_002520_melville.all.mb58.gz 5.46MB Kongsberg multibeam vendor format
0001_20120218_003020_melville.all.mb58.gz 5.56MB Kongsberg multibeam vendor format
0001_20120218_003520_melville.all.mb58.gz 5.40MB Kongsberg multibeam vendor format
0001_20120218_004020_melville.all.mb58.gz 5.44MB Kongsberg multibeam vendor format
0001_20120218_004520_melville.all.mb58.gz 5.25MB Kongsberg multibeam vendor format
0001_20120218_005020_melville.all.mb58.gz 4.52MB Kongsberg multibeam vendor format
0001_20120218_005520_melville.all.mb58.gz 4.17MB Kongsberg multibeam vendor format
0001_20120218_010020_melville.all.mb58.gz 4.24MB Kongsberg multibeam vendor format
0001_20120218_010520_melville.all.mb58.gz 4.28MB Kongsberg multibeam vendor format
0001_20120218_011020_melville.all.mb58.gz 4.22MB Kongsberg multibeam vendor format
0001_20120218_011520_melville.all.mb58.gz 4.12MB Kongsberg multibeam vendor format
0001_20120218_012020_melville.all.mb58.gz 3.98MB Kongsberg multibeam vendor format
0001_20120218_012520_melville.all.mb58.gz 3.96MB Kongsberg multibeam vendor format
0001_20120218_013020_melville.all.mb58.gz 3.62MB Kongsberg multibeam vendor format
0001_20120218_013520_melville.all.mb58.gz 3.49MB Kongsberg multibeam vendor format
0001_20120218_014020_melville.all.mb58.gz 3.44MB Kongsberg multibeam vendor format
0001_20120218_014520_melville.all.mb58.gz 3.33MB Kongsberg multibeam vendor format
0001_20120218_015020_melville.all.mb58.gz 3.11MB Kongsberg multibeam vendor format
0001_20120218_015520_melville.all.mb58.gz 2.97MB Kongsberg multibeam vendor format
0001_20120218_020020_melville.all.mb58.gz 2.71MB Kongsberg multibeam vendor format
0001_20120218_020520_melville.all.mb58.gz 2.52MB Kongsberg multibeam vendor format
0001_20120218_021020_melville.all.mb58.gz 2.54MB Kongsberg multibeam vendor format
0001_20120218_021520_melville.all.mb58.gz 2.37MB Kongsberg multibeam vendor format
0001_20120218_022020_melville.all.mb58.gz 2.31MB Kongsberg multibeam vendor format
0001_20120218_022520_melville.all.mb58.gz 2.74MB Kongsberg multibeam vendor format
0001_20120218_023020_melville.all.mb58.gz 2.89MB Kongsberg multibeam vendor format
0001_20120218_023520_melville.all.mb58.gz 2.51MB Kongsberg multibeam vendor format
0001_20120218_024020_melville.all.mb58.gz 2.22MB Kongsberg multibeam vendor format
0001_20120218_024520_melville.all.mb58.gz 2.53MB Kongsberg multibeam vendor format
0001_20120218_025020_melville.all.mb58.gz 3.09MB Kongsberg multibeam vendor format
0001_20120218_025520_melville.all.mb58.gz 3.34MB Kongsberg multibeam vendor format
0001_20120218_030020_melville.all.mb58.gz 3.59MB Kongsberg multibeam vendor format
0001_20120218_030520_melville.all.mb58.gz 3.21MB Kongsberg multibeam vendor format
0001_20120218_031020_melville.all.mb58.gz 3.11MB Kongsberg multibeam vendor format
0001_20120218_031520_melville.all.mb58.gz 2.78MB Kongsberg multibeam vendor format
0001_20120218_032020_melville.all.mb58.gz 3.37MB Kongsberg multibeam vendor format
0001_20120218_032520_melville.all.mb58.gz 3.78MB Kongsberg multibeam vendor format
0001_20120218_033020_melville.all.mb58.gz 3.02MB Kongsberg multibeam vendor format
0001_20120218_033520_melville.all.mb58.gz 2.89MB Kongsberg multibeam vendor format
0001_20120218_034020_melville.all.mb58.gz 2.67MB Kongsberg multibeam vendor format
0001_20120218_034520_melville.all.mb58.gz 2.70MB Kongsberg multibeam vendor format
0001_20120218_035020_melville.all.mb58.gz 2.21MB Kongsberg multibeam vendor format
0001_20120218_035520_melville.all.mb58.gz 2.35MB Kongsberg multibeam vendor format
0001_20120218_040020_melville.all.mb58.gz 2.30MB Kongsberg multibeam vendor format
0001_20120218_040520_melville.all.mb58.gz 2.46MB Kongsberg multibeam vendor format
0001_20120218_041020_melville.all.mb58.gz 2.55MB Kongsberg multibeam vendor format
0001_20120218_041520_melville.all.mb58.gz 2.47MB Kongsberg multibeam vendor format
0001_20120218_042020_melville.all.mb58.gz 2.62MB Kongsberg multibeam vendor format
0001_20120218_042520_melville.all.mb58.gz 2.57MB Kongsberg multibeam vendor format
0001_20120218_043020_melville.all.mb58.gz 2.44MB Kongsberg multibeam vendor format
0001_20120218_043520_melville.all.mb58.gz 2.61MB Kongsberg multibeam vendor format
0001_20120218_044020_melville.all.mb58.gz 2.49MB Kongsberg multibeam vendor format
0001_20120218_044520_melville.all.mb58.gz 2.36MB Kongsberg multibeam vendor format
0001_20120218_045020_melville.all.mb58.gz 2.07MB Kongsberg multibeam vendor format
0001_20120218_045520_melville.all.mb58.gz 2.14MB Kongsberg multibeam vendor format
0001_20120218_050020_melville.all.mb58.gz 2.05MB Kongsberg multibeam vendor format
0001_20120218_050520_melville.all.mb58.gz 2.03MB Kongsberg multibeam vendor format
0001_20120218_051021_melville.all.mb58.gz 1.97MB Kongsberg multibeam vendor format
0001_20120218_051521_melville.all.mb58.gz 2.03MB Kongsberg multibeam vendor format
0001_20120218_052021_melville.all.mb58.gz 2.13MB Kongsberg multibeam vendor format
0001_20120218_052521_melville.all.mb58.gz 2.26MB Kongsberg multibeam vendor format
0001_20120218_053021_melville.all.mb58.gz 2.32MB Kongsberg multibeam vendor format
0001_20120218_053521_melville.all.mb58.gz 2.51MB Kongsberg multibeam vendor format
0001_20120218_054021_melville.all.mb58.gz 2.55MB Kongsberg multibeam vendor format
0001_20120218_054521_melville.all.mb58.gz 2.16MB Kongsberg multibeam vendor format
0001_20120218_055021_melville.all.mb58.gz 2.24MB Kongsberg multibeam vendor format
0001_20120218_055521_melville.all.mb58.gz 2.35MB Kongsberg multibeam vendor format
0001_20120218_060021_melville.all.mb58.gz 2.45MB Kongsberg multibeam vendor format
0001_20120218_060521_melville.all.mb58.gz 2.39MB Kongsberg multibeam vendor format
0001_20120218_061021_melville.all.mb58.gz 2.37MB Kongsberg multibeam vendor format
0001_20120218_061521_melville.all.mb58.gz 2.53MB Kongsberg multibeam vendor format
0001_20120218_062021_melville.all.mb58.gz 2.32MB Kongsberg multibeam vendor format
0001_20120218_062521_melville.all.mb58.gz 2.61MB Kongsberg multibeam vendor format
0001_20120218_063021_melville.all.mb58.gz 2.72MB Kongsberg multibeam vendor format
0001_20120218_063521_melville.all.mb58.gz 2.63MB Kongsberg multibeam vendor format
0001_20120218_064021_melville.all.mb58.gz 2.69MB Kongsberg multibeam vendor format
0001_20120218_064521_melville.all.mb58.gz 2.67MB Kongsberg multibeam vendor format
0001_20120218_065021_melville.all.mb58.gz 2.82MB Kongsberg multibeam vendor format
0001_20120218_065521_melville.all.mb58.gz 2.95MB Kongsberg multibeam vendor format
0001_20120218_070021_melville.all.mb58.gz 2.80MB Kongsberg multibeam vendor format
0001_20120218_070521_melville.all.mb58.gz 2.81MB Kongsberg multibeam vendor format
0001_20120218_071021_melville.all.mb58.gz 2.97MB Kongsberg multibeam vendor format
0001_20120218_071521_melville.all.mb58.gz 2.89MB Kongsberg multibeam vendor format
0001_20120218_072021_melville.all.mb58.gz 3.01MB Kongsberg multibeam vendor format
0001_20120218_072521_melville.all.mb58.gz 2.90MB Kongsberg multibeam vendor format
0001_20120218_073021_melville.all.mb58.gz 2.98MB Kongsberg multibeam vendor format
0001_20120218_073521_melville.all.mb58.gz 2.89MB Kongsberg multibeam vendor format
0001_20120218_074021_melville.all.mb58.gz 2.98MB Kongsberg multibeam vendor format
0001_20120218_074521_melville.all.mb58.gz 2.91MB Kongsberg multibeam vendor format
0001_20120218_075021_melville.all.mb58.gz 2.99MB Kongsberg multibeam vendor format
0001_20120218_075521_melville.all.mb58.gz 2.88MB Kongsberg multibeam vendor format
0001_20120218_080021_melville.all.mb58.gz 3.01MB Kongsberg multibeam vendor format
0001_20120218_080521_melville.all.mb58.gz 2.89MB Kongsberg multibeam vendor format
0001_20120218_081021_melville.all.mb58.gz 2.99MB Kongsberg multibeam vendor format
0001_20120218_081521_melville.all.mb58.gz 2.87MB Kongsberg multibeam vendor format
0001_20120218_082021_melville.all.mb58.gz 3.02MB Kongsberg multibeam vendor format
0001_20120218_082521_melville.all.mb58.gz 2.89MB Kongsberg multibeam vendor format
0001_20120218_083021_melville.all.mb58.gz 2.75MB Kongsberg multibeam vendor format
0001_20120218_083521_melville.all.mb58.gz 2.63MB Kongsberg multibeam vendor format
0001_20120218_084021_melville.all.mb58.gz 2.60MB Kongsberg multibeam vendor format
0001_20120218_084521_melville.all.mb58.gz 2.47MB Kongsberg multibeam vendor format
0001_20120218_085021_melville.all.mb58.gz 2.59MB Kongsberg multibeam vendor format
0001_20120218_085521_melville.all.mb58.gz 2.47MB Kongsberg multibeam vendor format
0001_20120218_090021_melville.all.mb58.gz 2.46MB Kongsberg multibeam vendor format
0001_20120218_090521_melville.all.mb58.gz 2.55MB Kongsberg multibeam vendor format
0001_20120218_091021_melville.all.mb58.gz 2.45MB Kongsberg multibeam vendor format
0001_20120218_091521_melville.all.mb58.gz 2.44MB Kongsberg multibeam vendor format
0001_20120218_092021_melville.all.mb58.gz 2.35MB Kongsberg multibeam vendor format
0001_20120218_092521_melville.all.mb58.gz 2.48MB Kongsberg multibeam vendor format
0001_20120218_093021_melville.all.mb58.gz 2.59MB Kongsberg multibeam vendor format
0001_20120218_093521_melville.all.mb58.gz 2.46MB Kongsberg multibeam vendor format
0001_20120218_094021_melville.all.mb58.gz 2.47MB Kongsberg multibeam vendor format
0001_20120218_094521_melville.all.mb58.gz 2.38MB Kongsberg multibeam vendor format
0001_20120218_095021_melville.all.mb58.gz 2.48MB Kongsberg multibeam vendor format
0001_20120218_095521_melville.all.mb58.gz 2.51MB Kongsberg multibeam vendor format
0001_20120218_100021_melville.all.mb58.gz 2.40MB Kongsberg multibeam vendor format
0001_20120218_100521_melville.all.mb58.gz 2.63MB Kongsberg multibeam vendor format
0001_20120218_101021_melville.all.mb58.gz 2.56MB Kongsberg multibeam vendor format
0001_20120218_101521_melville.all.mb58.gz 2.52MB Kongsberg multibeam vendor format
0001_20120218_102021_melville.all.mb58.gz 2.71MB Kongsberg multibeam vendor format
0001_20120218_102521_melville.all.mb58.gz 2.63MB Kongsberg multibeam vendor format
0001_20120218_103021_melville.all.mb58.gz 2.50MB Kongsberg multibeam vendor format
0001_20120218_103521_melville.all.mb58.gz 2.54MB Kongsberg multibeam vendor format
0001_20120218_104021_melville.all.mb58.gz 2.65MB Kongsberg multibeam vendor format
0001_20120218_104521_melville.all.mb58.gz 2.94MB Kongsberg multibeam vendor format
0001_20120218_105021_melville.all.mb58.gz 2.96MB Kongsberg multibeam vendor format
0001_20120218_105521_melville.all.mb58.gz 2.75MB Kongsberg multibeam vendor format
0001_20120218_110021_melville.all.mb58.gz 2.94MB Kongsberg multibeam vendor format
0001_20120218_110521_melville.all.mb58.gz 2.99MB Kongsberg multibeam vendor format
0001_20120218_111022_melville.all.mb58.gz 2.76MB Kongsberg multibeam vendor format
0001_20120218_111522_melville.all.mb58.gz 2.63MB Kongsberg multibeam vendor format
0001_20120218_112022_melville.all.mb58.gz 2.53MB Kongsberg multibeam vendor format
0001_20120218_112522_melville.all.mb58.gz 2.34MB Kongsberg multibeam vendor format
0001_20120218_113022_melville.all.mb58.gz 2.24MB Kongsberg multibeam vendor format
0001_20120218_113522_melville.all.mb58.gz 2.22MB Kongsberg multibeam vendor format
0001_20120218_114022_melville.all.mb58.gz 2.15MB Kongsberg multibeam vendor format
0001_20120218_114522_melville.all.mb58.gz 2.09MB Kongsberg multibeam vendor format
0001_20120218_115022_melville.all.mb58.gz 2.26MB Kongsberg multibeam vendor format
0001_20120218_115522_melville.all.mb58.gz 2.76MB Kongsberg multibeam vendor format
0001_20120218_120022_melville.all.mb58.gz 3.13MB Kongsberg multibeam vendor format
0001_20120218_120522_melville.all.mb58.gz 3.45MB Kongsberg multibeam vendor format
0001_20120218_121022_melville.all.mb58.gz 3.53MB Kongsberg multibeam vendor format
0001_20120218_121522_melville.all.mb58.gz 3.62MB Kongsberg multibeam vendor format
0001_20120218_122022_melville.all.mb58.gz 3.51MB Kongsberg multibeam vendor format
0001_20120218_122522_melville.all.mb58.gz 3.53MB Kongsberg multibeam vendor format
0001_20120218_123022_melville.all.mb58.gz 3.62MB Kongsberg multibeam vendor format
0001_20120218_123522_melville.all.mb58.gz 3.52MB Kongsberg multibeam vendor format
0001_20120218_124022_melville.all.mb58.gz 3.53MB Kongsberg multibeam vendor format
0001_20120218_124522_melville.all.mb58.gz 3.64MB Kongsberg multibeam vendor format
0001_20120218_125022_melville.all.mb58.gz 3.47MB Kongsberg multibeam vendor format
0001_20120218_125522_melville.all.mb58.gz 3.53MB Kongsberg multibeam vendor format
0001_20120218_130022_melville.all.mb58.gz 3.55MB Kongsberg multibeam vendor format
0001_20120218_130522_melville.all.mb58.gz 3.70MB Kongsberg multibeam vendor format
0001_20120218_131022_melville.all.mb58.gz 3.41MB Kongsberg multibeam vendor format
0001_20120218_131522_melville.all.mb58.gz 3.51MB Kongsberg multibeam vendor format
0001_20120218_132023_melville.all.mb58.gz 3.62MB Kongsberg multibeam vendor format
0001_20120218_132523_melville.all.mb58.gz 3.47MB Kongsberg multibeam vendor format
0001_20120218_133023_melville.all.mb58.gz 3.57MB Kongsberg multibeam vendor format
0001_20120218_133523_melville.all.mb58.gz 3.44MB Kongsberg multibeam vendor format
0001_20120218_134023_melville.all.mb58.gz 3.45MB Kongsberg multibeam vendor format
0001_20120218_134523_melville.all.mb58.gz 3.45MB Kongsberg multibeam vendor format
0001_20120218_135023_melville.all.mb58.gz 3.54MB Kongsberg multibeam vendor format
0001_20120218_135523_melville.all.mb58.gz 2.44MB Kongsberg multibeam vendor format
0001_20120218_140023_melville.all.mb58.gz 2.11MB Kongsberg multibeam vendor format
0001_20120218_140523_melville.all.mb58.gz 2.24MB Kongsberg multibeam vendor format
0001_20120218_141023_melville.all.mb58.gz 2.54MB Kongsberg multibeam vendor format
0001_20120218_141523_melville.all.mb58.gz 2.34MB Kongsberg multibeam vendor format
0001_20120218_142023_melville.all.mb58.gz 2.38MB Kongsberg multibeam vendor format
0001_20120218_142523_melville.all.mb58.gz 2.37MB Kongsberg multibeam vendor format
0001_20120218_143023_melville.all.mb58.gz 2.22MB Kongsberg multibeam vendor format
0001_20120218_143523_melville.all.mb58.gz 2.25MB Kongsberg multibeam vendor format
0001_20120218_144023_melville.all.mb58.gz 2.03MB Kongsberg multibeam vendor format
0001_20120218_144523_melville.all.mb58.gz 2.67MB Kongsberg multibeam vendor format
0001_20120218_145023_melville.all.mb58.gz 2.75MB Kongsberg multibeam vendor format
0001_20120218_145523_melville.all.mb58.gz 2.55MB Kongsberg multibeam vendor format
0001_20120218_150023_melville.all.mb58.gz 2.40MB Kongsberg multibeam vendor format
0001_20120218_150523_melville.all.mb58.gz 2.28MB Kongsberg multibeam vendor format
0001_20120218_151023_melville.all.mb58.gz 2.13MB Kongsberg multibeam vendor format
0001_20120218_151523_melville.all.mb58.gz 2.63MB Kongsberg multibeam vendor format
0001_20120218_152023_melville.all.mb58.gz 2.34MB Kongsberg multibeam vendor format
0001_20120218_152523_melville.all.mb58.gz 2.47MB Kongsberg multibeam vendor format
0001_20120218_153023_melville.all.mb58.gz 2.42MB Kongsberg multibeam vendor format
0001_20120218_153523_melville.all.mb58.gz 2.43MB Kongsberg multibeam vendor format
0001_20120218_154023_melville.all.mb58.gz 2.26MB Kongsberg multibeam vendor format
0001_20120218_154523_melville.all.mb58.gz 2.04MB Kongsberg multibeam vendor format
0001_20120218_155023_melville.all.mb58.gz 2.10MB Kongsberg multibeam vendor format
0001_20120218_155523_melville.all.mb58.gz 2.28MB Kongsberg multibeam vendor format
0001_20120218_160023_melville.all.mb58.gz 2.24MB Kongsberg multibeam vendor format
0001_20120218_160523_melville.all.mb58.gz 2.60MB Kongsberg multibeam vendor format
0001_20120218_161023_melville.all.mb58.gz 2.23MB Kongsberg multibeam vendor format
0001_20120218_161523_melville.all.mb58.gz 2.81MB Kongsberg multibeam vendor format
0001_20120218_162023_melville.all.mb58.gz 2.88MB Kongsberg multibeam vendor format
0001_20120218_162523_melville.all.mb58.gz 2.80MB Kongsberg multibeam vendor format
0001_20120218_163023_melville.all.mb58.gz 2.69MB Kongsberg multibeam vendor format
0001_20120218_163523_melville.all.mb58.gz 2.60MB Kongsberg multibeam vendor format
0001_20120218_164023_melville.all.mb58.gz 2.37MB Kongsberg multibeam vendor format
0001_20120218_164523_melville.all.mb58.gz 2.41MB Kongsberg multibeam vendor format
0001_20120218_165023_melville.all.mb58.gz 2.25MB Kongsberg multibeam vendor format
0001_20120218_165523_melville.all.mb58.gz 2.06MB Kongsberg multibeam vendor format
0001_20120218_170023_melville.all.mb58.gz 2.13MB Kongsberg multibeam vendor format
0001_20120218_170523_melville.all.mb58.gz 2.40MB Kongsberg multibeam vendor format
0001_20120218_171024_melville.all.mb58.gz 2.51MB Kongsberg multibeam vendor format
0001_20120218_171524_melville.all.mb58.gz 2.56MB Kongsberg multibeam vendor format
0001_20120218_172024_melville.all.mb58.gz 2.64MB Kongsberg multibeam vendor format
0001_20120218_172524_melville.all.mb58.gz 2.96MB Kongsberg multibeam vendor format
0001_20120218_173024_melville.all.mb58.gz 3.15MB Kongsberg multibeam vendor format
0001_20120218_173524_melville.all.mb58.gz 3.37MB Kongsberg multibeam vendor format
0001_20120218_174024_melville.all.mb58.gz 3.49MB Kongsberg multibeam vendor format
0001_20120218_174524_melville.all.mb58.gz 3.36MB Kongsberg multibeam vendor format
0001_20120218_175024_melville.all.mb58.gz 3.44MB Kongsberg multibeam vendor format
0001_20120218_175524_melville.all.mb58.gz 3.41MB Kongsberg multibeam vendor format
0001_20120218_180024_melville.all.mb58.gz 3.58MB Kongsberg multibeam vendor format
0001_20120218_180524_melville.all.mb58.gz 3.37MB Kongsberg multibeam vendor format
0001_20120218_181024_melville.all.mb58.gz 3.40MB Kongsberg multibeam vendor format
0001_20120218_181524_melville.all.mb58.gz 3.16MB Kongsberg multibeam vendor format
0001_20120218_182024_melville.all.mb58.gz 2.87MB Kongsberg multibeam vendor format
0001_20120218_182524_melville.all.mb58.gz 2.79MB Kongsberg multibeam vendor format
0001_20120218_183024_melville.all.mb58.gz 2.88MB Kongsberg multibeam vendor format
0001_20120218_183524_melville.all.mb58.gz 2.87MB Kongsberg multibeam vendor format
0001_20120218_184024_melville.all.mb58.gz 3.02MB Kongsberg multibeam vendor format
0001_20120218_184524_melville.all.mb58.gz 2.72MB Kongsberg multibeam vendor format
0001_20120218_185024_melville.all.mb58.gz 2.76MB Kongsberg multibeam vendor format
0001_20120218_185524_melville.all.mb58.gz 2.98MB Kongsberg multibeam vendor format
0001_20120218_190024_melville.all.mb58.gz 3.49MB Kongsberg multibeam vendor format
0001_20120218_190524_melville.all.mb58.gz 3.53MB Kongsberg multibeam vendor format
0001_20120218_191024_melville.all.mb58.gz 3.45MB Kongsberg multibeam vendor format
0001_20120218_191524_melville.all.mb58.gz 3.39MB Kongsberg multibeam vendor format
0001_20120218_192024_melville.all.mb58.gz 3.00MB Kongsberg multibeam vendor format
0001_20120218_192524_melville.all.mb58.gz 2.89MB Kongsberg multibeam vendor format
0001_20120218_193024_melville.all.mb58.gz 3.33MB Kongsberg multibeam vendor format
0001_20120218_193524_melville.all.mb58.gz 3.09MB Kongsberg multibeam vendor format
0001_20120218_194024_melville.all.mb58.gz 2.72MB Kongsberg multibeam vendor format
0001_20120218_194524_melville.all.mb58.gz 2.14MB Kongsberg multibeam vendor format
0001_20120218_195024_melville.all.mb58.gz 2.34MB Kongsberg multibeam vendor format
0001_20120218_195524_melville.all.mb58.gz 2.73MB Kongsberg multibeam vendor format
0001_20120218_200024_melville.all.mb58.gz 3.19MB Kongsberg multibeam vendor format
0001_20120218_200524_melville.all.mb58.gz 2.86MB Kongsberg multibeam vendor format
0001_20120218_201024_melville.all.mb58.gz 2.89MB Kongsberg multibeam vendor format
0001_20120218_201524_melville.all.mb58.gz 2.58MB Kongsberg multibeam vendor format
0001_20120218_202024_melville.all.mb58.gz 2.61MB Kongsberg multibeam vendor format
0001_20120218_202524_melville.all.mb58.gz 2.75MB Kongsberg multibeam vendor format
0001_20120218_203024_melville.all.mb58.gz 2.54MB Kongsberg multibeam vendor format
0001_20120218_203524_melville.all.mb58.gz 2.39MB Kongsberg multibeam vendor format
0001_20120218_204024_melville.all.mb58.gz 2.21MB Kongsberg multibeam vendor format
0001_20120218_204524_melville.all.mb58.gz 2.11MB Kongsberg multibeam vendor format
0001_20120218_205024_melville.all.mb58.gz 2.37MB Kongsberg multibeam vendor format
0001_20120218_205524_melville.all.mb58.gz 2.76MB Kongsberg multibeam vendor format
0001_20120218_210024_melville.all.mb58.gz 2.76MB Kongsberg multibeam vendor format
0001_20120218_210524_melville.all.mb58.gz 2.32MB Kongsberg multibeam vendor format
0001_20120218_211024_melville.all.mb58.gz 2.40MB Kongsberg multibeam vendor format
0001_20120218_211524_melville.all.mb58.gz 2.50MB Kongsberg multibeam vendor format
0001_20120218_212024_melville.all.mb58.gz 2.34MB Kongsberg multibeam vendor format
0001_20120218_212524_melville.all.mb58.gz 2.11MB Kongsberg multibeam vendor format
0001_20120218_213024_melville.all.mb58.gz 2.43MB Kongsberg multibeam vendor format
0001_20120218_213524_melville.all.mb58.gz 2.35MB Kongsberg multibeam vendor format
0001_20120218_214024_melville.all.mb58.gz 2.24MB Kongsberg multibeam vendor format
0001_20120218_214524_melville.all.mb58.gz 2.29MB Kongsberg multibeam vendor format
0001_20120218_215024_melville.all.mb58.gz 2.27MB Kongsberg multibeam vendor format
0001_20120218_215524_melville.all.mb58.gz 2.27MB Kongsberg multibeam vendor format
0001_20120218_220024_melville.all.mb58.gz 2.15MB Kongsberg multibeam vendor format
0001_20120218_220524_melville.all.mb58.gz 2.28MB Kongsberg multibeam vendor format
0001_20120218_221024_melville.all.mb58.gz 2.04MB Kongsberg multibeam vendor format
0001_20120218_221524_melville.all.mb58.gz 2.11MB Kongsberg multibeam vendor format
0001_20120218_222024_melville.all.mb58.gz 2.17MB Kongsberg multibeam vendor format
0001_20120218_222524_melville.all.mb58.gz 2.09MB Kongsberg multibeam vendor format
0001_20120218_223024_melville.all.mb58.gz 2.31MB Kongsberg multibeam vendor format
0001_20120218_223524_melville.all.mb58.gz 2.32MB Kongsberg multibeam vendor format
0001_20120218_224024_melville.all.mb58.gz 2.29MB Kongsberg multibeam vendor format
0001_20120218_224524_melville.all.mb58.gz 2.22MB Kongsberg multibeam vendor format
0001_20120218_225024_melville.all.mb58.gz 2.49MB Kongsberg multibeam vendor format
0001_20120218_225524_melville.all.mb58.gz 2.82MB Kongsberg multibeam vendor format
0001_20120218_230024_melville.all.mb58.gz 2.93MB Kongsberg multibeam vendor format
0001_20120218_230524_melville.all.mb58.gz 3.11MB Kongsberg multibeam vendor format
0001_20120218_231024_melville.all.mb58.gz 2.96MB Kongsberg multibeam vendor format
0001_20120218_231525_melville.all.mb58.gz 3.30MB Kongsberg multibeam vendor format
0001_20120218_232025_melville.all.mb58.gz 3.43MB Kongsberg multibeam vendor format
0001_20120218_232525_melville.all.mb58.gz 3.60MB Kongsberg multibeam vendor format
0001_20120218_233025_melville.all.mb58.gz 3.59MB Kongsberg multibeam vendor format
0001_20120218_233525_melville.all.mb58.gz 3.51MB Kongsberg multibeam vendor format
0001_20120218_234025_melville.all.mb58.gz 3.99MB Kongsberg multibeam vendor format
0001_20120218_234525_melville.all.mb58.gz 3.99MB Kongsberg multibeam vendor format
0001_20120218_235025_melville.all.mb58.gz 4.13MB Kongsberg multibeam vendor format
0001_20120218_235525_melville.all.mb58.gz 4.12MB Kongsberg multibeam vendor format
0001_20120219_000025_melville.all.mb58.gz 4.01MB Kongsberg multibeam vendor format
0001_20120219_000525_melville.all.mb58.gz 4.01MB Kongsberg multibeam vendor format
0001_20120219_001025_melville.all.mb58.gz 4.12MB Kongsberg multibeam vendor format
0001_20120219_001525_melville.all.mb58.gz 4.02MB Kongsberg multibeam vendor format
0001_20120219_002025_melville.all.mb58.gz 3.86MB Kongsberg multibeam vendor format
0001_20120219_002525_melville.all.mb58.gz 3.09MB Kongsberg multibeam vendor format
0001_20120219_003025_melville.all.mb58.gz 1.99MB Kongsberg multibeam vendor format
0001_20120219_003525_melville.all.mb58.gz 2.93MB Kongsberg multibeam vendor format
0001_20120219_004025_melville.all.mb58.gz 3.17MB Kongsberg multibeam vendor format
0001_20120219_004525_melville.all.mb58.gz 3.03MB Kongsberg multibeam vendor format
0001_20120219_005025_melville.all.mb58.gz 2.79MB Kongsberg multibeam vendor format
0001_20120219_005525_melville.all.mb58.gz 2.77MB Kongsberg multibeam vendor format
0001_20120219_010025_melville.all.mb58.gz 2.70MB Kongsberg multibeam vendor format
0001_20120219_010525_melville.all.mb58.gz 2.80MB Kongsberg multibeam vendor format
0001_20120219_011025_melville.all.mb58.gz 2.75MB Kongsberg multibeam vendor format
0001_20120219_011525_melville.all.mb58.gz 2.89MB Kongsberg multibeam vendor format
0001_20120219_012025_melville.all.mb58.gz 2.75MB Kongsberg multibeam vendor format
0001_20120219_012525_melville.all.mb58.gz 2.76MB Kongsberg multibeam vendor format
0001_20120219_013025_melville.all.mb58.gz 2.80MB Kongsberg multibeam vendor format
0001_20120219_013525_melville.all.mb58.gz 2.94MB Kongsberg multibeam vendor format
0001_20120219_014025_melville.all.mb58.gz 3.33MB Kongsberg multibeam vendor format
0001_20120219_014525_melville.all.mb58.gz 3.33MB Kongsberg multibeam vendor format
0001_20120219_015025_melville.all.mb58.gz 3.48MB Kongsberg multibeam vendor format
0001_20120219_015525_melville.all.mb58.gz 3.62MB Kongsberg multibeam vendor format
0001_20120219_020025_melville.all.mb58.gz 3.38MB Kongsberg multibeam vendor format
0001_20120219_020525_melville.all.mb58.gz 3.56MB Kongsberg multibeam vendor format
0001_20120219_021025_melville.all.mb58.gz 3.42MB Kongsberg multibeam vendor format
0001_20120219_021525_melville.all.mb58.gz 3.67MB Kongsberg multibeam vendor format
0001_20120219_022025_melville.all.mb58.gz 3.51MB Kongsberg multibeam vendor format
0001_20120219_022525_melville.all.mb58.gz 3.45MB Kongsberg multibeam vendor format
0001_20120219_023025_melville.all.mb58.gz 3.52MB Kongsberg multibeam vendor format
0001_20120219_023525_melville.all.mb58.gz 3.85MB Kongsberg multibeam vendor format
0001_20120219_024025_melville.all.mb58.gz 4.43MB Kongsberg multibeam vendor format
0001_20120219_024525_melville.all.mb58.gz 3.92MB Kongsberg multibeam vendor format
0001_20120219_025025_melville.all.mb58.gz 3.93MB Kongsberg multibeam vendor format
0001_20120219_025525_melville.all.mb58.gz 3.92MB Kongsberg multibeam vendor format
0001_20120219_030025_melville.all.mb58.gz 3.89MB Kongsberg multibeam vendor format
0001_20120219_030525_melville.all.mb58.gz 4.13MB Kongsberg multibeam vendor format
0001_20120219_031025_melville.all.mb58.gz 4.37MB Kongsberg multibeam vendor format
0001_20120219_031525_melville.all.mb58.gz 4.27MB Kongsberg multibeam vendor format
0001_20120219_032025_melville.all.mb58.gz 4.39MB Kongsberg multibeam vendor format